<?xml version="1.0" encoding="UTF-8" standalone="no" ?>
<gpx xmlns="http://www.topografix.com/GPX/1/1" xmlns:xsi="http://www.w3.org/2001/XMLSchema-instance" xsi:schemaLocation="http://www.topografix.com/GPX/1/1 http://www.topografix.com/GPX/1/1/gpx.xsd" version="1.1" creator="VisuGPX - https://www.visugpx.com">
  <metadata>
    <name>sortie du 27 mars 2016</name>
    <desc><![CDATA[Autour de Nueil les Aubiers]]></desc>
  </metadata>
  <trk>
    <name><![CDATA[Tracé 27 mars 2016 08:52:56]]></name>
    <trkseg>
      <trkpt lat="46.94132" lon="-0.58906">
        <ele>119</ele>
        <time>2016-03-27T06:52:56Z</time>
      </trkpt>
      <trkpt lat="46.94125" lon="-0.58901">
        <ele>114</ele>
        <time>2016-03-27T06:57:08Z</time>
      </trkpt>
      <trkpt lat="46.94116" lon="-0.58895">
        <ele>116</ele>
        <time>2016-03-27T06:57:12Z</time>
      </trkpt>
      <trkpt lat="46.94108" lon="-0.58895">
        <ele>116</ele>
        <time>2016-03-27T06:57:16Z</time>
      </trkpt>
      <trkpt lat="46.94102" lon="-0.58896">
        <ele>116</ele>
        <time>2016-03-27T06:57:20Z</time>
      </trkpt>
      <trkpt lat="46.94097" lon="-0.58891">
        <ele>116</ele>
        <time>2016-03-27T06:57:24Z</time>
      </trkpt>
      <trkpt lat="46.94094" lon="-0.5888">
        <ele>117</ele>
        <time>2016-03-27T06:57:28Z</time>
      </trkpt>
      <trkpt lat="46.94088" lon="-0.58862">
        <ele>117</ele>
        <time>2016-03-27T06:57:32Z</time>
      </trkpt>
      <trkpt lat="46.94072" lon="-0.5886">
        <ele>118</ele>
        <time>2016-03-27T06:57:36Z</time>
      </trkpt>
      <trkpt lat="46.94064" lon="-0.58843">
        <ele>118</ele>
        <time>2016-03-27T06:57:40Z</time>
      </trkpt>
      <trkpt lat="46.94062" lon="-0.58819">
        <ele>118</ele>
        <time>2016-03-27T06:57:44Z</time>
      </trkpt>
      <trkpt lat="46.94059" lon="-0.58794">
        <ele>118</ele>
        <time>2016-03-27T06:57:48Z</time>
      </trkpt>
      <trkpt lat="46.94057" lon="-0.58766">
        <ele>118</ele>
        <time>2016-03-27T06:57:52Z</time>
      </trkpt>
      <trkpt lat="46.94053" lon="-0.58737">
        <ele>118</ele>
        <time>2016-03-27T06:57:56Z</time>
      </trkpt>
      <trkpt lat="46.94052" lon="-0.58708">
        <ele>118</ele>
        <time>2016-03-27T06:58:00Z</time>
      </trkpt>
      <trkpt lat="46.94049" lon="-0.5868">
        <ele>118</ele>
        <time>2016-03-27T06:58:04Z</time>
      </trkpt>
      <trkpt lat="46.94039" lon="-0.58656">
        <ele>119</ele>
        <time>2016-03-27T06:58:08Z</time>
      </trkpt>
      <trkpt lat="46.9403" lon="-0.58633">
        <ele>118</ele>
        <time>2016-03-27T06:58:12Z</time>
      </trkpt>
      <trkpt lat="46.94017" lon="-0.58619">
        <ele>119</ele>
        <time>2016-03-27T06:58:17Z</time>
      </trkpt>
      <trkpt lat="46.94003" lon="-0.58633">
        <ele>120</ele>
        <time>2016-03-27T06:58:21Z</time>
      </trkpt>
      <trkpt lat="46.93988" lon="-0.58653">
        <ele>120</ele>
        <time>2016-03-27T06:58:26Z</time>
      </trkpt>
      <trkpt lat="46.93979" lon="-0.58659">
        <ele>121</ele>
        <time>2016-03-27T06:58:30Z</time>
      </trkpt>
      <trkpt lat="46.93974" lon="-0.5865">
        <ele>122</ele>
        <time>2016-03-27T06:58:36Z</time>
      </trkpt>
      <trkpt lat="46.93969" lon="-0.58632">
        <ele>124</ele>
        <time>2016-03-27T06:58:40Z</time>
      </trkpt>
      <trkpt lat="46.93963" lon="-0.5861">
        <ele>125</ele>
        <time>2016-03-27T06:58:44Z</time>
      </trkpt>
      <trkpt lat="46.93954" lon="-0.58588">
        <ele>127</ele>
        <time>2016-03-27T06:58:48Z</time>
      </trkpt>
      <trkpt lat="46.93942" lon="-0.58554">
        <ele>127</ele>
        <time>2016-03-27T06:58:53Z</time>
      </trkpt>
      <trkpt lat="46.93933" lon="-0.58526">
        <ele>127</ele>
        <time>2016-03-27T06:58:57Z</time>
      </trkpt>
      <trkpt lat="46.93923" lon="-0.58496">
        <ele>127</ele>
        <time>2016-03-27T06:59:01Z</time>
      </trkpt>
      <trkpt lat="46.93918" lon="-0.58465">
        <ele>126</ele>
        <time>2016-03-27T06:59:05Z</time>
      </trkpt>
      <trkpt lat="46.93909" lon="-0.58432">
        <ele>124</ele>
        <time>2016-03-27T06:59:09Z</time>
      </trkpt>
      <trkpt lat="46.93899" lon="-0.58404">
        <ele>123</ele>
        <time>2016-03-27T06:59:13Z</time>
      </trkpt>
      <trkpt lat="46.93888" lon="-0.58375">
        <ele>122</ele>
        <time>2016-03-27T06:59:17Z</time>
      </trkpt>
      <trkpt lat="46.93878" lon="-0.58345">
        <ele>121</ele>
        <time>2016-03-27T06:59:21Z</time>
      </trkpt>
      <trkpt lat="46.93867" lon="-0.58313">
        <ele>119</ele>
        <time>2016-03-27T06:59:25Z</time>
      </trkpt>
      <trkpt lat="46.93856" lon="-0.58283">
        <ele>121</ele>
        <time>2016-03-27T06:59:29Z</time>
      </trkpt>
      <trkpt lat="46.93844" lon="-0.58253">
        <ele>119</ele>
        <time>2016-03-27T06:59:33Z</time>
      </trkpt>
      <trkpt lat="46.93831" lon="-0.58224">
        <ele>118</ele>
        <time>2016-03-27T06:59:37Z</time>
      </trkpt>
      <trkpt lat="46.93818" lon="-0.58193">
        <ele>117</ele>
        <time>2016-03-27T06:59:41Z</time>
      </trkpt>
      <trkpt lat="46.93806" lon="-0.58162">
        <ele>115</ele>
        <time>2016-03-27T06:59:45Z</time>
      </trkpt>
      <trkpt lat="46.93794" lon="-0.5813">
        <ele>115</ele>
        <time>2016-03-27T06:59:49Z</time>
      </trkpt>
      <trkpt lat="46.93782" lon="-0.581">
        <ele>114</ele>
        <time>2016-03-27T06:59:53Z</time>
      </trkpt>
      <trkpt lat="46.93769" lon="-0.58069">
        <ele>115</ele>
        <time>2016-03-27T06:59:57Z</time>
      </trkpt>
      <trkpt lat="46.93757" lon="-0.58041">
        <ele>113</ele>
        <time>2016-03-27T07:00:01Z</time>
      </trkpt>
      <trkpt lat="46.93745" lon="-0.58009">
        <ele>112</ele>
        <time>2016-03-27T07:00:05Z</time>
      </trkpt>
      <trkpt lat="46.93732" lon="-0.57977">
        <ele>112</ele>
        <time>2016-03-27T07:00:09Z</time>
      </trkpt>
      <trkpt lat="46.93719" lon="-0.57944">
        <ele>111</ele>
        <time>2016-03-27T07:00:13Z</time>
      </trkpt>
      <trkpt lat="46.93706" lon="-0.57912">
        <ele>112</ele>
        <time>2016-03-27T07:00:17Z</time>
      </trkpt>
      <trkpt lat="46.93693" lon="-0.57881">
        <ele>114</ele>
        <time>2016-03-27T07:00:21Z</time>
      </trkpt>
      <trkpt lat="46.9368" lon="-0.5785">
        <ele>115</ele>
        <time>2016-03-27T07:00:25Z</time>
      </trkpt>
      <trkpt lat="46.93669" lon="-0.57819">
        <ele>116</ele>
        <time>2016-03-27T07:00:29Z</time>
      </trkpt>
      <trkpt lat="46.93657" lon="-0.57788">
        <ele>116</ele>
        <time>2016-03-27T07:00:33Z</time>
      </trkpt>
      <trkpt lat="46.93646" lon="-0.57756">
        <ele>114</ele>
        <time>2016-03-27T07:00:37Z</time>
      </trkpt>
      <trkpt lat="46.93631" lon="-0.57712">
        <ele>111</ele>
        <time>2016-03-27T07:00:42Z</time>
      </trkpt>
      <trkpt lat="46.93619" lon="-0.5768">
        <ele>113</ele>
        <time>2016-03-27T07:00:46Z</time>
      </trkpt>
      <trkpt lat="46.93609" lon="-0.57645">
        <ele>113</ele>
        <time>2016-03-27T07:00:50Z</time>
      </trkpt>
      <trkpt lat="46.93595" lon="-0.57605">
        <ele>114</ele>
        <time>2016-03-27T07:00:55Z</time>
      </trkpt>
      <trkpt lat="46.93585" lon="-0.57572">
        <ele>114</ele>
        <time>2016-03-27T07:00:59Z</time>
      </trkpt>
      <trkpt lat="46.93576" lon="-0.57539">
        <ele>113</ele>
        <time>2016-03-27T07:01:03Z</time>
      </trkpt>
      <trkpt lat="46.9357" lon="-0.57514">
        <ele>112</ele>
        <time>2016-03-27T07:01:06Z</time>
      </trkpt>
      <trkpt lat="46.93563" lon="-0.5748">
        <ele>113</ele>
        <time>2016-03-27T07:01:10Z</time>
      </trkpt>
      <trkpt lat="46.93554" lon="-0.57447">
        <ele>116</ele>
        <time>2016-03-27T07:01:14Z</time>
      </trkpt>
      <trkpt lat="46.93547" lon="-0.57414">
        <ele>116</ele>
        <time>2016-03-27T07:01:18Z</time>
      </trkpt>
      <trkpt lat="46.93537" lon="-0.57385">
        <ele>115</ele>
        <time>2016-03-27T07:01:22Z</time>
      </trkpt>
      <trkpt lat="46.93527" lon="-0.57352">
        <ele>116</ele>
        <time>2016-03-27T07:01:26Z</time>
      </trkpt>
      <trkpt lat="46.93522" lon="-0.57317">
        <ele>115</ele>
        <time>2016-03-27T07:01:30Z</time>
      </trkpt>
      <trkpt lat="46.93515" lon="-0.5728">
        <ele>115</ele>
        <time>2016-03-27T07:01:34Z</time>
      </trkpt>
      <trkpt lat="46.93505" lon="-0.57248">
        <ele>114</ele>
        <time>2016-03-27T07:01:38Z</time>
      </trkpt>
      <trkpt lat="46.935" lon="-0.57214">
        <ele>112</ele>
        <time>2016-03-27T07:01:42Z</time>
      </trkpt>
      <trkpt lat="46.93495" lon="-0.57179">
        <ele>110</ele>
        <time>2016-03-27T07:01:46Z</time>
      </trkpt>
      <trkpt lat="46.93489" lon="-0.5715">
        <ele>110</ele>
        <time>2016-03-27T07:01:50Z</time>
      </trkpt>
      <trkpt lat="46.93479" lon="-0.57119">
        <ele>109</ele>
        <time>2016-03-27T07:01:54Z</time>
      </trkpt>
      <trkpt lat="46.93473" lon="-0.57091">
        <ele>109</ele>
        <time>2016-03-27T07:01:58Z</time>
      </trkpt>
      <trkpt lat="46.93468" lon="-0.57072">
        <ele>109</ele>
        <time>2016-03-27T07:02:02Z</time>
      </trkpt>
      <trkpt lat="46.93462" lon="-0.57054">
        <ele>109</ele>
        <time>2016-03-27T07:02:07Z</time>
      </trkpt>
      <trkpt lat="46.93447" lon="-0.57059">
        <ele>110</ele>
        <time>2016-03-27T07:02:11Z</time>
      </trkpt>
      <trkpt lat="46.9343" lon="-0.57059">
        <ele>110</ele>
        <time>2016-03-27T07:02:15Z</time>
      </trkpt>
      <trkpt lat="46.9341" lon="-0.5705">
        <ele>111</ele>
        <time>2016-03-27T07:02:20Z</time>
      </trkpt>
      <trkpt lat="46.93399" lon="-0.57043">
        <ele>112</ele>
        <time>2016-03-27T07:02:23Z</time>
      </trkpt>
      <trkpt lat="46.93381" lon="-0.57044">
        <ele>113</ele>
        <time>2016-03-27T07:02:27Z</time>
      </trkpt>
      <trkpt lat="46.93358" lon="-0.57044">
        <ele>114</ele>
        <time>2016-03-27T07:02:32Z</time>
      </trkpt>
      <trkpt lat="46.9334" lon="-0.57044">
        <ele>115</ele>
        <time>2016-03-27T07:02:36Z</time>
      </trkpt>
      <trkpt lat="46.93321" lon="-0.57041">
        <ele>115</ele>
        <time>2016-03-27T07:02:40Z</time>
      </trkpt>
      <trkpt lat="46.93303" lon="-0.57047">
        <ele>115</ele>
        <time>2016-03-27T07:02:44Z</time>
      </trkpt>
      <trkpt lat="46.93287" lon="-0.57055">
        <ele>116</ele>
        <time>2016-03-27T07:02:48Z</time>
      </trkpt>
      <trkpt lat="46.93269" lon="-0.57059">
        <ele>116</ele>
        <time>2016-03-27T07:02:52Z</time>
      </trkpt>
      <trkpt lat="46.93251" lon="-0.57066">
        <ele>114</ele>
        <time>2016-03-27T07:02:56Z</time>
      </trkpt>
      <trkpt lat="46.93232" lon="-0.57053">
        <ele>112</ele>
        <time>2016-03-27T07:03:00Z</time>
      </trkpt>
      <trkpt lat="46.93217" lon="-0.57016">
        <ele>112</ele>
        <time>2016-03-27T07:03:05Z</time>
      </trkpt>
      <trkpt lat="46.93206" lon="-0.57007">
        <ele>112</ele>
        <time>2016-03-27T07:03:09Z</time>
      </trkpt>
      <trkpt lat="46.93191" lon="-0.57026">
        <ele>110</ele>
        <time>2016-03-27T07:03:14Z</time>
      </trkpt>
      <trkpt lat="46.93176" lon="-0.57045">
        <ele>111</ele>
        <time>2016-03-27T07:03:19Z</time>
      </trkpt>
      <trkpt lat="46.93164" lon="-0.5706">
        <ele>112</ele>
        <time>2016-03-27T07:03:23Z</time>
      </trkpt>
      <trkpt lat="46.93155" lon="-0.57071">
        <ele>112</ele>
        <time>2016-03-27T07:03:26Z</time>
      </trkpt>
      <trkpt lat="46.93144" lon="-0.57087">
        <ele>116</ele>
        <time>2016-03-27T07:03:30Z</time>
      </trkpt>
      <trkpt lat="46.93128" lon="-0.57106">
        <ele>117</ele>
        <time>2016-03-27T07:03:35Z</time>
      </trkpt>
      <trkpt lat="46.93113" lon="-0.57116">
        <ele>119</ele>
        <time>2016-03-27T07:03:39Z</time>
      </trkpt>
      <trkpt lat="46.93099" lon="-0.57124">
        <ele>120</ele>
        <time>2016-03-27T07:03:43Z</time>
      </trkpt>
      <trkpt lat="46.93085" lon="-0.57134">
        <ele>119</ele>
        <time>2016-03-27T07:03:47Z</time>
      </trkpt>
      <trkpt lat="46.93074" lon="-0.57142">
        <ele>119</ele>
        <time>2016-03-27T07:03:51Z</time>
      </trkpt>
      <trkpt lat="46.9306" lon="-0.57153">
        <ele>120</ele>
        <time>2016-03-27T07:03:55Z</time>
      </trkpt>
      <trkpt lat="46.93046" lon="-0.57162">
        <ele>120</ele>
        <time>2016-03-27T07:03:59Z</time>
      </trkpt>
      <trkpt lat="46.93032" lon="-0.5717">
        <ele>122</ele>
        <time>2016-03-27T07:04:03Z</time>
      </trkpt>
      <trkpt lat="46.93016" lon="-0.57176">
        <ele>122</ele>
        <time>2016-03-27T07:04:07Z</time>
      </trkpt>
      <trkpt lat="46.93001" lon="-0.57185">
        <ele>120</ele>
        <time>2016-03-27T07:04:11Z</time>
      </trkpt>
      <trkpt lat="46.92988" lon="-0.57195">
        <ele>122</ele>
        <time>2016-03-27T07:04:15Z</time>
      </trkpt>
      <trkpt lat="46.9297" lon="-0.57206">
        <ele>124</ele>
        <time>2016-03-27T07:04:20Z</time>
      </trkpt>
      <trkpt lat="46.92955" lon="-0.57213">
        <ele>124</ele>
        <time>2016-03-27T07:04:25Z</time>
      </trkpt>
      <trkpt lat="46.92943" lon="-0.57214">
        <ele>125</ele>
        <time>2016-03-27T07:04:30Z</time>
      </trkpt>
      <trkpt lat="46.92931" lon="-0.57222">
        <ele>125</ele>
        <time>2016-03-27T07:04:34Z</time>
      </trkpt>
      <trkpt lat="46.92919" lon="-0.57235">
        <ele>126</ele>
        <time>2016-03-27T07:04:38Z</time>
      </trkpt>
      <trkpt lat="46.92908" lon="-0.57248">
        <ele>125</ele>
        <time>2016-03-27T07:04:42Z</time>
      </trkpt>
      <trkpt lat="46.92896" lon="-0.57261">
        <ele>126</ele>
        <time>2016-03-27T07:04:46Z</time>
      </trkpt>
      <trkpt lat="46.92885" lon="-0.57272">
        <ele>127</ele>
        <time>2016-03-27T07:04:50Z</time>
      </trkpt>
      <trkpt lat="46.92873" lon="-0.5729">
        <ele>128</ele>
        <time>2016-03-27T07:04:55Z</time>
      </trkpt>
      <trkpt lat="46.92864" lon="-0.57304">
        <ele>128</ele>
        <time>2016-03-27T07:04:59Z</time>
      </trkpt>
      <trkpt lat="46.92855" lon="-0.57319">
        <ele>128</ele>
        <time>2016-03-27T07:05:03Z</time>
      </trkpt>
      <trkpt lat="46.92845" lon="-0.57331">
        <ele>129</ele>
        <time>2016-03-27T07:05:07Z</time>
      </trkpt>
      <trkpt lat="46.92835" lon="-0.57342">
        <ele>129</ele>
        <time>2016-03-27T07:05:11Z</time>
      </trkpt>
      <trkpt lat="46.92824" lon="-0.57351">
        <ele>129</ele>
        <time>2016-03-27T07:05:15Z</time>
      </trkpt>
      <trkpt lat="46.9281" lon="-0.5736">
        <ele>129</ele>
        <time>2016-03-27T07:05:19Z</time>
      </trkpt>
      <trkpt lat="46.92795" lon="-0.57369">
        <ele>129</ele>
        <time>2016-03-27T07:05:23Z</time>
      </trkpt>
      <trkpt lat="46.9278" lon="-0.57377">
        <ele>129</ele>
        <time>2016-03-27T07:05:27Z</time>
      </trkpt>
      <trkpt lat="46.92764" lon="-0.57385">
        <ele>129</ele>
        <time>2016-03-27T07:05:31Z</time>
      </trkpt>
      <trkpt lat="46.92746" lon="-0.57394">
        <ele>129</ele>
        <time>2016-03-27T07:05:36Z</time>
      </trkpt>
      <trkpt lat="46.92732" lon="-0.57402">
        <ele>129</ele>
        <time>2016-03-27T07:05:40Z</time>
      </trkpt>
      <trkpt lat="46.92712" lon="-0.57412">
        <ele>128</ele>
        <time>2016-03-27T07:05:45Z</time>
      </trkpt>
      <trkpt lat="46.92694" lon="-0.57421">
        <ele>128</ele>
        <time>2016-03-27T07:05:49Z</time>
      </trkpt>
      <trkpt lat="46.92677" lon="-0.57428">
        <ele>127</ele>
        <time>2016-03-27T07:05:53Z</time>
      </trkpt>
      <trkpt lat="46.92659" lon="-0.57442">
        <ele>127</ele>
        <time>2016-03-27T07:05:57Z</time>
      </trkpt>
      <trkpt lat="46.92646" lon="-0.57457">
        <ele>127</ele>
        <time>2016-03-27T07:06:01Z</time>
      </trkpt>
      <trkpt lat="46.92636" lon="-0.57476">
        <ele>127</ele>
        <time>2016-03-27T07:06:05Z</time>
      </trkpt>
      <trkpt lat="46.9262" lon="-0.57473">
        <ele>128</ele>
        <time>2016-03-27T07:06:09Z</time>
      </trkpt>
      <trkpt lat="46.92604" lon="-0.57468">
        <ele>126</ele>
        <time>2016-03-27T07:06:13Z</time>
      </trkpt>
      <trkpt lat="46.92589" lon="-0.5746">
        <ele>127</ele>
        <time>2016-03-27T07:06:17Z</time>
      </trkpt>
      <trkpt lat="46.92574" lon="-0.5745">
        <ele>127</ele>
        <time>2016-03-27T07:06:21Z</time>
      </trkpt>
      <trkpt lat="46.92561" lon="-0.57438">
        <ele>127</ele>
        <time>2016-03-27T07:06:25Z</time>
      </trkpt>
      <trkpt lat="46.92549" lon="-0.57425">
        <ele>128</ele>
        <time>2016-03-27T07:06:29Z</time>
      </trkpt>
      <trkpt lat="46.92535" lon="-0.57427">
        <ele>127</ele>
        <time>2016-03-27T07:06:33Z</time>
      </trkpt>
      <trkpt lat="46.92528" lon="-0.57448">
        <ele>127</ele>
        <time>2016-03-27T07:06:37Z</time>
      </trkpt>
      <trkpt lat="46.92515" lon="-0.57474">
        <ele>126</ele>
        <time>2016-03-27T07:06:42Z</time>
      </trkpt>
      <trkpt lat="46.92506" lon="-0.57495">
        <ele>127</ele>
        <time>2016-03-27T07:06:46Z</time>
      </trkpt>
      <trkpt lat="46.92498" lon="-0.57516">
        <ele>127</ele>
        <time>2016-03-27T07:06:50Z</time>
      </trkpt>
      <trkpt lat="46.92487" lon="-0.57531">
        <ele>128</ele>
        <time>2016-03-27T07:06:54Z</time>
      </trkpt>
      <trkpt lat="46.92476" lon="-0.57536">
        <ele>129</ele>
        <time>2016-03-27T07:06:58Z</time>
      </trkpt>
      <trkpt lat="46.9246" lon="-0.57539">
        <ele>129</ele>
        <time>2016-03-27T07:07:03Z</time>
      </trkpt>
      <trkpt lat="46.92447" lon="-0.57542">
        <ele>129</ele>
        <time>2016-03-27T07:07:07Z</time>
      </trkpt>
      <trkpt lat="46.9243" lon="-0.57547">
        <ele>128</ele>
        <time>2016-03-27T07:07:12Z</time>
      </trkpt>
      <trkpt lat="46.92417" lon="-0.57553">
        <ele>128</ele>
        <time>2016-03-27T07:07:16Z</time>
      </trkpt>
      <trkpt lat="46.92408" lon="-0.57569">
        <ele>128</ele>
        <time>2016-03-27T07:07:20Z</time>
      </trkpt>
      <trkpt lat="46.92403" lon="-0.57589">
        <ele>128</ele>
        <time>2016-03-27T07:07:24Z</time>
      </trkpt>
      <trkpt lat="46.92398" lon="-0.57608">
        <ele>129</ele>
        <time>2016-03-27T07:07:28Z</time>
      </trkpt>
      <trkpt lat="46.92394" lon="-0.57628">
        <ele>130</ele>
        <time>2016-03-27T07:07:32Z</time>
      </trkpt>
      <trkpt lat="46.92392" lon="-0.57646">
        <ele>130</ele>
        <time>2016-03-27T07:07:36Z</time>
      </trkpt>
      <trkpt lat="46.92389" lon="-0.57666">
        <ele>131</ele>
        <time>2016-03-27T07:07:40Z</time>
      </trkpt>
      <trkpt lat="46.92387" lon="-0.57684">
        <ele>131</ele>
        <time>2016-03-27T07:07:44Z</time>
      </trkpt>
      <trkpt lat="46.92383" lon="-0.57701">
        <ele>132</ele>
        <time>2016-03-27T07:07:48Z</time>
      </trkpt>
      <trkpt lat="46.9238" lon="-0.57718">
        <ele>132</ele>
        <time>2016-03-27T07:07:52Z</time>
      </trkpt>
      <trkpt lat="46.92375" lon="-0.57731">
        <ele>133</ele>
        <time>2016-03-27T07:07:56Z</time>
      </trkpt>
      <trkpt lat="46.92363" lon="-0.57746">
        <ele>133</ele>
        <time>2016-03-27T07:08:01Z</time>
      </trkpt>
      <trkpt lat="46.92355" lon="-0.57758">
        <ele>134</ele>
        <time>2016-03-27T07:08:05Z</time>
      </trkpt>
      <trkpt lat="46.9235" lon="-0.57771">
        <ele>136</ele>
        <time>2016-03-27T07:08:09Z</time>
      </trkpt>
      <trkpt lat="46.92355" lon="-0.57782">
        <ele>136</ele>
        <time>2016-03-27T07:08:13Z</time>
      </trkpt>
      <trkpt lat="46.9237" lon="-0.57791">
        <ele>136</ele>
        <time>2016-03-27T07:08:18Z</time>
      </trkpt>
      <trkpt lat="46.9238" lon="-0.57799">
        <ele>136</ele>
        <time>2016-03-27T07:08:21Z</time>
      </trkpt>
      <trkpt lat="46.92397" lon="-0.5781">
        <ele>136</ele>
        <time>2016-03-27T07:08:26Z</time>
      </trkpt>
      <trkpt lat="46.92412" lon="-0.57817">
        <ele>136</ele>
        <time>2016-03-27T07:08:30Z</time>
      </trkpt>
      <trkpt lat="46.92427" lon="-0.57827">
        <ele>136</ele>
        <time>2016-03-27T07:08:34Z</time>
      </trkpt>
      <trkpt lat="46.9244" lon="-0.57834">
        <ele>136</ele>
        <time>2016-03-27T07:08:38Z</time>
      </trkpt>
      <trkpt lat="46.92452" lon="-0.57843">
        <ele>136</ele>
        <time>2016-03-27T07:08:42Z</time>
      </trkpt>
      <trkpt lat="46.92463" lon="-0.5785">
        <ele>136</ele>
        <time>2016-03-27T07:08:46Z</time>
      </trkpt>
      <trkpt lat="46.92469" lon="-0.57862">
        <ele>137</ele>
        <time>2016-03-27T07:08:50Z</time>
      </trkpt>
      <trkpt lat="46.92464" lon="-0.57876">
        <ele>137</ele>
        <time>2016-03-27T07:08:54Z</time>
      </trkpt>
      <trkpt lat="46.92456" lon="-0.57889">
        <ele>137</ele>
        <time>2016-03-27T07:08:58Z</time>
      </trkpt>
      <trkpt lat="46.92446" lon="-0.57904">
        <ele>139</ele>
        <time>2016-03-27T07:09:03Z</time>
      </trkpt>
      <trkpt lat="46.92437" lon="-0.57917">
        <ele>135</ele>
        <time>2016-03-27T07:09:07Z</time>
      </trkpt>
      <trkpt lat="46.92428" lon="-0.57931">
        <ele>134</ele>
        <time>2016-03-27T07:09:11Z</time>
      </trkpt>
      <trkpt lat="46.9242" lon="-0.57946">
        <ele>135</ele>
        <time>2016-03-27T07:09:15Z</time>
      </trkpt>
      <trkpt lat="46.92412" lon="-0.57965">
        <ele>135</ele>
        <time>2016-03-27T07:09:20Z</time>
      </trkpt>
      <trkpt lat="46.92404" lon="-0.57984">
        <ele>136</ele>
        <time>2016-03-27T07:09:25Z</time>
      </trkpt>
      <trkpt lat="46.924" lon="-0.57996">
        <ele>137</ele>
        <time>2016-03-27T07:09:28Z</time>
      </trkpt>
      <trkpt lat="46.92395" lon="-0.58013">
        <ele>137</ele>
        <time>2016-03-27T07:09:32Z</time>
      </trkpt>
      <trkpt lat="46.92389" lon="-0.58029">
        <ele>137</ele>
        <time>2016-03-27T07:09:36Z</time>
      </trkpt>
      <trkpt lat="46.92384" lon="-0.58047">
        <ele>136</ele>
        <time>2016-03-27T07:09:40Z</time>
      </trkpt>
      <trkpt lat="46.9238" lon="-0.58061">
        <ele>138</ele>
        <time>2016-03-27T07:09:44Z</time>
      </trkpt>
      <trkpt lat="46.92374" lon="-0.58075">
        <ele>139</ele>
        <time>2016-03-27T07:09:48Z</time>
      </trkpt>
      <trkpt lat="46.92368" lon="-0.58088">
        <ele>140</ele>
        <time>2016-03-27T07:09:52Z</time>
      </trkpt>
      <trkpt lat="46.92362" lon="-0.58098">
        <ele>139</ele>
        <time>2016-03-27T07:09:56Z</time>
      </trkpt>
      <trkpt lat="46.92357" lon="-0.58107">
        <ele>141</ele>
        <time>2016-03-27T07:10:00Z</time>
      </trkpt>
      <trkpt lat="46.92351" lon="-0.58116">
        <ele>142</ele>
        <time>2016-03-27T07:10:04Z</time>
      </trkpt>
      <trkpt lat="46.92345" lon="-0.58124">
        <ele>140</ele>
        <time>2016-03-27T07:10:08Z</time>
      </trkpt>
      <trkpt lat="46.92336" lon="-0.58137">
        <ele>142</ele>
        <time>2016-03-27T07:10:13Z</time>
      </trkpt>
      <trkpt lat="46.92326" lon="-0.58154">
        <ele>139</ele>
        <time>2016-03-27T07:10:18Z</time>
      </trkpt>
      <trkpt lat="46.92319" lon="-0.58166">
        <ele>140</ele>
        <time>2016-03-27T07:10:22Z</time>
      </trkpt>
      <trkpt lat="46.9231" lon="-0.58177">
        <ele>142</ele>
        <time>2016-03-27T07:10:26Z</time>
      </trkpt>
      <trkpt lat="46.92302" lon="-0.58191">
        <ele>142</ele>
        <time>2016-03-27T07:10:30Z</time>
      </trkpt>
      <trkpt lat="46.92295" lon="-0.58203">
        <ele>143</ele>
        <time>2016-03-27T07:10:34Z</time>
      </trkpt>
      <trkpt lat="46.92289" lon="-0.58217">
        <ele>142</ele>
        <time>2016-03-27T07:10:38Z</time>
      </trkpt>
      <trkpt lat="46.92284" lon="-0.58231">
        <ele>144</ele>
        <time>2016-03-27T07:10:42Z</time>
      </trkpt>
      <trkpt lat="46.9228" lon="-0.58247">
        <ele>144</ele>
        <time>2016-03-27T07:10:46Z</time>
      </trkpt>
      <trkpt lat="46.92275" lon="-0.58264">
        <ele>144</ele>
        <time>2016-03-27T07:10:50Z</time>
      </trkpt>
      <trkpt lat="46.9227" lon="-0.5828">
        <ele>144</ele>
        <time>2016-03-27T07:10:54Z</time>
      </trkpt>
      <trkpt lat="46.92266" lon="-0.58296">
        <ele>144</ele>
        <time>2016-03-27T07:10:58Z</time>
      </trkpt>
      <trkpt lat="46.92262" lon="-0.58313">
        <ele>144</ele>
        <time>2016-03-27T07:11:02Z</time>
      </trkpt>
      <trkpt lat="46.92256" lon="-0.5833">
        <ele>145</ele>
        <time>2016-03-27T07:11:06Z</time>
      </trkpt>
      <trkpt lat="46.9225" lon="-0.58352">
        <ele>146</ele>
        <time>2016-03-27T07:11:11Z</time>
      </trkpt>
      <trkpt lat="46.92245" lon="-0.5837">
        <ele>145</ele>
        <time>2016-03-27T07:11:15Z</time>
      </trkpt>
      <trkpt lat="46.9224" lon="-0.58386">
        <ele>144</ele>
        <time>2016-03-27T07:11:19Z</time>
      </trkpt>
      <trkpt lat="46.92234" lon="-0.58402">
        <ele>144</ele>
        <time>2016-03-27T07:11:23Z</time>
      </trkpt>
      <trkpt lat="46.92226" lon="-0.5842">
        <ele>143</ele>
        <time>2016-03-27T07:11:28Z</time>
      </trkpt>
      <trkpt lat="46.92219" lon="-0.58431">
        <ele>143</ele>
        <time>2016-03-27T07:11:32Z</time>
      </trkpt>
      <trkpt lat="46.92211" lon="-0.58438">
        <ele>143</ele>
        <time>2016-03-27T07:11:36Z</time>
      </trkpt>
      <trkpt lat="46.92206" lon="-0.5845">
        <ele>144</ele>
        <time>2016-03-27T07:11:40Z</time>
      </trkpt>
      <trkpt lat="46.92199" lon="-0.58463">
        <ele>145</ele>
        <time>2016-03-27T07:11:44Z</time>
      </trkpt>
      <trkpt lat="46.9219" lon="-0.58452">
        <ele>145</ele>
        <time>2016-03-27T07:11:48Z</time>
      </trkpt>
      <trkpt lat="46.92179" lon="-0.58439">
        <ele>144</ele>
        <time>2016-03-27T07:11:52Z</time>
      </trkpt>
      <trkpt lat="46.92168" lon="-0.58427">
        <ele>144</ele>
        <time>2016-03-27T07:11:56Z</time>
      </trkpt>
      <trkpt lat="46.92157" lon="-0.58416">
        <ele>145</ele>
        <time>2016-03-27T07:12:00Z</time>
      </trkpt>
      <trkpt lat="46.92145" lon="-0.58405">
        <ele>146</ele>
        <time>2016-03-27T07:12:04Z</time>
      </trkpt>
      <trkpt lat="46.92133" lon="-0.58394">
        <ele>147</ele>
        <time>2016-03-27T07:12:08Z</time>
      </trkpt>
      <trkpt lat="46.92121" lon="-0.58384">
        <ele>148</ele>
        <time>2016-03-27T07:12:12Z</time>
      </trkpt>
      <trkpt lat="46.92109" lon="-0.58374">
        <ele>149</ele>
        <time>2016-03-27T07:12:16Z</time>
      </trkpt>
      <trkpt lat="46.92096" lon="-0.58363">
        <ele>150</ele>
        <time>2016-03-27T07:12:20Z</time>
      </trkpt>
      <trkpt lat="46.92083" lon="-0.58355">
        <ele>150</ele>
        <time>2016-03-27T07:12:24Z</time>
      </trkpt>
      <trkpt lat="46.9207" lon="-0.5835">
        <ele>151</ele>
        <time>2016-03-27T07:12:28Z</time>
      </trkpt>
      <trkpt lat="46.92058" lon="-0.58344">
        <ele>152</ele>
        <time>2016-03-27T07:12:32Z</time>
      </trkpt>
      <trkpt lat="46.92041" lon="-0.58338">
        <ele>152</ele>
        <time>2016-03-27T07:12:37Z</time>
      </trkpt>
      <trkpt lat="46.92032" lon="-0.58332">
        <ele>152</ele>
        <time>2016-03-27T07:12:40Z</time>
      </trkpt>
      <trkpt lat="46.92015" lon="-0.58325">
        <ele>152</ele>
        <time>2016-03-27T07:12:45Z</time>
      </trkpt>
      <trkpt lat="46.92002" lon="-0.58318">
        <ele>152</ele>
        <time>2016-03-27T07:12:49Z</time>
      </trkpt>
      <trkpt lat="46.91991" lon="-0.5831">
        <ele>153</ele>
        <time>2016-03-27T07:12:53Z</time>
      </trkpt>
      <trkpt lat="46.91979" lon="-0.58301">
        <ele>153</ele>
        <time>2016-03-27T07:12:57Z</time>
      </trkpt>
      <trkpt lat="46.91967" lon="-0.58291">
        <ele>153</ele>
        <time>2016-03-27T07:13:01Z</time>
      </trkpt>
      <trkpt lat="46.91955" lon="-0.58281">
        <ele>153</ele>
        <time>2016-03-27T07:13:05Z</time>
      </trkpt>
      <trkpt lat="46.91942" lon="-0.58271">
        <ele>153</ele>
        <time>2016-03-27T07:13:09Z</time>
      </trkpt>
      <trkpt lat="46.9193" lon="-0.58261">
        <ele>153</ele>
        <time>2016-03-27T07:13:13Z</time>
      </trkpt>
      <trkpt lat="46.91918" lon="-0.5825">
        <ele>152</ele>
        <time>2016-03-27T07:13:17Z</time>
      </trkpt>
      <trkpt lat="46.91905" lon="-0.58239">
        <ele>151</ele>
        <time>2016-03-27T07:13:21Z</time>
      </trkpt>
      <trkpt lat="46.91893" lon="-0.58228">
        <ele>152</ele>
        <time>2016-03-27T07:13:25Z</time>
      </trkpt>
      <trkpt lat="46.91883" lon="-0.5822">
        <ele>152</ele>
        <time>2016-03-27T07:13:28Z</time>
      </trkpt>
      <trkpt lat="46.9187" lon="-0.58208">
        <ele>152</ele>
        <time>2016-03-27T07:13:32Z</time>
      </trkpt>
      <trkpt lat="46.91857" lon="-0.58195">
        <ele>152</ele>
        <time>2016-03-27T07:13:36Z</time>
      </trkpt>
      <trkpt lat="46.91846" lon="-0.58182">
        <ele>154</ele>
        <time>2016-03-27T07:13:40Z</time>
      </trkpt>
      <trkpt lat="46.91832" lon="-0.58169">
        <ele>153</ele>
        <time>2016-03-27T07:13:44Z</time>
      </trkpt>
      <trkpt lat="46.91816" lon="-0.58157">
        <ele>155</ele>
        <time>2016-03-27T07:13:49Z</time>
      </trkpt>
      <trkpt lat="46.91803" lon="-0.58149">
        <ele>155</ele>
        <time>2016-03-27T07:13:53Z</time>
      </trkpt>
      <trkpt lat="46.9179" lon="-0.5814">
        <ele>155</ele>
        <time>2016-03-27T07:13:57Z</time>
      </trkpt>
      <trkpt lat="46.91776" lon="-0.58131">
        <ele>155</ele>
        <time>2016-03-27T07:14:01Z</time>
      </trkpt>
      <trkpt lat="46.91762" lon="-0.58125">
        <ele>155</ele>
        <time>2016-03-27T07:14:05Z</time>
      </trkpt>
      <trkpt lat="46.91748" lon="-0.5813">
        <ele>156</ele>
        <time>2016-03-27T07:14:09Z</time>
      </trkpt>
      <trkpt lat="46.91736" lon="-0.58137">
        <ele>157</ele>
        <time>2016-03-27T07:14:13Z</time>
      </trkpt>
      <trkpt lat="46.91724" lon="-0.58137">
        <ele>157</ele>
        <time>2016-03-27T07:14:17Z</time>
      </trkpt>
      <trkpt lat="46.9171" lon="-0.58135">
        <ele>157</ele>
        <time>2016-03-27T07:14:21Z</time>
      </trkpt>
      <trkpt lat="46.91697" lon="-0.58136">
        <ele>156</ele>
        <time>2016-03-27T07:14:25Z</time>
      </trkpt>
      <trkpt lat="46.91682" lon="-0.5814">
        <ele>157</ele>
        <time>2016-03-27T07:14:30Z</time>
      </trkpt>
      <trkpt lat="46.91669" lon="-0.58143">
        <ele>157</ele>
        <time>2016-03-27T07:14:34Z</time>
      </trkpt>
      <trkpt lat="46.91659" lon="-0.58143">
        <ele>159</ele>
        <time>2016-03-27T07:14:38Z</time>
      </trkpt>
      <trkpt lat="46.91649" lon="-0.58143">
        <ele>160</ele>
        <time>2016-03-27T07:14:42Z</time>
      </trkpt>
      <trkpt lat="46.91639" lon="-0.58144">
        <ele>161</ele>
        <time>2016-03-27T07:14:46Z</time>
      </trkpt>
      <trkpt lat="46.91628" lon="-0.58144">
        <ele>160</ele>
        <time>2016-03-27T07:14:50Z</time>
      </trkpt>
      <trkpt lat="46.91617" lon="-0.58144">
        <ele>161</ele>
        <time>2016-03-27T07:14:54Z</time>
      </trkpt>
      <trkpt lat="46.91603" lon="-0.58145">
        <ele>162</ele>
        <time>2016-03-27T07:14:59Z</time>
      </trkpt>
      <trkpt lat="46.91593" lon="-0.58146">
        <ele>162</ele>
        <time>2016-03-27T07:15:03Z</time>
      </trkpt>
      <trkpt lat="46.91582" lon="-0.58148">
        <ele>163</ele>
        <time>2016-03-27T07:15:07Z</time>
      </trkpt>
      <trkpt lat="46.91571" lon="-0.5815">
        <ele>163</ele>
        <time>2016-03-27T07:15:11Z</time>
      </trkpt>
      <trkpt lat="46.9156" lon="-0.58151">
        <ele>164</ele>
        <time>2016-03-27T07:15:15Z</time>
      </trkpt>
      <trkpt lat="46.91549" lon="-0.58151">
        <ele>164</ele>
        <time>2016-03-27T07:15:19Z</time>
      </trkpt>
      <trkpt lat="46.91535" lon="-0.58158">
        <ele>164</ele>
        <time>2016-03-27T07:15:24Z</time>
      </trkpt>
      <trkpt lat="46.91524" lon="-0.58167">
        <ele>164</ele>
        <time>2016-03-27T07:15:28Z</time>
      </trkpt>
      <trkpt lat="46.91513" lon="-0.58177">
        <ele>165</ele>
        <time>2016-03-27T07:15:32Z</time>
      </trkpt>
      <trkpt lat="46.91503" lon="-0.58186">
        <ele>165</ele>
        <time>2016-03-27T07:15:36Z</time>
      </trkpt>
      <trkpt lat="46.91493" lon="-0.58193">
        <ele>165</ele>
        <time>2016-03-27T07:15:40Z</time>
      </trkpt>
      <trkpt lat="46.91484" lon="-0.582">
        <ele>165</ele>
        <time>2016-03-27T07:15:44Z</time>
      </trkpt>
      <trkpt lat="46.91478" lon="-0.58206">
        <ele>165</ele>
        <time>2016-03-27T07:15:48Z</time>
      </trkpt>
      <trkpt lat="46.91469" lon="-0.58212">
        <ele>165</ele>
        <time>2016-03-27T07:15:52Z</time>
      </trkpt>
      <trkpt lat="46.91459" lon="-0.58218">
        <ele>166</ele>
        <time>2016-03-27T07:15:56Z</time>
      </trkpt>
      <trkpt lat="46.9145" lon="-0.58223">
        <ele>167</ele>
        <time>2016-03-27T07:16:00Z</time>
      </trkpt>
      <trkpt lat="46.91441" lon="-0.58228">
        <ele>167</ele>
        <time>2016-03-27T07:16:04Z</time>
      </trkpt>
      <trkpt lat="46.91434" lon="-0.58233">
        <ele>167</ele>
        <time>2016-03-27T07:16:08Z</time>
      </trkpt>
      <trkpt lat="46.91426" lon="-0.58237">
        <ele>167</ele>
        <time>2016-03-27T07:16:12Z</time>
      </trkpt>
      <trkpt lat="46.91416" lon="-0.58242">
        <ele>167</ele>
        <time>2016-03-27T07:16:17Z</time>
      </trkpt>
      <trkpt lat="46.91405" lon="-0.58247">
        <ele>168</ele>
        <time>2016-03-27T07:16:22Z</time>
      </trkpt>
      <trkpt lat="46.91398" lon="-0.5825">
        <ele>167</ele>
        <time>2016-03-27T07:16:25Z</time>
      </trkpt>
      <trkpt lat="46.91388" lon="-0.58255">
        <ele>168</ele>
        <time>2016-03-27T07:16:30Z</time>
      </trkpt>
      <trkpt lat="46.91381" lon="-0.58256">
        <ele>168</ele>
        <time>2016-03-27T07:16:33Z</time>
      </trkpt>
      <trkpt lat="46.91374" lon="-0.5826">
        <ele>168</ele>
        <time>2016-03-27T07:16:37Z</time>
      </trkpt>
      <trkpt lat="46.91365" lon="-0.58265">
        <ele>170</ele>
        <time>2016-03-27T07:16:42Z</time>
      </trkpt>
      <trkpt lat="46.91358" lon="-0.58267">
        <ele>170</ele>
        <time>2016-03-27T07:16:46Z</time>
      </trkpt>
      <trkpt lat="46.9135" lon="-0.58269">
        <ele>171</ele>
        <time>2016-03-27T07:16:50Z</time>
      </trkpt>
      <trkpt lat="46.91342" lon="-0.58271">
        <ele>171</ele>
        <time>2016-03-27T07:16:54Z</time>
      </trkpt>
      <trkpt lat="46.91334" lon="-0.58273">
        <ele>172</ele>
        <time>2016-03-27T07:16:58Z</time>
      </trkpt>
      <trkpt lat="46.91324" lon="-0.58274">
        <ele>172</ele>
        <time>2016-03-27T07:17:02Z</time>
      </trkpt>
      <trkpt lat="46.91316" lon="-0.58278">
        <ele>170</ele>
        <time>2016-03-27T07:17:06Z</time>
      </trkpt>
      <trkpt lat="46.91307" lon="-0.5828">
        <ele>170</ele>
        <time>2016-03-27T07:17:10Z</time>
      </trkpt>
      <trkpt lat="46.91297" lon="-0.58283">
        <ele>171</ele>
        <time>2016-03-27T07:17:14Z</time>
      </trkpt>
      <trkpt lat="46.91288" lon="-0.58285">
        <ele>170</ele>
        <time>2016-03-27T07:17:18Z</time>
      </trkpt>
      <trkpt lat="46.91278" lon="-0.58287">
        <ele>171</ele>
        <time>2016-03-27T07:17:23Z</time>
      </trkpt>
      <trkpt lat="46.91269" lon="-0.58287">
        <ele>172</ele>
        <time>2016-03-27T07:17:27Z</time>
      </trkpt>
      <trkpt lat="46.91262" lon="-0.58285">
        <ele>171</ele>
        <time>2016-03-27T07:17:31Z</time>
      </trkpt>
      <trkpt lat="46.91256" lon="-0.5828">
        <ele>171</ele>
        <time>2016-03-27T07:17:35Z</time>
      </trkpt>
      <trkpt lat="46.91248" lon="-0.58276">
        <ele>171</ele>
        <time>2016-03-27T07:17:39Z</time>
      </trkpt>
      <trkpt lat="46.91239" lon="-0.58272">
        <ele>172</ele>
        <time>2016-03-27T07:17:43Z</time>
      </trkpt>
      <trkpt lat="46.91231" lon="-0.58267">
        <ele>173</ele>
        <time>2016-03-27T07:17:47Z</time>
      </trkpt>
      <trkpt lat="46.91223" lon="-0.58264">
        <ele>174</ele>
        <time>2016-03-27T07:17:51Z</time>
      </trkpt>
      <trkpt lat="46.91215" lon="-0.5826">
        <ele>173</ele>
        <time>2016-03-27T07:17:55Z</time>
      </trkpt>
      <trkpt lat="46.91207" lon="-0.58254">
        <ele>175</ele>
        <time>2016-03-27T07:17:59Z</time>
      </trkpt>
      <trkpt lat="46.91199" lon="-0.58247">
        <ele>174</ele>
        <time>2016-03-27T07:18:03Z</time>
      </trkpt>
      <trkpt lat="46.9119" lon="-0.58239">
        <ele>177</ele>
        <time>2016-03-27T07:18:07Z</time>
      </trkpt>
      <trkpt lat="46.91181" lon="-0.58233">
        <ele>177</ele>
        <time>2016-03-27T07:18:11Z</time>
      </trkpt>
      <trkpt lat="46.91172" lon="-0.58222">
        <ele>178</ele>
        <time>2016-03-27T07:18:15Z</time>
      </trkpt>
      <trkpt lat="46.91162" lon="-0.5821">
        <ele>178</ele>
        <time>2016-03-27T07:18:20Z</time>
      </trkpt>
      <trkpt lat="46.91155" lon="-0.58201">
        <ele>179</ele>
        <time>2016-03-27T07:18:24Z</time>
      </trkpt>
      <trkpt lat="46.91148" lon="-0.58191">
        <ele>179</ele>
        <time>2016-03-27T07:18:28Z</time>
      </trkpt>
      <trkpt lat="46.91139" lon="-0.58181">
        <ele>179</ele>
        <time>2016-03-27T07:18:33Z</time>
      </trkpt>
      <trkpt lat="46.9113" lon="-0.58172">
        <ele>179</ele>
        <time>2016-03-27T07:18:37Z</time>
      </trkpt>
      <trkpt lat="46.9112" lon="-0.58163">
        <ele>178</ele>
        <time>2016-03-27T07:18:41Z</time>
      </trkpt>
      <trkpt lat="46.91112" lon="-0.58148">
        <ele>180</ele>
        <time>2016-03-27T07:18:45Z</time>
      </trkpt>
      <trkpt lat="46.91101" lon="-0.58137">
        <ele>181</ele>
        <time>2016-03-27T07:18:49Z</time>
      </trkpt>
      <trkpt lat="46.91091" lon="-0.58127">
        <ele>180</ele>
        <time>2016-03-27T07:18:53Z</time>
      </trkpt>
      <trkpt lat="46.91077" lon="-0.58114">
        <ele>180</ele>
        <time>2016-03-27T07:18:57Z</time>
      </trkpt>
      <trkpt lat="46.91064" lon="-0.58098">
        <ele>179</ele>
        <time>2016-03-27T07:19:01Z</time>
      </trkpt>
      <trkpt lat="46.91048" lon="-0.58084">
        <ele>178</ele>
        <time>2016-03-27T07:19:05Z</time>
      </trkpt>
      <trkpt lat="46.91031" lon="-0.58069">
        <ele>179</ele>
        <time>2016-03-27T07:19:09Z</time>
      </trkpt>
      <trkpt lat="46.91012" lon="-0.58059">
        <ele>178</ele>
        <time>2016-03-27T07:19:13Z</time>
      </trkpt>
      <trkpt lat="46.90992" lon="-0.58052">
        <ele>175</ele>
        <time>2016-03-27T07:19:17Z</time>
      </trkpt>
      <trkpt lat="46.90972" lon="-0.58048">
        <ele>172</ele>
        <time>2016-03-27T07:19:21Z</time>
      </trkpt>
      <trkpt lat="46.90957" lon="-0.5806">
        <ele>173</ele>
        <time>2016-03-27T07:19:25Z</time>
      </trkpt>
      <trkpt lat="46.90945" lon="-0.58083">
        <ele>172</ele>
        <time>2016-03-27T07:19:29Z</time>
      </trkpt>
      <trkpt lat="46.90933" lon="-0.58106">
        <ele>172</ele>
        <time>2016-03-27T07:19:33Z</time>
      </trkpt>
      <trkpt lat="46.90919" lon="-0.5813">
        <ele>170</ele>
        <time>2016-03-27T07:19:37Z</time>
      </trkpt>
      <trkpt lat="46.90906" lon="-0.58163">
        <ele>168</ele>
        <time>2016-03-27T07:19:41Z</time>
      </trkpt>
      <trkpt lat="46.90891" lon="-0.58214">
        <ele>165</ele>
        <time>2016-03-27T07:19:46Z</time>
      </trkpt>
      <trkpt lat="46.90878" lon="-0.58247">
        <ele>165</ele>
        <time>2016-03-27T07:19:50Z</time>
      </trkpt>
      <trkpt lat="46.90863" lon="-0.58287">
        <ele>165</ele>
        <time>2016-03-27T07:19:55Z</time>
      </trkpt>
      <trkpt lat="46.90856" lon="-0.58317">
        <ele>164</ele>
        <time>2016-03-27T07:19:59Z</time>
      </trkpt>
      <trkpt lat="46.90847" lon="-0.5835">
        <ele>165</ele>
        <time>2016-03-27T07:20:03Z</time>
      </trkpt>
      <trkpt lat="46.90838" lon="-0.5838">
        <ele>167</ele>
        <time>2016-03-27T07:20:07Z</time>
      </trkpt>
      <trkpt lat="46.90827" lon="-0.58407">
        <ele>169</ele>
        <time>2016-03-27T07:20:11Z</time>
      </trkpt>
      <trkpt lat="46.90811" lon="-0.58436">
        <ele>168</ele>
        <time>2016-03-27T07:20:16Z</time>
      </trkpt>
      <trkpt lat="46.908" lon="-0.58455">
        <ele>167</ele>
        <time>2016-03-27T07:20:20Z</time>
      </trkpt>
      <trkpt lat="46.90789" lon="-0.58474">
        <ele>168</ele>
        <time>2016-03-27T07:20:24Z</time>
      </trkpt>
      <trkpt lat="46.9078" lon="-0.58491">
        <ele>167</ele>
        <time>2016-03-27T07:20:28Z</time>
      </trkpt>
      <trkpt lat="46.90772" lon="-0.58507">
        <ele>169</ele>
        <time>2016-03-27T07:20:32Z</time>
      </trkpt>
      <trkpt lat="46.90764" lon="-0.5852">
        <ele>170</ele>
        <time>2016-03-27T07:20:36Z</time>
      </trkpt>
      <trkpt lat="46.90756" lon="-0.58533">
        <ele>171</ele>
        <time>2016-03-27T07:20:40Z</time>
      </trkpt>
      <trkpt lat="46.90748" lon="-0.58546">
        <ele>172</ele>
        <time>2016-03-27T07:20:44Z</time>
      </trkpt>
      <trkpt lat="46.90742" lon="-0.58559">
        <ele>173</ele>
        <time>2016-03-27T07:20:48Z</time>
      </trkpt>
      <trkpt lat="46.90734" lon="-0.58572">
        <ele>173</ele>
        <time>2016-03-27T07:20:52Z</time>
      </trkpt>
      <trkpt lat="46.90729" lon="-0.58584">
        <ele>173</ele>
        <time>2016-03-27T07:20:56Z</time>
      </trkpt>
      <trkpt lat="46.90726" lon="-0.58598">
        <ele>174</ele>
        <time>2016-03-27T07:21:00Z</time>
      </trkpt>
      <trkpt lat="46.90722" lon="-0.58611">
        <ele>176</ele>
        <time>2016-03-27T07:21:04Z</time>
      </trkpt>
      <trkpt lat="46.90717" lon="-0.58624">
        <ele>176</ele>
        <time>2016-03-27T07:21:08Z</time>
      </trkpt>
      <trkpt lat="46.90712" lon="-0.58639">
        <ele>175</ele>
        <time>2016-03-27T07:21:12Z</time>
      </trkpt>
      <trkpt lat="46.90706" lon="-0.58652">
        <ele>175</ele>
        <time>2016-03-27T07:21:16Z</time>
      </trkpt>
      <trkpt lat="46.90699" lon="-0.58669">
        <ele>174</ele>
        <time>2016-03-27T07:21:21Z</time>
      </trkpt>
      <trkpt lat="46.90691" lon="-0.58684">
        <ele>174</ele>
        <time>2016-03-27T07:21:25Z</time>
      </trkpt>
      <trkpt lat="46.90682" lon="-0.58697">
        <ele>173</ele>
        <time>2016-03-27T07:21:29Z</time>
      </trkpt>
      <trkpt lat="46.90673" lon="-0.5871">
        <ele>173</ele>
        <time>2016-03-27T07:21:33Z</time>
      </trkpt>
      <trkpt lat="46.9066" lon="-0.58724">
        <ele>173</ele>
        <time>2016-03-27T07:21:37Z</time>
      </trkpt>
      <trkpt lat="46.90648" lon="-0.58741">
        <ele>171</ele>
        <time>2016-03-27T07:21:41Z</time>
      </trkpt>
      <trkpt lat="46.90634" lon="-0.58757">
        <ele>171</ele>
        <time>2016-03-27T07:21:45Z</time>
      </trkpt>
      <trkpt lat="46.9062" lon="-0.58771">
        <ele>172</ele>
        <time>2016-03-27T07:21:49Z</time>
      </trkpt>
      <trkpt lat="46.90604" lon="-0.58786">
        <ele>172</ele>
        <time>2016-03-27T07:21:53Z</time>
      </trkpt>
      <trkpt lat="46.9059" lon="-0.58801">
        <ele>171</ele>
        <time>2016-03-27T07:21:57Z</time>
      </trkpt>
      <trkpt lat="46.90578" lon="-0.58818">
        <ele>172</ele>
        <time>2016-03-27T07:22:01Z</time>
      </trkpt>
      <trkpt lat="46.90564" lon="-0.58835">
        <ele>171</ele>
        <time>2016-03-27T07:22:05Z</time>
      </trkpt>
      <trkpt lat="46.90545" lon="-0.58855">
        <ele>168</ele>
        <time>2016-03-27T07:22:10Z</time>
      </trkpt>
      <trkpt lat="46.90529" lon="-0.58874">
        <ele>168</ele>
        <time>2016-03-27T07:22:14Z</time>
      </trkpt>
      <trkpt lat="46.90513" lon="-0.58889">
        <ele>168</ele>
        <time>2016-03-27T07:22:18Z</time>
      </trkpt>
      <trkpt lat="46.90498" lon="-0.58906">
        <ele>169</ele>
        <time>2016-03-27T07:22:22Z</time>
      </trkpt>
      <trkpt lat="46.90483" lon="-0.5892">
        <ele>169</ele>
        <time>2016-03-27T07:22:26Z</time>
      </trkpt>
      <trkpt lat="46.90468" lon="-0.58935">
        <ele>168</ele>
        <time>2016-03-27T07:22:30Z</time>
      </trkpt>
      <trkpt lat="46.90453" lon="-0.58949">
        <ele>166</ele>
        <time>2016-03-27T07:22:34Z</time>
      </trkpt>
      <trkpt lat="46.90442" lon="-0.5897">
        <ele>165</ele>
        <time>2016-03-27T07:22:38Z</time>
      </trkpt>
      <trkpt lat="46.90432" lon="-0.58991">
        <ele>166</ele>
        <time>2016-03-27T07:22:42Z</time>
      </trkpt>
      <trkpt lat="46.90425" lon="-0.59017">
        <ele>165</ele>
        <time>2016-03-27T07:22:46Z</time>
      </trkpt>
      <trkpt lat="46.90415" lon="-0.59042">
        <ele>167</ele>
        <time>2016-03-27T07:22:51Z</time>
      </trkpt>
      <trkpt lat="46.90407" lon="-0.59064">
        <ele>168</ele>
        <time>2016-03-27T07:22:55Z</time>
      </trkpt>
      <trkpt lat="46.904" lon="-0.59083">
        <ele>168</ele>
        <time>2016-03-27T07:22:59Z</time>
      </trkpt>
      <trkpt lat="46.9039" lon="-0.59102">
        <ele>168</ele>
        <time>2016-03-27T07:23:03Z</time>
      </trkpt>
      <trkpt lat="46.90383" lon="-0.59121">
        <ele>168</ele>
        <time>2016-03-27T07:23:07Z</time>
      </trkpt>
      <trkpt lat="46.90375" lon="-0.59136">
        <ele>169</ele>
        <time>2016-03-27T07:23:11Z</time>
      </trkpt>
      <trkpt lat="46.90382" lon="-0.59153">
        <ele>169</ele>
        <time>2016-03-27T07:23:15Z</time>
      </trkpt>
      <trkpt lat="46.90395" lon="-0.59172">
        <ele>171</ele>
        <time>2016-03-27T07:23:20Z</time>
      </trkpt>
      <trkpt lat="46.90404" lon="-0.59186">
        <ele>172</ele>
        <time>2016-03-27T07:23:24Z</time>
      </trkpt>
      <trkpt lat="46.90412" lon="-0.59198">
        <ele>173</ele>
        <time>2016-03-27T07:23:28Z</time>
      </trkpt>
      <trkpt lat="46.90417" lon="-0.5921">
        <ele>173</ele>
        <time>2016-03-27T07:23:32Z</time>
      </trkpt>
      <trkpt lat="46.90422" lon="-0.59218">
        <ele>174</ele>
        <time>2016-03-27T07:23:37Z</time>
      </trkpt>
      <trkpt lat="46.90432" lon="-0.59223">
        <ele>173</ele>
        <time>2016-03-27T07:23:41Z</time>
      </trkpt>
      <trkpt lat="46.90446" lon="-0.59221">
        <ele>174</ele>
        <time>2016-03-27T07:23:45Z</time>
      </trkpt>
      <trkpt lat="46.90463" lon="-0.59212">
        <ele>173</ele>
        <time>2016-03-27T07:23:49Z</time>
      </trkpt>
      <trkpt lat="46.90484" lon="-0.59203">
        <ele>174</ele>
        <time>2016-03-27T07:23:53Z</time>
      </trkpt>
      <trkpt lat="46.90507" lon="-0.59193">
        <ele>173</ele>
        <time>2016-03-27T07:23:57Z</time>
      </trkpt>
      <trkpt lat="46.9053" lon="-0.59181">
        <ele>173</ele>
        <time>2016-03-27T07:24:01Z</time>
      </trkpt>
      <trkpt lat="46.90551" lon="-0.5917">
        <ele>173</ele>
        <time>2016-03-27T07:24:05Z</time>
      </trkpt>
      <trkpt lat="46.90578" lon="-0.59159">
        <ele>173</ele>
        <time>2016-03-27T07:24:10Z</time>
      </trkpt>
      <trkpt lat="46.906" lon="-0.5915">
        <ele>174</ele>
        <time>2016-03-27T07:24:14Z</time>
      </trkpt>
      <trkpt lat="46.90622" lon="-0.59141">
        <ele>175</ele>
        <time>2016-03-27T07:24:18Z</time>
      </trkpt>
      <trkpt lat="46.90645" lon="-0.59134">
        <ele>175</ele>
        <time>2016-03-27T07:24:22Z</time>
      </trkpt>
      <trkpt lat="46.90666" lon="-0.59122">
        <ele>177</ele>
        <time>2016-03-27T07:24:26Z</time>
      </trkpt>
      <trkpt lat="46.90686" lon="-0.5911">
        <ele>177</ele>
        <time>2016-03-27T07:24:30Z</time>
      </trkpt>
      <trkpt lat="46.90715" lon="-0.59097">
        <ele>177</ele>
        <time>2016-03-27T07:24:35Z</time>
      </trkpt>
      <trkpt lat="46.90736" lon="-0.59087">
        <ele>177</ele>
        <time>2016-03-27T07:24:39Z</time>
      </trkpt>
      <trkpt lat="46.90759" lon="-0.59077">
        <ele>177</ele>
        <time>2016-03-27T07:24:43Z</time>
      </trkpt>
      <trkpt lat="46.90781" lon="-0.59066">
        <ele>176</ele>
        <time>2016-03-27T07:24:47Z</time>
      </trkpt>
      <trkpt lat="46.90804" lon="-0.59054">
        <ele>175</ele>
        <time>2016-03-27T07:24:51Z</time>
      </trkpt>
      <trkpt lat="46.90826" lon="-0.59044">
        <ele>175</ele>
        <time>2016-03-27T07:24:55Z</time>
      </trkpt>
      <trkpt lat="46.90847" lon="-0.59033">
        <ele>175</ele>
        <time>2016-03-27T07:24:59Z</time>
      </trkpt>
      <trkpt lat="46.90869" lon="-0.59024">
        <ele>177</ele>
        <time>2016-03-27T07:25:03Z</time>
      </trkpt>
      <trkpt lat="46.90892" lon="-0.59018">
        <ele>177</ele>
        <time>2016-03-27T07:25:07Z</time>
      </trkpt>
      <trkpt lat="46.90913" lon="-0.59013">
        <ele>178</ele>
        <time>2016-03-27T07:25:11Z</time>
      </trkpt>
      <trkpt lat="46.90932" lon="-0.5901">
        <ele>178</ele>
        <time>2016-03-27T07:25:15Z</time>
      </trkpt>
      <trkpt lat="46.90949" lon="-0.59012">
        <ele>179</ele>
        <time>2016-03-27T07:25:19Z</time>
      </trkpt>
      <trkpt lat="46.90949" lon="-0.59029">
        <ele>178</ele>
        <time>2016-03-27T07:25:23Z</time>
      </trkpt>
      <trkpt lat="46.90939" lon="-0.59042">
        <ele>177</ele>
        <time>2016-03-27T07:25:27Z</time>
      </trkpt>
      <trkpt lat="46.90932" lon="-0.59057">
        <ele>174</ele>
        <time>2016-03-27T07:25:31Z</time>
      </trkpt>
      <trkpt lat="46.90925" lon="-0.59073">
        <ele>176</ele>
        <time>2016-03-27T07:25:35Z</time>
      </trkpt>
      <trkpt lat="46.90915" lon="-0.59087">
        <ele>175</ele>
        <time>2016-03-27T07:25:39Z</time>
      </trkpt>
      <trkpt lat="46.90896" lon="-0.59119">
        <ele>173</ele>
        <time>2016-03-27T07:25:44Z</time>
      </trkpt>
      <trkpt lat="46.90881" lon="-0.59147">
        <ele>173</ele>
        <time>2016-03-27T07:25:48Z</time>
      </trkpt>
      <trkpt lat="46.90864" lon="-0.59183">
        <ele>172</ele>
        <time>2016-03-27T07:25:53Z</time>
      </trkpt>
      <trkpt lat="46.9085" lon="-0.59209">
        <ele>171</ele>
        <time>2016-03-27T07:25:57Z</time>
      </trkpt>
      <trkpt lat="46.90831" lon="-0.59228">
        <ele>168</ele>
        <time>2016-03-27T07:26:01Z</time>
      </trkpt>
      <trkpt lat="46.90804" lon="-0.59235">
        <ele>168</ele>
        <time>2016-03-27T07:26:05Z</time>
      </trkpt>
      <trkpt lat="46.90772" lon="-0.59254">
        <ele>167</ele>
        <time>2016-03-27T07:26:10Z</time>
      </trkpt>
      <trkpt lat="46.90749" lon="-0.59267">
        <ele>167</ele>
        <time>2016-03-27T07:26:14Z</time>
      </trkpt>
      <trkpt lat="46.90732" lon="-0.59288">
        <ele>167</ele>
        <time>2016-03-27T07:26:18Z</time>
      </trkpt>
      <trkpt lat="46.9071" lon="-0.59315">
        <ele>168</ele>
        <time>2016-03-27T07:26:23Z</time>
      </trkpt>
      <trkpt lat="46.90694" lon="-0.59339">
        <ele>167</ele>
        <time>2016-03-27T07:26:27Z</time>
      </trkpt>
      <trkpt lat="46.90684" lon="-0.59366">
        <ele>166</ele>
        <time>2016-03-27T07:26:31Z</time>
      </trkpt>
      <trkpt lat="46.90675" lon="-0.59394">
        <ele>166</ele>
        <time>2016-03-27T07:26:35Z</time>
      </trkpt>
      <trkpt lat="46.90667" lon="-0.59424">
        <ele>166</ele>
        <time>2016-03-27T07:26:39Z</time>
      </trkpt>
      <trkpt lat="46.90667" lon="-0.59468">
        <ele>164</ele>
        <time>2016-03-27T07:26:44Z</time>
      </trkpt>
      <trkpt lat="46.90664" lon="-0.59505">
        <ele>166</ele>
        <time>2016-03-27T07:26:48Z</time>
      </trkpt>
      <trkpt lat="46.90653" lon="-0.59544">
        <ele>167</ele>
        <time>2016-03-27T07:26:53Z</time>
      </trkpt>
      <trkpt lat="46.9064" lon="-0.59568">
        <ele>168</ele>
        <time>2016-03-27T07:26:57Z</time>
      </trkpt>
      <trkpt lat="46.90629" lon="-0.59587">
        <ele>169</ele>
        <time>2016-03-27T07:27:01Z</time>
      </trkpt>
      <trkpt lat="46.90623" lon="-0.5961">
        <ele>170</ele>
        <time>2016-03-27T07:27:05Z</time>
      </trkpt>
      <trkpt lat="46.90621" lon="-0.59633">
        <ele>168</ele>
        <time>2016-03-27T07:27:09Z</time>
      </trkpt>
      <trkpt lat="46.90614" lon="-0.59656">
        <ele>167</ele>
        <time>2016-03-27T07:27:13Z</time>
      </trkpt>
      <trkpt lat="46.90608" lon="-0.59676">
        <ele>167</ele>
        <time>2016-03-27T07:27:17Z</time>
      </trkpt>
      <trkpt lat="46.90603" lon="-0.59697">
        <ele>168</ele>
        <time>2016-03-27T07:27:21Z</time>
      </trkpt>
      <trkpt lat="46.90598" lon="-0.59717">
        <ele>169</ele>
        <time>2016-03-27T07:27:25Z</time>
      </trkpt>
      <trkpt lat="46.90596" lon="-0.59729">
        <ele>170</ele>
        <time>2016-03-27T07:27:29Z</time>
      </trkpt>
      <trkpt lat="46.90603" lon="-0.59745">
        <ele>169</ele>
        <time>2016-03-27T07:27:33Z</time>
      </trkpt>
      <trkpt lat="46.90612" lon="-0.59762">
        <ele>166</ele>
        <time>2016-03-27T07:27:37Z</time>
      </trkpt>
      <trkpt lat="46.90627" lon="-0.59783">
        <ele>165</ele>
        <time>2016-03-27T07:27:41Z</time>
      </trkpt>
      <trkpt lat="46.90643" lon="-0.59803">
        <ele>164</ele>
        <time>2016-03-27T07:27:45Z</time>
      </trkpt>
      <trkpt lat="46.90662" lon="-0.59825">
        <ele>162</ele>
        <time>2016-03-27T07:27:49Z</time>
      </trkpt>
      <trkpt lat="46.90681" lon="-0.59846">
        <ele>161</ele>
        <time>2016-03-27T07:27:53Z</time>
      </trkpt>
      <trkpt lat="46.90698" lon="-0.59864">
        <ele>158</ele>
        <time>2016-03-27T07:27:57Z</time>
      </trkpt>
      <trkpt lat="46.90717" lon="-0.5989">
        <ele>157</ele>
        <time>2016-03-27T07:28:02Z</time>
      </trkpt>
      <trkpt lat="46.90735" lon="-0.59916">
        <ele>157</ele>
        <time>2016-03-27T07:28:06Z</time>
      </trkpt>
      <trkpt lat="46.90755" lon="-0.59943">
        <ele>154</ele>
        <time>2016-03-27T07:28:10Z</time>
      </trkpt>
      <trkpt lat="46.90779" lon="-0.59974">
        <ele>152</ele>
        <time>2016-03-27T07:28:14Z</time>
      </trkpt>
      <trkpt lat="46.90803" lon="-0.60006">
        <ele>151</ele>
        <time>2016-03-27T07:28:18Z</time>
      </trkpt>
      <trkpt lat="46.9082" lon="-0.60037">
        <ele>149</ele>
        <time>2016-03-27T07:28:21Z</time>
      </trkpt>
      <trkpt lat="46.90844" lon="-0.60084">
        <ele>145</ele>
        <time>2016-03-27T07:28:25Z</time>
      </trkpt>
      <trkpt lat="46.90859" lon="-0.60138">
        <ele>145</ele>
        <time>2016-03-27T07:28:29Z</time>
      </trkpt>
      <trkpt lat="46.90866" lon="-0.60172">
        <ele>148</ele>
        <time>2016-03-27T07:28:33Z</time>
      </trkpt>
      <trkpt lat="46.9087" lon="-0.60196">
        <ele>149</ele>
        <time>2016-03-27T07:28:37Z</time>
      </trkpt>
      <trkpt lat="46.90874" lon="-0.60219">
        <ele>150</ele>
        <time>2016-03-27T07:28:41Z</time>
      </trkpt>
      <trkpt lat="46.90878" lon="-0.60241">
        <ele>151</ele>
        <time>2016-03-27T07:28:45Z</time>
      </trkpt>
      <trkpt lat="46.90882" lon="-0.6026">
        <ele>148</ele>
        <time>2016-03-27T07:28:49Z</time>
      </trkpt>
      <trkpt lat="46.90886" lon="-0.60279">
        <ele>150</ele>
        <time>2016-03-27T07:28:53Z</time>
      </trkpt>
      <trkpt lat="46.9089" lon="-0.60297">
        <ele>152</ele>
        <time>2016-03-27T07:28:57Z</time>
      </trkpt>
      <trkpt lat="46.90891" lon="-0.60315">
        <ele>155</ele>
        <time>2016-03-27T07:29:01Z</time>
      </trkpt>
      <trkpt lat="46.90892" lon="-0.6033">
        <ele>156</ele>
        <time>2016-03-27T07:29:05Z</time>
      </trkpt>
      <trkpt lat="46.90893" lon="-0.60345">
        <ele>156</ele>
        <time>2016-03-27T07:29:09Z</time>
      </trkpt>
      <trkpt lat="46.90894" lon="-0.60361">
        <ele>156</ele>
        <time>2016-03-27T07:29:13Z</time>
      </trkpt>
      <trkpt lat="46.90895" lon="-0.6038">
        <ele>154</ele>
        <time>2016-03-27T07:29:17Z</time>
      </trkpt>
      <trkpt lat="46.90898" lon="-0.60399">
        <ele>157</ele>
        <time>2016-03-27T07:29:22Z</time>
      </trkpt>
      <trkpt lat="46.90902" lon="-0.60416">
        <ele>155</ele>
        <time>2016-03-27T07:29:27Z</time>
      </trkpt>
      <trkpt lat="46.90911" lon="-0.6042">
        <ele>154</ele>
        <time>2016-03-27T07:29:30Z</time>
      </trkpt>
      <trkpt lat="46.90923" lon="-0.60423">
        <ele>152</ele>
        <time>2016-03-27T07:29:34Z</time>
      </trkpt>
      <trkpt lat="46.90936" lon="-0.60426">
        <ele>150</ele>
        <time>2016-03-27T07:29:38Z</time>
      </trkpt>
      <trkpt lat="46.90949" lon="-0.60428">
        <ele>149</ele>
        <time>2016-03-27T07:29:42Z</time>
      </trkpt>
      <trkpt lat="46.90967" lon="-0.6043">
        <ele>148</ele>
        <time>2016-03-27T07:29:47Z</time>
      </trkpt>
      <trkpt lat="46.90984" lon="-0.60435">
        <ele>147</ele>
        <time>2016-03-27T07:29:51Z</time>
      </trkpt>
      <trkpt lat="46.91004" lon="-0.6044">
        <ele>147</ele>
        <time>2016-03-27T07:29:55Z</time>
      </trkpt>
      <trkpt lat="46.91028" lon="-0.6044">
        <ele>146</ele>
        <time>2016-03-27T07:29:59Z</time>
      </trkpt>
      <trkpt lat="46.91066" lon="-0.60444">
        <ele>141</ele>
        <time>2016-03-27T07:30:04Z</time>
      </trkpt>
      <trkpt lat="46.91093" lon="-0.60481">
        <ele>141</ele>
        <time>2016-03-27T07:30:08Z</time>
      </trkpt>
      <trkpt lat="46.91102" lon="-0.60538">
        <ele>145</ele>
        <time>2016-03-27T07:30:13Z</time>
      </trkpt>
      <trkpt lat="46.91106" lon="-0.60569">
        <ele>146</ele>
        <time>2016-03-27T07:30:17Z</time>
      </trkpt>
      <trkpt lat="46.91112" lon="-0.60596">
        <ele>147</ele>
        <time>2016-03-27T07:30:21Z</time>
      </trkpt>
      <trkpt lat="46.9112" lon="-0.60622">
        <ele>147</ele>
        <time>2016-03-27T07:30:25Z</time>
      </trkpt>
      <trkpt lat="46.91129" lon="-0.60657">
        <ele>148</ele>
        <time>2016-03-27T07:30:30Z</time>
      </trkpt>
      <trkpt lat="46.91136" lon="-0.60687">
        <ele>148</ele>
        <time>2016-03-27T07:30:34Z</time>
      </trkpt>
      <trkpt lat="46.91145" lon="-0.6071">
        <ele>146</ele>
        <time>2016-03-27T07:30:38Z</time>
      </trkpt>
      <trkpt lat="46.91154" lon="-0.60733">
        <ele>147</ele>
        <time>2016-03-27T07:30:42Z</time>
      </trkpt>
      <trkpt lat="46.91165" lon="-0.60752">
        <ele>147</ele>
        <time>2016-03-27T07:30:46Z</time>
      </trkpt>
      <trkpt lat="46.91175" lon="-0.60771">
        <ele>148</ele>
        <time>2016-03-27T07:30:50Z</time>
      </trkpt>
      <trkpt lat="46.91184" lon="-0.60791">
        <ele>148</ele>
        <time>2016-03-27T07:30:54Z</time>
      </trkpt>
      <trkpt lat="46.91197" lon="-0.60814">
        <ele>147</ele>
        <time>2016-03-27T07:30:58Z</time>
      </trkpt>
      <trkpt lat="46.91216" lon="-0.60846">
        <ele>146</ele>
        <time>2016-03-27T07:31:02Z</time>
      </trkpt>
      <trkpt lat="46.91242" lon="-0.60882">
        <ele>142</ele>
        <time>2016-03-27T07:31:06Z</time>
      </trkpt>
      <trkpt lat="46.91272" lon="-0.60924">
        <ele>139</ele>
        <time>2016-03-27T07:31:10Z</time>
      </trkpt>
      <trkpt lat="46.91307" lon="-0.60966">
        <ele>135</ele>
        <time>2016-03-27T07:31:14Z</time>
      </trkpt>
      <trkpt lat="46.91342" lon="-0.61014">
        <ele>129</ele>
        <time>2016-03-27T07:31:18Z</time>
      </trkpt>
      <trkpt lat="46.91379" lon="-0.61062">
        <ele>128</ele>
        <time>2016-03-27T07:31:22Z</time>
      </trkpt>
      <trkpt lat="46.91416" lon="-0.61102">
        <ele>130</ele>
        <time>2016-03-27T07:31:26Z</time>
      </trkpt>
      <trkpt lat="46.91447" lon="-0.61137">
        <ele>132</ele>
        <time>2016-03-27T07:31:30Z</time>
      </trkpt>
      <trkpt lat="46.91468" lon="-0.61159">
        <ele>138</ele>
        <time>2016-03-27T07:31:34Z</time>
      </trkpt>
      <trkpt lat="46.91483" lon="-0.61174">
        <ele>139</ele>
        <time>2016-03-27T07:31:39Z</time>
      </trkpt>
      <trkpt lat="46.91492" lon="-0.61183">
        <ele>143</ele>
        <time>2016-03-27T07:31:43Z</time>
      </trkpt>
      <trkpt lat="46.91499" lon="-0.61193">
        <ele>144</ele>
        <time>2016-03-27T07:31:47Z</time>
      </trkpt>
      <trkpt lat="46.91506" lon="-0.61204">
        <ele>144</ele>
        <time>2016-03-27T07:31:51Z</time>
      </trkpt>
      <trkpt lat="46.91511" lon="-0.61211">
        <ele>146</ele>
        <time>2016-03-27T07:31:55Z</time>
      </trkpt>
      <trkpt lat="46.91519" lon="-0.61218">
        <ele>145</ele>
        <time>2016-03-27T07:31:59Z</time>
      </trkpt>
      <trkpt lat="46.91527" lon="-0.61224">
        <ele>145</ele>
        <time>2016-03-27T07:32:03Z</time>
      </trkpt>
      <trkpt lat="46.91537" lon="-0.61229">
        <ele>143</ele>
        <time>2016-03-27T07:32:07Z</time>
      </trkpt>
      <trkpt lat="46.91547" lon="-0.61236">
        <ele>144</ele>
        <time>2016-03-27T07:32:12Z</time>
      </trkpt>
      <trkpt lat="46.91556" lon="-0.61243">
        <ele>144</ele>
        <time>2016-03-27T07:32:16Z</time>
      </trkpt>
      <trkpt lat="46.91562" lon="-0.61255">
        <ele>143</ele>
        <time>2016-03-27T07:32:20Z</time>
      </trkpt>
      <trkpt lat="46.91563" lon="-0.61268">
        <ele>143</ele>
        <time>2016-03-27T07:32:24Z</time>
      </trkpt>
      <trkpt lat="46.91561" lon="-0.61282">
        <ele>146</ele>
        <time>2016-03-27T07:32:28Z</time>
      </trkpt>
      <trkpt lat="46.91566" lon="-0.61297">
        <ele>145</ele>
        <time>2016-03-27T07:32:32Z</time>
      </trkpt>
      <trkpt lat="46.91574" lon="-0.6131">
        <ele>145</ele>
        <time>2016-03-27T07:32:36Z</time>
      </trkpt>
      <trkpt lat="46.91583" lon="-0.61321">
        <ele>143</ele>
        <time>2016-03-27T07:32:40Z</time>
      </trkpt>
      <trkpt lat="46.91592" lon="-0.61334">
        <ele>144</ele>
        <time>2016-03-27T07:32:44Z</time>
      </trkpt>
      <trkpt lat="46.91602" lon="-0.61346">
        <ele>145</ele>
        <time>2016-03-27T07:32:48Z</time>
      </trkpt>
      <trkpt lat="46.91612" lon="-0.61359">
        <ele>147</ele>
        <time>2016-03-27T07:32:52Z</time>
      </trkpt>
      <trkpt lat="46.91621" lon="-0.61371">
        <ele>145</ele>
        <time>2016-03-27T07:32:56Z</time>
      </trkpt>
      <trkpt lat="46.91631" lon="-0.61383">
        <ele>144</ele>
        <time>2016-03-27T07:33:00Z</time>
      </trkpt>
      <trkpt lat="46.91639" lon="-0.61396">
        <ele>144</ele>
        <time>2016-03-27T07:33:04Z</time>
      </trkpt>
      <trkpt lat="46.91647" lon="-0.61412">
        <ele>145</ele>
        <time>2016-03-27T07:33:08Z</time>
      </trkpt>
      <trkpt lat="46.91658" lon="-0.61427">
        <ele>149</ele>
        <time>2016-03-27T07:33:13Z</time>
      </trkpt>
      <trkpt lat="46.91668" lon="-0.61435">
        <ele>149</ele>
        <time>2016-03-27T07:33:17Z</time>
      </trkpt>
      <trkpt lat="46.91684" lon="-0.61447">
        <ele>149</ele>
        <time>2016-03-27T07:33:22Z</time>
      </trkpt>
      <trkpt lat="46.91695" lon="-0.61459">
        <ele>149</ele>
        <time>2016-03-27T07:33:26Z</time>
      </trkpt>
      <trkpt lat="46.91708" lon="-0.61475">
        <ele>150</ele>
        <time>2016-03-27T07:33:31Z</time>
      </trkpt>
      <trkpt lat="46.9172" lon="-0.6149">
        <ele>148</ele>
        <time>2016-03-27T07:33:35Z</time>
      </trkpt>
      <trkpt lat="46.91731" lon="-0.61504">
        <ele>151</ele>
        <time>2016-03-27T07:33:39Z</time>
      </trkpt>
      <trkpt lat="46.91744" lon="-0.61522">
        <ele>151</ele>
        <time>2016-03-27T07:33:43Z</time>
      </trkpt>
      <trkpt lat="46.91758" lon="-0.6155">
        <ele>153</ele>
        <time>2016-03-27T07:33:48Z</time>
      </trkpt>
      <trkpt lat="46.91761" lon="-0.61577">
        <ele>153</ele>
        <time>2016-03-27T07:33:52Z</time>
      </trkpt>
      <trkpt lat="46.91762" lon="-0.61604">
        <ele>154</ele>
        <time>2016-03-27T07:33:56Z</time>
      </trkpt>
      <trkpt lat="46.91761" lon="-0.61631">
        <ele>153</ele>
        <time>2016-03-27T07:34:00Z</time>
      </trkpt>
      <trkpt lat="46.91763" lon="-0.61656">
        <ele>153</ele>
        <time>2016-03-27T07:34:04Z</time>
      </trkpt>
      <trkpt lat="46.91765" lon="-0.61679">
        <ele>153</ele>
        <time>2016-03-27T07:34:08Z</time>
      </trkpt>
      <trkpt lat="46.91767" lon="-0.61705">
        <ele>153</ele>
        <time>2016-03-27T07:34:12Z</time>
      </trkpt>
      <trkpt lat="46.91767" lon="-0.61729">
        <ele>154</ele>
        <time>2016-03-27T07:34:16Z</time>
      </trkpt>
      <trkpt lat="46.91768" lon="-0.61752">
        <ele>154</ele>
        <time>2016-03-27T07:34:20Z</time>
      </trkpt>
      <trkpt lat="46.91769" lon="-0.61773">
        <ele>155</ele>
        <time>2016-03-27T07:34:24Z</time>
      </trkpt>
      <trkpt lat="46.91771" lon="-0.61793">
        <ele>155</ele>
        <time>2016-03-27T07:34:28Z</time>
      </trkpt>
      <trkpt lat="46.91774" lon="-0.61812">
        <ele>158</ele>
        <time>2016-03-27T07:34:32Z</time>
      </trkpt>
      <trkpt lat="46.91778" lon="-0.61836">
        <ele>157</ele>
        <time>2016-03-27T07:34:37Z</time>
      </trkpt>
      <trkpt lat="46.9178" lon="-0.61854">
        <ele>157</ele>
        <time>2016-03-27T07:34:41Z</time>
      </trkpt>
      <trkpt lat="46.91783" lon="-0.61874">
        <ele>156</ele>
        <time>2016-03-27T07:34:45Z</time>
      </trkpt>
      <trkpt lat="46.91787" lon="-0.61895">
        <ele>156</ele>
        <time>2016-03-27T07:34:49Z</time>
      </trkpt>
      <trkpt lat="46.91792" lon="-0.61915">
        <ele>157</ele>
        <time>2016-03-27T07:34:53Z</time>
      </trkpt>
      <trkpt lat="46.91797" lon="-0.61936">
        <ele>155</ele>
        <time>2016-03-27T07:34:57Z</time>
      </trkpt>
      <trkpt lat="46.918" lon="-0.61956">
        <ele>155</ele>
        <time>2016-03-27T07:35:01Z</time>
      </trkpt>
      <trkpt lat="46.91806" lon="-0.61975">
        <ele>155</ele>
        <time>2016-03-27T07:35:05Z</time>
      </trkpt>
      <trkpt lat="46.91821" lon="-0.62002">
        <ele>151</ele>
        <time>2016-03-27T07:35:10Z</time>
      </trkpt>
      <trkpt lat="46.91836" lon="-0.62022">
        <ele>152</ele>
        <time>2016-03-27T07:35:14Z</time>
      </trkpt>
      <trkpt lat="46.91855" lon="-0.62049">
        <ele>149</ele>
        <time>2016-03-27T07:35:19Z</time>
      </trkpt>
      <trkpt lat="46.91867" lon="-0.6207">
        <ele>148</ele>
        <time>2016-03-27T07:35:23Z</time>
      </trkpt>
      <trkpt lat="46.91879" lon="-0.62091">
        <ele>148</ele>
        <time>2016-03-27T07:35:27Z</time>
      </trkpt>
      <trkpt lat="46.9189" lon="-0.6211">
        <ele>149</ele>
        <time>2016-03-27T07:35:31Z</time>
      </trkpt>
      <trkpt lat="46.91902" lon="-0.62127">
        <ele>148</ele>
        <time>2016-03-27T07:35:35Z</time>
      </trkpt>
      <trkpt lat="46.9192" lon="-0.62142">
        <ele>149</ele>
        <time>2016-03-27T07:35:39Z</time>
      </trkpt>
      <trkpt lat="46.91941" lon="-0.62167">
        <ele>146</ele>
        <time>2016-03-27T07:35:43Z</time>
      </trkpt>
      <trkpt lat="46.91961" lon="-0.62199">
        <ele>144</ele>
        <time>2016-03-27T07:35:47Z</time>
      </trkpt>
      <trkpt lat="46.91976" lon="-0.6223">
        <ele>142</ele>
        <time>2016-03-27T07:35:51Z</time>
      </trkpt>
      <trkpt lat="46.91976" lon="-0.62255">
        <ele>141</ele>
        <time>2016-03-27T07:35:55Z</time>
      </trkpt>
      <trkpt lat="46.91969" lon="-0.6228">
        <ele>139</ele>
        <time>2016-03-27T07:35:59Z</time>
      </trkpt>
      <trkpt lat="46.9196" lon="-0.62306">
        <ele>139</ele>
        <time>2016-03-27T07:36:03Z</time>
      </trkpt>
      <trkpt lat="46.91952" lon="-0.62332">
        <ele>138</ele>
        <time>2016-03-27T07:36:07Z</time>
      </trkpt>
      <trkpt lat="46.91944" lon="-0.62358">
        <ele>139</ele>
        <time>2016-03-27T07:36:11Z</time>
      </trkpt>
      <trkpt lat="46.91935" lon="-0.62384">
        <ele>140</ele>
        <time>2016-03-27T07:36:15Z</time>
      </trkpt>
      <trkpt lat="46.91924" lon="-0.62417">
        <ele>137</ele>
        <time>2016-03-27T07:36:20Z</time>
      </trkpt>
      <trkpt lat="46.91918" lon="-0.62443">
        <ele>136</ele>
        <time>2016-03-27T07:36:24Z</time>
      </trkpt>
      <trkpt lat="46.91911" lon="-0.62468">
        <ele>135</ele>
        <time>2016-03-27T07:36:28Z</time>
      </trkpt>
      <trkpt lat="46.91906" lon="-0.62496">
        <ele>135</ele>
        <time>2016-03-27T07:36:32Z</time>
      </trkpt>
      <trkpt lat="46.91903" lon="-0.6254">
        <ele>133</ele>
        <time>2016-03-27T07:36:37Z</time>
      </trkpt>
      <trkpt lat="46.91912" lon="-0.62575">
        <ele>131</ele>
        <time>2016-03-27T07:36:41Z</time>
      </trkpt>
      <trkpt lat="46.91934" lon="-0.62608">
        <ele>130</ele>
        <time>2016-03-27T07:36:45Z</time>
      </trkpt>
      <trkpt lat="46.91952" lon="-0.62639">
        <ele>131</ele>
        <time>2016-03-27T07:36:49Z</time>
      </trkpt>
      <trkpt lat="46.91961" lon="-0.62675">
        <ele>130</ele>
        <time>2016-03-27T07:36:53Z</time>
      </trkpt>
      <trkpt lat="46.91967" lon="-0.62707">
        <ele>131</ele>
        <time>2016-03-27T07:36:57Z</time>
      </trkpt>
      <trkpt lat="46.91976" lon="-0.62741">
        <ele>127</ele>
        <time>2016-03-27T07:37:01Z</time>
      </trkpt>
      <trkpt lat="46.91987" lon="-0.62783">
        <ele>128</ele>
        <time>2016-03-27T07:37:05Z</time>
      </trkpt>
      <trkpt lat="46.91999" lon="-0.62831">
        <ele>126</ele>
        <time>2016-03-27T07:37:09Z</time>
      </trkpt>
      <trkpt lat="46.92008" lon="-0.62884">
        <ele>125</ele>
        <time>2016-03-27T07:37:13Z</time>
      </trkpt>
      <trkpt lat="46.92002" lon="-0.6295">
        <ele>121</ele>
        <time>2016-03-27T07:37:18Z</time>
      </trkpt>
      <trkpt lat="46.91994" lon="-0.62977">
        <ele>120</ele>
        <time>2016-03-27T07:37:21Z</time>
      </trkpt>
      <trkpt lat="46.92004" lon="-0.62989">
        <ele>119</ele>
        <time>2016-03-27T07:37:25Z</time>
      </trkpt>
      <trkpt lat="46.92024" lon="-0.63002">
        <ele>114</ele>
        <time>2016-03-27T07:37:29Z</time>
      </trkpt>
      <trkpt lat="46.92045" lon="-0.63008">
        <ele>112</ele>
        <time>2016-03-27T07:37:33Z</time>
      </trkpt>
      <trkpt lat="46.9205" lon="-0.63017">
        <ele>112</ele>
        <time>2016-03-27T07:37:37Z</time>
      </trkpt>
      <trkpt lat="46.92058" lon="-0.63024">
        <ele>115</ele>
        <time>2016-03-27T07:37:41Z</time>
      </trkpt>
      <trkpt lat="46.92066" lon="-0.63021">
        <ele>111</ele>
        <time>2016-03-27T07:37:48Z</time>
      </trkpt>
      <trkpt lat="46.92074" lon="-0.63017">
        <ele>109</ele>
        <time>2016-03-27T07:37:55Z</time>
      </trkpt>
      <trkpt lat="46.92081" lon="-0.63022">
        <ele>113</ele>
        <time>2016-03-27T07:38:03Z</time>
      </trkpt>
      <trkpt lat="46.92089" lon="-0.63029">
        <ele>114</ele>
        <time>2016-03-27T07:38:07Z</time>
      </trkpt>
      <trkpt lat="46.921" lon="-0.63042">
        <ele>119</ele>
        <time>2016-03-27T07:38:11Z</time>
      </trkpt>
      <trkpt lat="46.92118" lon="-0.63057">
        <ele>119</ele>
        <time>2016-03-27T07:38:16Z</time>
      </trkpt>
      <trkpt lat="46.92129" lon="-0.63069">
        <ele>119</ele>
        <time>2016-03-27T07:38:20Z</time>
      </trkpt>
      <trkpt lat="46.92141" lon="-0.63082">
        <ele>117</ele>
        <time>2016-03-27T07:38:24Z</time>
      </trkpt>
      <trkpt lat="46.92154" lon="-0.63095">
        <ele>118</ele>
        <time>2016-03-27T07:38:28Z</time>
      </trkpt>
      <trkpt lat="46.92165" lon="-0.63106">
        <ele>119</ele>
        <time>2016-03-27T07:38:32Z</time>
      </trkpt>
      <trkpt lat="46.92176" lon="-0.63119">
        <ele>117</ele>
        <time>2016-03-27T07:38:36Z</time>
      </trkpt>
      <trkpt lat="46.9218" lon="-0.63143">
        <ele>118</ele>
        <time>2016-03-27T07:38:41Z</time>
      </trkpt>
      <trkpt lat="46.92184" lon="-0.63163">
        <ele>119</ele>
        <time>2016-03-27T07:38:45Z</time>
      </trkpt>
      <trkpt lat="46.92186" lon="-0.63183">
        <ele>120</ele>
        <time>2016-03-27T07:38:49Z</time>
      </trkpt>
      <trkpt lat="46.92189" lon="-0.63204">
        <ele>119</ele>
        <time>2016-03-27T07:38:53Z</time>
      </trkpt>
      <trkpt lat="46.92196" lon="-0.63226">
        <ele>115</ele>
        <time>2016-03-27T07:38:57Z</time>
      </trkpt>
      <trkpt lat="46.92206" lon="-0.63236">
        <ele>117</ele>
        <time>2016-03-27T07:39:01Z</time>
      </trkpt>
      <trkpt lat="46.92216" lon="-0.63248">
        <ele>116</ele>
        <time>2016-03-27T07:39:05Z</time>
      </trkpt>
      <trkpt lat="46.92226" lon="-0.63255">
        <ele>119</ele>
        <time>2016-03-27T07:39:09Z</time>
      </trkpt>
      <trkpt lat="46.92239" lon="-0.63262">
        <ele>123</ele>
        <time>2016-03-27T07:39:14Z</time>
      </trkpt>
      <trkpt lat="46.92245" lon="-0.63265">
        <ele>125</ele>
        <time>2016-03-27T07:39:17Z</time>
      </trkpt>
      <trkpt lat="46.92255" lon="-0.63271">
        <ele>127</ele>
        <time>2016-03-27T07:39:21Z</time>
      </trkpt>
      <trkpt lat="46.92265" lon="-0.63277">
        <ele>127</ele>
        <time>2016-03-27T07:39:25Z</time>
      </trkpt>
      <trkpt lat="46.92276" lon="-0.63284">
        <ele>127</ele>
        <time>2016-03-27T07:39:29Z</time>
      </trkpt>
      <trkpt lat="46.92287" lon="-0.63291">
        <ele>127</ele>
        <time>2016-03-27T07:39:33Z</time>
      </trkpt>
      <trkpt lat="46.92297" lon="-0.633">
        <ele>128</ele>
        <time>2016-03-27T07:39:37Z</time>
      </trkpt>
      <trkpt lat="46.92307" lon="-0.63311">
        <ele>126</ele>
        <time>2016-03-27T07:39:41Z</time>
      </trkpt>
      <trkpt lat="46.92317" lon="-0.63323">
        <ele>127</ele>
        <time>2016-03-27T07:39:46Z</time>
      </trkpt>
      <trkpt lat="46.92324" lon="-0.63338">
        <ele>126</ele>
        <time>2016-03-27T07:39:50Z</time>
      </trkpt>
      <trkpt lat="46.9233" lon="-0.63352">
        <ele>126</ele>
        <time>2016-03-27T07:39:54Z</time>
      </trkpt>
      <trkpt lat="46.92335" lon="-0.63364">
        <ele>128</ele>
        <time>2016-03-27T07:39:58Z</time>
      </trkpt>
      <trkpt lat="46.92342" lon="-0.6338">
        <ele>130</ele>
        <time>2016-03-27T07:40:03Z</time>
      </trkpt>
      <trkpt lat="46.92345" lon="-0.63397">
        <ele>130</ele>
        <time>2016-03-27T07:40:07Z</time>
      </trkpt>
      <trkpt lat="46.92346" lon="-0.63415">
        <ele>132</ele>
        <time>2016-03-27T07:40:12Z</time>
      </trkpt>
      <trkpt lat="46.92348" lon="-0.63431">
        <ele>128</ele>
        <time>2016-03-27T07:40:16Z</time>
      </trkpt>
      <trkpt lat="46.92351" lon="-0.63448">
        <ele>129</ele>
        <time>2016-03-27T07:40:21Z</time>
      </trkpt>
      <trkpt lat="46.92354" lon="-0.63463">
        <ele>128</ele>
        <time>2016-03-27T07:40:25Z</time>
      </trkpt>
      <trkpt lat="46.92357" lon="-0.6348">
        <ele>127</ele>
        <time>2016-03-27T07:40:29Z</time>
      </trkpt>
      <trkpt lat="46.92359" lon="-0.63499">
        <ele>129</ele>
        <time>2016-03-27T07:40:33Z</time>
      </trkpt>
      <trkpt lat="46.92362" lon="-0.63518">
        <ele>130</ele>
        <time>2016-03-27T07:40:37Z</time>
      </trkpt>
      <trkpt lat="46.92364" lon="-0.63537">
        <ele>130</ele>
        <time>2016-03-27T07:40:41Z</time>
      </trkpt>
      <trkpt lat="46.92366" lon="-0.63557">
        <ele>131</ele>
        <time>2016-03-27T07:40:45Z</time>
      </trkpt>
      <trkpt lat="46.92368" lon="-0.63577">
        <ele>132</ele>
        <time>2016-03-27T07:40:49Z</time>
      </trkpt>
      <trkpt lat="46.92371" lon="-0.636">
        <ele>131</ele>
        <time>2016-03-27T07:40:53Z</time>
      </trkpt>
      <trkpt lat="46.92372" lon="-0.63621">
        <ele>134</ele>
        <time>2016-03-27T07:40:57Z</time>
      </trkpt>
      <trkpt lat="46.92374" lon="-0.63639">
        <ele>134</ele>
        <time>2016-03-27T07:41:01Z</time>
      </trkpt>
      <trkpt lat="46.9238" lon="-0.63658">
        <ele>133</ele>
        <time>2016-03-27T07:41:05Z</time>
      </trkpt>
      <trkpt lat="46.92385" lon="-0.63675">
        <ele>133</ele>
        <time>2016-03-27T07:41:09Z</time>
      </trkpt>
      <trkpt lat="46.9239" lon="-0.63694">
        <ele>132</ele>
        <time>2016-03-27T07:41:13Z</time>
      </trkpt>
      <trkpt lat="46.92395" lon="-0.63714">
        <ele>132</ele>
        <time>2016-03-27T07:41:17Z</time>
      </trkpt>
      <trkpt lat="46.92397" lon="-0.63732">
        <ele>133</ele>
        <time>2016-03-27T07:41:21Z</time>
      </trkpt>
      <trkpt lat="46.92402" lon="-0.63751">
        <ele>133</ele>
        <time>2016-03-27T07:41:25Z</time>
      </trkpt>
      <trkpt lat="46.92406" lon="-0.63769">
        <ele>135</ele>
        <time>2016-03-27T07:41:29Z</time>
      </trkpt>
      <trkpt lat="46.92411" lon="-0.63789">
        <ele>136</ele>
        <time>2016-03-27T07:41:33Z</time>
      </trkpt>
      <trkpt lat="46.92416" lon="-0.63811">
        <ele>134</ele>
        <time>2016-03-27T07:41:38Z</time>
      </trkpt>
      <trkpt lat="46.9242" lon="-0.63829">
        <ele>135</ele>
        <time>2016-03-27T07:41:42Z</time>
      </trkpt>
      <trkpt lat="46.92425" lon="-0.63851">
        <ele>137</ele>
        <time>2016-03-27T07:41:47Z</time>
      </trkpt>
      <trkpt lat="46.92429" lon="-0.63863">
        <ele>138</ele>
        <time>2016-03-27T07:41:50Z</time>
      </trkpt>
      <trkpt lat="46.92433" lon="-0.63883">
        <ele>138</ele>
        <time>2016-03-27T07:41:54Z</time>
      </trkpt>
      <trkpt lat="46.92437" lon="-0.639">
        <ele>139</ele>
        <time>2016-03-27T07:41:58Z</time>
      </trkpt>
      <trkpt lat="46.92442" lon="-0.63923">
        <ele>137</ele>
        <time>2016-03-27T07:42:03Z</time>
      </trkpt>
      <trkpt lat="46.92442" lon="-0.63939">
        <ele>138</ele>
        <time>2016-03-27T07:42:07Z</time>
      </trkpt>
      <trkpt lat="46.92439" lon="-0.63955">
        <ele>140</ele>
        <time>2016-03-27T07:42:12Z</time>
      </trkpt>
      <trkpt lat="46.92442" lon="-0.63967">
        <ele>141</ele>
        <time>2016-03-27T07:42:16Z</time>
      </trkpt>
      <trkpt lat="46.92446" lon="-0.6398">
        <ele>141</ele>
        <time>2016-03-27T07:42:20Z</time>
      </trkpt>
      <trkpt lat="46.9245" lon="-0.63993">
        <ele>141</ele>
        <time>2016-03-27T07:42:24Z</time>
      </trkpt>
      <trkpt lat="46.92455" lon="-0.64006">
        <ele>139</ele>
        <time>2016-03-27T07:42:28Z</time>
      </trkpt>
      <trkpt lat="46.92461" lon="-0.6402">
        <ele>137</ele>
        <time>2016-03-27T07:42:32Z</time>
      </trkpt>
      <trkpt lat="46.92465" lon="-0.64036">
        <ele>138</ele>
        <time>2016-03-27T07:42:36Z</time>
      </trkpt>
      <trkpt lat="46.92471" lon="-0.64055">
        <ele>138</ele>
        <time>2016-03-27T07:42:40Z</time>
      </trkpt>
      <trkpt lat="46.92478" lon="-0.64079">
        <ele>139</ele>
        <time>2016-03-27T07:42:45Z</time>
      </trkpt>
      <trkpt lat="46.92485" lon="-0.64102">
        <ele>138</ele>
        <time>2016-03-27T07:42:50Z</time>
      </trkpt>
      <trkpt lat="46.9249" lon="-0.64121">
        <ele>140</ele>
        <time>2016-03-27T07:42:54Z</time>
      </trkpt>
      <trkpt lat="46.92496" lon="-0.64145">
        <ele>140</ele>
        <time>2016-03-27T07:42:59Z</time>
      </trkpt>
      <trkpt lat="46.92502" lon="-0.64162">
        <ele>141</ele>
        <time>2016-03-27T07:43:03Z</time>
      </trkpt>
      <trkpt lat="46.92508" lon="-0.64182">
        <ele>141</ele>
        <time>2016-03-27T07:43:07Z</time>
      </trkpt>
      <trkpt lat="46.92513" lon="-0.64199">
        <ele>141</ele>
        <time>2016-03-27T07:43:11Z</time>
      </trkpt>
      <trkpt lat="46.92519" lon="-0.64217">
        <ele>141</ele>
        <time>2016-03-27T07:43:15Z</time>
      </trkpt>
      <trkpt lat="46.92525" lon="-0.64241">
        <ele>141</ele>
        <time>2016-03-27T07:43:20Z</time>
      </trkpt>
      <trkpt lat="46.9253" lon="-0.64259">
        <ele>142</ele>
        <time>2016-03-27T07:43:24Z</time>
      </trkpt>
      <trkpt lat="46.92536" lon="-0.64279">
        <ele>140</ele>
        <time>2016-03-27T07:43:28Z</time>
      </trkpt>
      <trkpt lat="46.92541" lon="-0.64299">
        <ele>140</ele>
        <time>2016-03-27T07:43:32Z</time>
      </trkpt>
      <trkpt lat="46.9255" lon="-0.64312">
        <ele>142</ele>
        <time>2016-03-27T07:43:36Z</time>
      </trkpt>
      <trkpt lat="46.92563" lon="-0.64316">
        <ele>143</ele>
        <time>2016-03-27T07:43:40Z</time>
      </trkpt>
      <trkpt lat="46.92578" lon="-0.64311">
        <ele>142</ele>
        <time>2016-03-27T07:43:44Z</time>
      </trkpt>
      <trkpt lat="46.92592" lon="-0.64305">
        <ele>142</ele>
        <time>2016-03-27T07:43:48Z</time>
      </trkpt>
      <trkpt lat="46.92612" lon="-0.64297">
        <ele>142</ele>
        <time>2016-03-27T07:43:53Z</time>
      </trkpt>
      <trkpt lat="46.92629" lon="-0.64288">
        <ele>142</ele>
        <time>2016-03-27T07:43:57Z</time>
      </trkpt>
      <trkpt lat="46.9265" lon="-0.64275">
        <ele>141</ele>
        <time>2016-03-27T07:44:02Z</time>
      </trkpt>
      <trkpt lat="46.92668" lon="-0.64265">
        <ele>141</ele>
        <time>2016-03-27T07:44:06Z</time>
      </trkpt>
      <trkpt lat="46.92685" lon="-0.64259">
        <ele>143</ele>
        <time>2016-03-27T07:44:10Z</time>
      </trkpt>
      <trkpt lat="46.92701" lon="-0.64261">
        <ele>143</ele>
        <time>2016-03-27T07:44:14Z</time>
      </trkpt>
      <trkpt lat="46.92715" lon="-0.64272">
        <ele>145</ele>
        <time>2016-03-27T07:44:18Z</time>
      </trkpt>
      <trkpt lat="46.9273" lon="-0.64283">
        <ele>145</ele>
        <time>2016-03-27T07:44:22Z</time>
      </trkpt>
      <trkpt lat="46.92747" lon="-0.64296">
        <ele>147</ele>
        <time>2016-03-27T07:44:27Z</time>
      </trkpt>
      <trkpt lat="46.92763" lon="-0.64309">
        <ele>148</ele>
        <time>2016-03-27T07:44:32Z</time>
      </trkpt>
      <trkpt lat="46.92775" lon="-0.64321">
        <ele>148</ele>
        <time>2016-03-27T07:44:36Z</time>
      </trkpt>
      <trkpt lat="46.92788" lon="-0.64333">
        <ele>149</ele>
        <time>2016-03-27T07:44:40Z</time>
      </trkpt>
      <trkpt lat="46.92801" lon="-0.64347">
        <ele>150</ele>
        <time>2016-03-27T07:44:44Z</time>
      </trkpt>
      <trkpt lat="46.92818" lon="-0.64367">
        <ele>149</ele>
        <time>2016-03-27T07:44:49Z</time>
      </trkpt>
      <trkpt lat="46.92836" lon="-0.64387">
        <ele>146</ele>
        <time>2016-03-27T07:44:53Z</time>
      </trkpt>
      <trkpt lat="46.92853" lon="-0.64406">
        <ele>143</ele>
        <time>2016-03-27T07:44:57Z</time>
      </trkpt>
      <trkpt lat="46.92869" lon="-0.64432">
        <ele>142</ele>
        <time>2016-03-27T07:45:01Z</time>
      </trkpt>
      <trkpt lat="46.92881" lon="-0.64461">
        <ele>142</ele>
        <time>2016-03-27T07:45:05Z</time>
      </trkpt>
      <trkpt lat="46.92887" lon="-0.64492">
        <ele>143</ele>
        <time>2016-03-27T07:45:09Z</time>
      </trkpt>
      <trkpt lat="46.92874" lon="-0.64528">
        <ele>144</ele>
        <time>2016-03-27T07:45:14Z</time>
      </trkpt>
      <trkpt lat="46.92868" lon="-0.64559">
        <ele>143</ele>
        <time>2016-03-27T07:45:18Z</time>
      </trkpt>
      <trkpt lat="46.92882" lon="-0.64584">
        <ele>143</ele>
        <time>2016-03-27T07:45:22Z</time>
      </trkpt>
      <trkpt lat="46.92898" lon="-0.64605">
        <ele>145</ele>
        <time>2016-03-27T07:45:26Z</time>
      </trkpt>
      <trkpt lat="46.92912" lon="-0.64626">
        <ele>144</ele>
        <time>2016-03-27T07:45:30Z</time>
      </trkpt>
      <trkpt lat="46.92927" lon="-0.64644">
        <ele>143</ele>
        <time>2016-03-27T07:45:34Z</time>
      </trkpt>
      <trkpt lat="46.92943" lon="-0.6466">
        <ele>143</ele>
        <time>2016-03-27T07:45:38Z</time>
      </trkpt>
      <trkpt lat="46.9296" lon="-0.64682">
        <ele>144</ele>
        <time>2016-03-27T07:45:43Z</time>
      </trkpt>
      <trkpt lat="46.92977" lon="-0.64701">
        <ele>147</ele>
        <time>2016-03-27T07:45:48Z</time>
      </trkpt>
      <trkpt lat="46.92987" lon="-0.64717">
        <ele>148</ele>
        <time>2016-03-27T07:45:52Z</time>
      </trkpt>
      <trkpt lat="46.93003" lon="-0.64736">
        <ele>146</ele>
        <time>2016-03-27T07:45:57Z</time>
      </trkpt>
      <trkpt lat="46.93015" lon="-0.64749">
        <ele>147</ele>
        <time>2016-03-27T07:46:01Z</time>
      </trkpt>
      <trkpt lat="46.93027" lon="-0.64763">
        <ele>148</ele>
        <time>2016-03-27T07:46:05Z</time>
      </trkpt>
      <trkpt lat="46.93042" lon="-0.64782">
        <ele>149</ele>
        <time>2016-03-27T07:46:10Z</time>
      </trkpt>
      <trkpt lat="46.93056" lon="-0.64799">
        <ele>150</ele>
        <time>2016-03-27T07:46:15Z</time>
      </trkpt>
      <trkpt lat="46.93067" lon="-0.64813">
        <ele>151</ele>
        <time>2016-03-27T07:46:19Z</time>
      </trkpt>
      <trkpt lat="46.93079" lon="-0.64826">
        <ele>152</ele>
        <time>2016-03-27T07:46:23Z</time>
      </trkpt>
      <trkpt lat="46.9309" lon="-0.64838">
        <ele>151</ele>
        <time>2016-03-27T07:46:27Z</time>
      </trkpt>
      <trkpt lat="46.931" lon="-0.64846">
        <ele>153</ele>
        <time>2016-03-27T07:46:31Z</time>
      </trkpt>
      <trkpt lat="46.9311" lon="-0.64849">
        <ele>152</ele>
        <time>2016-03-27T07:46:35Z</time>
      </trkpt>
      <trkpt lat="46.9312" lon="-0.64848">
        <ele>149</ele>
        <time>2016-03-27T07:46:39Z</time>
      </trkpt>
      <trkpt lat="46.93128" lon="-0.64849">
        <ele>148</ele>
        <time>2016-03-27T07:46:42Z</time>
      </trkpt>
      <trkpt lat="46.93136" lon="-0.64857">
        <ele>151</ele>
        <time>2016-03-27T07:46:46Z</time>
      </trkpt>
      <trkpt lat="46.93145" lon="-0.64868">
        <ele>151</ele>
        <time>2016-03-27T07:46:50Z</time>
      </trkpt>
      <trkpt lat="46.93152" lon="-0.6488">
        <ele>153</ele>
        <time>2016-03-27T07:46:54Z</time>
      </trkpt>
      <trkpt lat="46.93159" lon="-0.64891">
        <ele>158</ele>
        <time>2016-03-27T07:46:58Z</time>
      </trkpt>
      <trkpt lat="46.93169" lon="-0.64899">
        <ele>161</ele>
        <time>2016-03-27T07:47:02Z</time>
      </trkpt>
      <trkpt lat="46.93179" lon="-0.64907">
        <ele>162</ele>
        <time>2016-03-27T07:47:06Z</time>
      </trkpt>
      <trkpt lat="46.93192" lon="-0.64913">
        <ele>163</ele>
        <time>2016-03-27T07:47:10Z</time>
      </trkpt>
      <trkpt lat="46.93203" lon="-0.6492">
        <ele>163</ele>
        <time>2016-03-27T07:47:14Z</time>
      </trkpt>
      <trkpt lat="46.93216" lon="-0.64926">
        <ele>162</ele>
        <time>2016-03-27T07:47:18Z</time>
      </trkpt>
      <trkpt lat="46.93231" lon="-0.64933">
        <ele>161</ele>
        <time>2016-03-27T07:47:22Z</time>
      </trkpt>
      <trkpt lat="46.93244" lon="-0.64943">
        <ele>161</ele>
        <time>2016-03-27T07:47:26Z</time>
      </trkpt>
      <trkpt lat="46.93255" lon="-0.64953">
        <ele>160</ele>
        <time>2016-03-27T07:47:30Z</time>
      </trkpt>
      <trkpt lat="46.93263" lon="-0.64965">
        <ele>160</ele>
        <time>2016-03-27T07:47:34Z</time>
      </trkpt>
      <trkpt lat="46.93273" lon="-0.64975">
        <ele>159</ele>
        <time>2016-03-27T07:47:38Z</time>
      </trkpt>
      <trkpt lat="46.93283" lon="-0.64987">
        <ele>160</ele>
        <time>2016-03-27T07:47:42Z</time>
      </trkpt>
      <trkpt lat="46.93294" lon="-0.64997">
        <ele>160</ele>
        <time>2016-03-27T07:47:46Z</time>
      </trkpt>
      <trkpt lat="46.93303" lon="-0.65006">
        <ele>161</ele>
        <time>2016-03-27T07:47:50Z</time>
      </trkpt>
      <trkpt lat="46.93314" lon="-0.6502">
        <ele>159</ele>
        <time>2016-03-27T07:47:55Z</time>
      </trkpt>
      <trkpt lat="46.93323" lon="-0.6503">
        <ele>156</ele>
        <time>2016-03-27T07:47:59Z</time>
      </trkpt>
      <trkpt lat="46.93333" lon="-0.65041">
        <ele>158</ele>
        <time>2016-03-27T07:48:03Z</time>
      </trkpt>
      <trkpt lat="46.93343" lon="-0.65053">
        <ele>159</ele>
        <time>2016-03-27T07:48:07Z</time>
      </trkpt>
      <trkpt lat="46.93354" lon="-0.65067">
        <ele>159</ele>
        <time>2016-03-27T07:48:11Z</time>
      </trkpt>
      <trkpt lat="46.93367" lon="-0.65082">
        <ele>159</ele>
        <time>2016-03-27T07:48:16Z</time>
      </trkpt>
      <trkpt lat="46.93379" lon="-0.65093">
        <ele>161</ele>
        <time>2016-03-27T07:48:20Z</time>
      </trkpt>
      <trkpt lat="46.9339" lon="-0.65104">
        <ele>163</ele>
        <time>2016-03-27T07:48:24Z</time>
      </trkpt>
      <trkpt lat="46.93402" lon="-0.65115">
        <ele>163</ele>
        <time>2016-03-27T07:48:28Z</time>
      </trkpt>
      <trkpt lat="46.93412" lon="-0.65127">
        <ele>163</ele>
        <time>2016-03-27T07:48:32Z</time>
      </trkpt>
      <trkpt lat="46.93415" lon="-0.65144">
        <ele>161</ele>
        <time>2016-03-27T07:48:36Z</time>
      </trkpt>
      <trkpt lat="46.93417" lon="-0.65157">
        <ele>163</ele>
        <time>2016-03-27T07:48:41Z</time>
      </trkpt>
      <trkpt lat="46.93419" lon="-0.6517">
        <ele>163</ele>
        <time>2016-03-27T07:50:26Z</time>
      </trkpt>
      <trkpt lat="46.93418" lon="-0.65181">
        <ele>161</ele>
        <time>2016-03-27T07:55:35Z</time>
      </trkpt>
      <trkpt lat="46.93417" lon="-0.65195">
        <ele>159</ele>
        <time>2016-03-27T07:55:39Z</time>
      </trkpt>
      <trkpt lat="46.93416" lon="-0.65209">
        <ele>154</ele>
        <time>2016-03-27T07:55:43Z</time>
      </trkpt>
      <trkpt lat="46.93413" lon="-0.6522">
        <ele>154</ele>
        <time>2016-03-27T07:55:47Z</time>
      </trkpt>
      <trkpt lat="46.93421" lon="-0.65241">
        <ele>156</ele>
        <time>2016-03-27T07:55:52Z</time>
      </trkpt>
      <trkpt lat="46.93425" lon="-0.65253">
        <ele>155</ele>
        <time>2016-03-27T07:55:55Z</time>
      </trkpt>
      <trkpt lat="46.93435" lon="-0.65269">
        <ele>156</ele>
        <time>2016-03-27T07:55:59Z</time>
      </trkpt>
      <trkpt lat="46.93447" lon="-0.65296">
        <ele>159</ele>
        <time>2016-03-27T07:56:04Z</time>
      </trkpt>
      <trkpt lat="46.93458" lon="-0.65313">
        <ele>160</ele>
        <time>2016-03-27T07:56:08Z</time>
      </trkpt>
      <trkpt lat="46.93464" lon="-0.65333">
        <ele>159</ele>
        <time>2016-03-27T07:56:12Z</time>
      </trkpt>
      <trkpt lat="46.93471" lon="-0.65355">
        <ele>157</ele>
        <time>2016-03-27T07:56:16Z</time>
      </trkpt>
      <trkpt lat="46.93483" lon="-0.65388">
        <ele>154</ele>
        <time>2016-03-27T07:56:21Z</time>
      </trkpt>
      <trkpt lat="46.93487" lon="-0.65424">
        <ele>154</ele>
        <time>2016-03-27T07:56:25Z</time>
      </trkpt>
      <trkpt lat="46.93506" lon="-0.65446">
        <ele>153</ele>
        <time>2016-03-27T07:56:30Z</time>
      </trkpt>
      <trkpt lat="46.93524" lon="-0.65456">
        <ele>153</ele>
        <time>2016-03-27T07:56:34Z</time>
      </trkpt>
      <trkpt lat="46.93537" lon="-0.65477">
        <ele>152</ele>
        <time>2016-03-27T07:56:39Z</time>
      </trkpt>
      <trkpt lat="46.9355" lon="-0.65492">
        <ele>151</ele>
        <time>2016-03-27T07:56:43Z</time>
      </trkpt>
      <trkpt lat="46.93558" lon="-0.65507">
        <ele>153</ele>
        <time>2016-03-27T07:56:48Z</time>
      </trkpt>
      <trkpt lat="46.93564" lon="-0.65538">
        <ele>155</ele>
        <time>2016-03-27T07:56:53Z</time>
      </trkpt>
      <trkpt lat="46.93567" lon="-0.65561">
        <ele>157</ele>
        <time>2016-03-27T07:56:57Z</time>
      </trkpt>
      <trkpt lat="46.93572" lon="-0.65579">
        <ele>156</ele>
        <time>2016-03-27T07:57:02Z</time>
      </trkpt>
      <trkpt lat="46.93577" lon="-0.65597">
        <ele>155</ele>
        <time>2016-03-27T07:57:06Z</time>
      </trkpt>
      <trkpt lat="46.93586" lon="-0.65615">
        <ele>152</ele>
        <time>2016-03-27T07:57:10Z</time>
      </trkpt>
      <trkpt lat="46.93597" lon="-0.65644">
        <ele>152</ele>
        <time>2016-03-27T07:57:15Z</time>
      </trkpt>
      <trkpt lat="46.93605" lon="-0.65664">
        <ele>146</ele>
        <time>2016-03-27T07:57:20Z</time>
      </trkpt>
      <trkpt lat="46.93614" lon="-0.65688">
        <ele>146</ele>
        <time>2016-03-27T07:57:25Z</time>
      </trkpt>
      <trkpt lat="46.93622" lon="-0.65706">
        <ele>148</ele>
        <time>2016-03-27T07:57:29Z</time>
      </trkpt>
      <trkpt lat="46.93633" lon="-0.65726">
        <ele>151</ele>
        <time>2016-03-27T07:57:33Z</time>
      </trkpt>
      <trkpt lat="46.93641" lon="-0.65737">
        <ele>146</ele>
        <time>2016-03-27T07:57:37Z</time>
      </trkpt>
      <trkpt lat="46.93648" lon="-0.65748">
        <ele>148</ele>
        <time>2016-03-27T07:57:41Z</time>
      </trkpt>
      <trkpt lat="46.9366" lon="-0.65753">
        <ele>139</ele>
        <time>2016-03-27T07:57:45Z</time>
      </trkpt>
      <trkpt lat="46.93672" lon="-0.65775">
        <ele>141</ele>
        <time>2016-03-27T07:57:49Z</time>
      </trkpt>
      <trkpt lat="46.93681" lon="-0.65799">
        <ele>144</ele>
        <time>2016-03-27T07:57:54Z</time>
      </trkpt>
      <trkpt lat="46.93694" lon="-0.65821">
        <ele>143</ele>
        <time>2016-03-27T07:57:58Z</time>
      </trkpt>
      <trkpt lat="46.93697" lon="-0.65837">
        <ele>144</ele>
        <time>2016-03-27T07:58:02Z</time>
      </trkpt>
      <trkpt lat="46.9371" lon="-0.65859">
        <ele>143</ele>
        <time>2016-03-27T07:58:06Z</time>
      </trkpt>
      <trkpt lat="46.93721" lon="-0.65891">
        <ele>147</ele>
        <time>2016-03-27T07:58:11Z</time>
      </trkpt>
      <trkpt lat="46.93723" lon="-0.65909">
        <ele>147</ele>
        <time>2016-03-27T07:58:14Z</time>
      </trkpt>
      <trkpt lat="46.93723" lon="-0.6593">
        <ele>151</ele>
        <time>2016-03-27T07:58:18Z</time>
      </trkpt>
      <trkpt lat="46.93724" lon="-0.65949">
        <ele>147</ele>
        <time>2016-03-27T07:58:22Z</time>
      </trkpt>
      <trkpt lat="46.93725" lon="-0.65974">
        <ele>144</ele>
        <time>2016-03-27T07:58:26Z</time>
      </trkpt>
      <trkpt lat="46.9373" lon="-0.66003">
        <ele>142</ele>
        <time>2016-03-27T07:58:31Z</time>
      </trkpt>
      <trkpt lat="46.93736" lon="-0.6603">
        <ele>142</ele>
        <time>2016-03-27T07:58:35Z</time>
      </trkpt>
      <trkpt lat="46.93743" lon="-0.66062">
        <ele>143</ele>
        <time>2016-03-27T07:58:39Z</time>
      </trkpt>
      <trkpt lat="46.93746" lon="-0.66084">
        <ele>141</ele>
        <time>2016-03-27T07:58:43Z</time>
      </trkpt>
      <trkpt lat="46.93747" lon="-0.66104">
        <ele>147</ele>
        <time>2016-03-27T07:58:48Z</time>
      </trkpt>
      <trkpt lat="46.93748" lon="-0.6613">
        <ele>144</ele>
        <time>2016-03-27T07:58:52Z</time>
      </trkpt>
      <trkpt lat="46.93749" lon="-0.6615">
        <ele>144</ele>
        <time>2016-03-27T07:58:56Z</time>
      </trkpt>
      <trkpt lat="46.93758" lon="-0.66171">
        <ele>142</ele>
        <time>2016-03-27T07:59:00Z</time>
      </trkpt>
      <trkpt lat="46.93774" lon="-0.6617">
        <ele>140</ele>
        <time>2016-03-27T07:59:05Z</time>
      </trkpt>
      <trkpt lat="46.9379" lon="-0.66162">
        <ele>137</ele>
        <time>2016-03-27T07:59:09Z</time>
      </trkpt>
      <trkpt lat="46.93806" lon="-0.66152">
        <ele>139</ele>
        <time>2016-03-27T07:59:13Z</time>
      </trkpt>
      <trkpt lat="46.9382" lon="-0.66147">
        <ele>139</ele>
        <time>2016-03-27T07:59:17Z</time>
      </trkpt>
      <trkpt lat="46.93839" lon="-0.66137">
        <ele>139</ele>
        <time>2016-03-27T07:59:21Z</time>
      </trkpt>
      <trkpt lat="46.93857" lon="-0.66127">
        <ele>140</ele>
        <time>2016-03-27T07:59:25Z</time>
      </trkpt>
      <trkpt lat="46.93886" lon="-0.66106">
        <ele>138</ele>
        <time>2016-03-27T07:59:30Z</time>
      </trkpt>
      <trkpt lat="46.93916" lon="-0.66095">
        <ele>136</ele>
        <time>2016-03-27T07:59:35Z</time>
      </trkpt>
      <trkpt lat="46.9393" lon="-0.66086">
        <ele>138</ele>
        <time>2016-03-27T07:59:39Z</time>
      </trkpt>
      <trkpt lat="46.93937" lon="-0.66084">
        <ele>132</ele>
        <time>2016-03-27T07:59:54Z</time>
      </trkpt>
      <trkpt lat="46.93949" lon="-0.66078">
        <ele>130</ele>
        <time>2016-03-27T07:59:59Z</time>
      </trkpt>
      <trkpt lat="46.93957" lon="-0.66085">
        <ele>132</ele>
        <time>2016-03-27T08:00:03Z</time>
      </trkpt>
      <trkpt lat="46.93957" lon="-0.66095">
        <ele>134</ele>
        <time>2016-03-27T08:00:07Z</time>
      </trkpt>
      <trkpt lat="46.93956" lon="-0.66107">
        <ele>139</ele>
        <time>2016-03-27T08:00:15Z</time>
      </trkpt>
      <trkpt lat="46.93955" lon="-0.66114">
        <ele>141</ele>
        <time>2016-03-27T08:00:37Z</time>
      </trkpt>
      <trkpt lat="46.93953" lon="-0.66137">
        <ele>140</ele>
        <time>2016-03-27T08:00:41Z</time>
      </trkpt>
      <trkpt lat="46.9395" lon="-0.66157">
        <ele>139</ele>
        <time>2016-03-27T08:00:45Z</time>
      </trkpt>
      <trkpt lat="46.93949" lon="-0.66177">
        <ele>141</ele>
        <time>2016-03-27T08:00:49Z</time>
      </trkpt>
      <trkpt lat="46.93947" lon="-0.66191">
        <ele>144</ele>
        <time>2016-03-27T08:00:53Z</time>
      </trkpt>
      <trkpt lat="46.93944" lon="-0.66218">
        <ele>145</ele>
        <time>2016-03-27T08:00:58Z</time>
      </trkpt>
      <trkpt lat="46.9394" lon="-0.66241">
        <ele>147</ele>
        <time>2016-03-27T08:01:03Z</time>
      </trkpt>
      <trkpt lat="46.93936" lon="-0.6626">
        <ele>144</ele>
        <time>2016-03-27T08:01:07Z</time>
      </trkpt>
      <trkpt lat="46.93934" lon="-0.66283">
        <ele>150</ele>
        <time>2016-03-27T08:01:12Z</time>
      </trkpt>
      <trkpt lat="46.93929" lon="-0.66297">
        <ele>151</ele>
        <time>2016-03-27T08:01:16Z</time>
      </trkpt>
      <trkpt lat="46.93928" lon="-0.66326">
        <ele>150</ele>
        <time>2016-03-27T08:01:21Z</time>
      </trkpt>
      <trkpt lat="46.93926" lon="-0.66352">
        <ele>148</ele>
        <time>2016-03-27T08:01:25Z</time>
      </trkpt>
      <trkpt lat="46.93923" lon="-0.66376">
        <ele>150</ele>
        <time>2016-03-27T08:01:30Z</time>
      </trkpt>
      <trkpt lat="46.93919" lon="-0.66405">
        <ele>150</ele>
        <time>2016-03-27T08:01:35Z</time>
      </trkpt>
      <trkpt lat="46.93917" lon="-0.66431">
        <ele>149</ele>
        <time>2016-03-27T08:01:39Z</time>
      </trkpt>
      <trkpt lat="46.93911" lon="-0.66458">
        <ele>150</ele>
        <time>2016-03-27T08:01:44Z</time>
      </trkpt>
      <trkpt lat="46.9391" lon="-0.66478">
        <ele>149</ele>
        <time>2016-03-27T08:01:48Z</time>
      </trkpt>
      <trkpt lat="46.93917" lon="-0.6649">
        <ele>150</ele>
        <time>2016-03-27T08:01:53Z</time>
      </trkpt>
      <trkpt lat="46.93932" lon="-0.66512">
        <ele>149</ele>
        <time>2016-03-27T08:01:57Z</time>
      </trkpt>
      <trkpt lat="46.93944" lon="-0.66531">
        <ele>144</ele>
        <time>2016-03-27T08:02:02Z</time>
      </trkpt>
      <trkpt lat="46.93954" lon="-0.66552">
        <ele>144</ele>
        <time>2016-03-27T08:02:06Z</time>
      </trkpt>
      <trkpt lat="46.93973" lon="-0.6657">
        <ele>147</ele>
        <time>2016-03-27T08:02:11Z</time>
      </trkpt>
      <trkpt lat="46.93991" lon="-0.6659">
        <ele>142</ele>
        <time>2016-03-27T08:02:15Z</time>
      </trkpt>
      <trkpt lat="46.94015" lon="-0.66617">
        <ele>145</ele>
        <time>2016-03-27T08:02:20Z</time>
      </trkpt>
      <trkpt lat="46.94041" lon="-0.66645">
        <ele>145</ele>
        <time>2016-03-27T08:02:25Z</time>
      </trkpt>
      <trkpt lat="46.9407" lon="-0.66675">
        <ele>146</ele>
        <time>2016-03-27T08:02:30Z</time>
      </trkpt>
      <trkpt lat="46.94079" lon="-0.66682">
        <ele>145</ele>
        <time>2016-03-27T08:02:34Z</time>
      </trkpt>
      <trkpt lat="46.94086" lon="-0.66686">
        <ele>141</ele>
        <time>2016-03-27T08:02:37Z</time>
      </trkpt>
      <trkpt lat="46.94091" lon="-0.66696">
        <ele>138</ele>
        <time>2016-03-27T08:02:47Z</time>
      </trkpt>
      <trkpt lat="46.94095" lon="-0.66703">
        <ele>136</ele>
        <time>2016-03-27T08:02:53Z</time>
      </trkpt>
      <trkpt lat="46.941" lon="-0.66716">
        <ele>135</ele>
        <time>2016-03-27T08:02:58Z</time>
      </trkpt>
      <trkpt lat="46.94111" lon="-0.6673">
        <ele>131</ele>
        <time>2016-03-27T08:03:02Z</time>
      </trkpt>
      <trkpt lat="46.94119" lon="-0.66738">
        <ele>132</ele>
        <time>2016-03-27T08:03:06Z</time>
      </trkpt>
      <trkpt lat="46.94132" lon="-0.66762">
        <ele>133</ele>
        <time>2016-03-27T08:03:10Z</time>
      </trkpt>
      <trkpt lat="46.94139" lon="-0.66775">
        <ele>136</ele>
        <time>2016-03-27T08:03:14Z</time>
      </trkpt>
      <trkpt lat="46.94149" lon="-0.66795">
        <ele>141</ele>
        <time>2016-03-27T08:03:18Z</time>
      </trkpt>
      <trkpt lat="46.9416" lon="-0.6681">
        <ele>144</ele>
        <time>2016-03-27T08:03:22Z</time>
      </trkpt>
      <trkpt lat="46.94174" lon="-0.66839">
        <ele>143</ele>
        <time>2016-03-27T08:03:27Z</time>
      </trkpt>
      <trkpt lat="46.9419" lon="-0.66859">
        <ele>144</ele>
        <time>2016-03-27T08:03:31Z</time>
      </trkpt>
      <trkpt lat="46.94207" lon="-0.6687">
        <ele>130</ele>
        <time>2016-03-27T08:03:36Z</time>
      </trkpt>
      <trkpt lat="46.94221" lon="-0.66879">
        <ele>128</ele>
        <time>2016-03-27T08:03:40Z</time>
      </trkpt>
      <trkpt lat="46.94225" lon="-0.66872">
        <ele>124</ele>
        <time>2016-03-27T08:03:45Z</time>
      </trkpt>
      <trkpt lat="46.94228" lon="-0.66852">
        <ele>113</ele>
        <time>2016-03-27T08:03:50Z</time>
      </trkpt>
      <trkpt lat="46.94226" lon="-0.66835">
        <ele>115</ele>
        <time>2016-03-27T08:03:55Z</time>
      </trkpt>
      <trkpt lat="46.94225" lon="-0.66821">
        <ele>113</ele>
        <time>2016-03-27T08:03:59Z</time>
      </trkpt>
      <trkpt lat="46.94227" lon="-0.668">
        <ele>113</ele>
        <time>2016-03-27T08:04:04Z</time>
      </trkpt>
      <trkpt lat="46.94224" lon="-0.66779">
        <ele>111</ele>
        <time>2016-03-27T08:04:08Z</time>
      </trkpt>
      <trkpt lat="46.94219" lon="-0.66756">
        <ele>111</ele>
        <time>2016-03-27T08:04:13Z</time>
      </trkpt>
      <trkpt lat="46.94218" lon="-0.66735">
        <ele>112</ele>
        <time>2016-03-27T08:04:17Z</time>
      </trkpt>
      <trkpt lat="46.94225" lon="-0.66726">
        <ele>110</ele>
        <time>2016-03-27T08:04:22Z</time>
      </trkpt>
      <trkpt lat="46.9423" lon="-0.6673">
        <ele>112</ele>
        <time>2016-03-27T08:04:28Z</time>
      </trkpt>
      <trkpt lat="46.94239" lon="-0.66725">
        <ele>109</ele>
        <time>2016-03-27T08:04:32Z</time>
      </trkpt>
      <trkpt lat="46.9425" lon="-0.66722">
        <ele>107</ele>
        <time>2016-03-27T08:04:36Z</time>
      </trkpt>
      <trkpt lat="46.94261" lon="-0.66727">
        <ele>115</ele>
        <time>2016-03-27T08:04:41Z</time>
      </trkpt>
      <trkpt lat="46.94269" lon="-0.66728">
        <ele>113</ele>
        <time>2016-03-27T08:04:46Z</time>
      </trkpt>
      <trkpt lat="46.94277" lon="-0.6672">
        <ele>115</ele>
        <time>2016-03-27T08:04:51Z</time>
      </trkpt>
      <trkpt lat="46.94276" lon="-0.66704">
        <ele>120</ele>
        <time>2016-03-27T08:04:55Z</time>
      </trkpt>
      <trkpt lat="46.94276" lon="-0.66686">
        <ele>119</ele>
        <time>2016-03-27T08:04:59Z</time>
      </trkpt>
      <trkpt lat="46.94277" lon="-0.6666">
        <ele>120</ele>
        <time>2016-03-27T08:05:03Z</time>
      </trkpt>
      <trkpt lat="46.94273" lon="-0.66621">
        <ele>120</ele>
        <time>2016-03-27T08:05:08Z</time>
      </trkpt>
      <trkpt lat="46.94279" lon="-0.66596">
        <ele>122</ele>
        <time>2016-03-27T08:05:12Z</time>
      </trkpt>
      <trkpt lat="46.94275" lon="-0.66561">
        <ele>123</ele>
        <time>2016-03-27T08:05:16Z</time>
      </trkpt>
      <trkpt lat="46.94277" lon="-0.66528">
        <ele>126</ele>
        <time>2016-03-27T08:05:21Z</time>
      </trkpt>
      <trkpt lat="46.94276" lon="-0.66502">
        <ele>124</ele>
        <time>2016-03-27T08:05:25Z</time>
      </trkpt>
      <trkpt lat="46.94279" lon="-0.66468">
        <ele>128</ele>
        <time>2016-03-27T08:05:30Z</time>
      </trkpt>
      <trkpt lat="46.94275" lon="-0.66439">
        <ele>129</ele>
        <time>2016-03-27T08:05:34Z</time>
      </trkpt>
      <trkpt lat="46.94271" lon="-0.6641">
        <ele>128</ele>
        <time>2016-03-27T08:05:38Z</time>
      </trkpt>
      <trkpt lat="46.9427" lon="-0.66379">
        <ele>130</ele>
        <time>2016-03-27T08:05:42Z</time>
      </trkpt>
      <trkpt lat="46.94273" lon="-0.66339">
        <ele>134</ele>
        <time>2016-03-27T08:05:47Z</time>
      </trkpt>
      <trkpt lat="46.94276" lon="-0.66308">
        <ele>133</ele>
        <time>2016-03-27T08:05:51Z</time>
      </trkpt>
      <trkpt lat="46.9428" lon="-0.66276">
        <ele>129</ele>
        <time>2016-03-27T08:05:55Z</time>
      </trkpt>
      <trkpt lat="46.94285" lon="-0.66243">
        <ele>126</ele>
        <time>2016-03-27T08:05:59Z</time>
      </trkpt>
      <trkpt lat="46.94299" lon="-0.662">
        <ele>121</ele>
        <time>2016-03-27T08:06:04Z</time>
      </trkpt>
      <trkpt lat="46.94303" lon="-0.66146">
        <ele>120</ele>
        <time>2016-03-27T08:06:09Z</time>
      </trkpt>
      <trkpt lat="46.94303" lon="-0.66116">
        <ele>124</ele>
        <time>2016-03-27T08:06:13Z</time>
      </trkpt>
      <trkpt lat="46.94304" lon="-0.66085">
        <ele>127</ele>
        <time>2016-03-27T08:06:17Z</time>
      </trkpt>
      <trkpt lat="46.94308" lon="-0.66055">
        <ele>125</ele>
        <time>2016-03-27T08:06:21Z</time>
      </trkpt>
      <trkpt lat="46.94311" lon="-0.66027">
        <ele>128</ele>
        <time>2016-03-27T08:06:25Z</time>
      </trkpt>
      <trkpt lat="46.94317" lon="-0.65985">
        <ele>124</ele>
        <time>2016-03-27T08:06:30Z</time>
      </trkpt>
      <trkpt lat="46.94325" lon="-0.65956">
        <ele>120</ele>
        <time>2016-03-27T08:06:34Z</time>
      </trkpt>
      <trkpt lat="46.9432" lon="-0.65933">
        <ele>120</ele>
        <time>2016-03-27T08:06:39Z</time>
      </trkpt>
      <trkpt lat="46.94324" lon="-0.65917">
        <ele>120</ele>
        <time>2016-03-27T08:06:43Z</time>
      </trkpt>
      <trkpt lat="46.94331" lon="-0.65907">
        <ele>119</ele>
        <time>2016-03-27T08:06:47Z</time>
      </trkpt>
      <trkpt lat="46.94334" lon="-0.65892">
        <ele>116</ele>
        <time>2016-03-27T08:06:51Z</time>
      </trkpt>
      <trkpt lat="46.94341" lon="-0.65875">
        <ele>113</ele>
        <time>2016-03-27T08:06:55Z</time>
      </trkpt>
      <trkpt lat="46.94354" lon="-0.65847">
        <ele>113</ele>
        <time>2016-03-27T08:06:59Z</time>
      </trkpt>
      <trkpt lat="46.94364" lon="-0.65826">
        <ele>111</ele>
        <time>2016-03-27T08:07:03Z</time>
      </trkpt>
      <trkpt lat="46.94372" lon="-0.65791">
        <ele>109</ele>
        <time>2016-03-27T08:07:08Z</time>
      </trkpt>
      <trkpt lat="46.94385" lon="-0.65767">
        <ele>108</ele>
        <time>2016-03-27T08:07:12Z</time>
      </trkpt>
      <trkpt lat="46.94402" lon="-0.65752">
        <ele>114</ele>
        <time>2016-03-27T08:07:16Z</time>
      </trkpt>
      <trkpt lat="46.94425" lon="-0.65735">
        <ele>116</ele>
        <time>2016-03-27T08:07:21Z</time>
      </trkpt>
      <trkpt lat="46.94446" lon="-0.65721">
        <ele>118</ele>
        <time>2016-03-27T08:07:25Z</time>
      </trkpt>
      <trkpt lat="46.94461" lon="-0.65712">
        <ele>117</ele>
        <time>2016-03-27T08:07:29Z</time>
      </trkpt>
      <trkpt lat="46.94481" lon="-0.65708">
        <ele>116</ele>
        <time>2016-03-27T08:07:33Z</time>
      </trkpt>
      <trkpt lat="46.94498" lon="-0.65702">
        <ele>118</ele>
        <time>2016-03-27T08:07:37Z</time>
      </trkpt>
      <trkpt lat="46.94516" lon="-0.65691">
        <ele>116</ele>
        <time>2016-03-27T08:07:41Z</time>
      </trkpt>
      <trkpt lat="46.94536" lon="-0.65679">
        <ele>114</ele>
        <time>2016-03-27T08:07:46Z</time>
      </trkpt>
      <trkpt lat="46.94563" lon="-0.65661">
        <ele>114</ele>
        <time>2016-03-27T08:07:51Z</time>
      </trkpt>
      <trkpt lat="46.94575" lon="-0.65653">
        <ele>114</ele>
        <time>2016-03-27T08:07:55Z</time>
      </trkpt>
      <trkpt lat="46.94593" lon="-0.65634">
        <ele>113</ele>
        <time>2016-03-27T08:07:59Z</time>
      </trkpt>
      <trkpt lat="46.94617" lon="-0.65608">
        <ele>113</ele>
        <time>2016-03-27T08:08:04Z</time>
      </trkpt>
      <trkpt lat="46.9463" lon="-0.6559">
        <ele>114</ele>
        <time>2016-03-27T08:08:07Z</time>
      </trkpt>
      <trkpt lat="46.94646" lon="-0.65573">
        <ele>114</ele>
        <time>2016-03-27T08:08:11Z</time>
      </trkpt>
      <trkpt lat="46.94658" lon="-0.65554">
        <ele>111</ele>
        <time>2016-03-27T08:08:15Z</time>
      </trkpt>
      <trkpt lat="46.94667" lon="-0.65534">
        <ele>112</ele>
        <time>2016-03-27T08:08:19Z</time>
      </trkpt>
      <trkpt lat="46.9468" lon="-0.65499">
        <ele>103</ele>
        <time>2016-03-27T08:08:24Z</time>
      </trkpt>
      <trkpt lat="46.9469" lon="-0.65473">
        <ele>105</ele>
        <time>2016-03-27T08:08:28Z</time>
      </trkpt>
      <trkpt lat="46.947" lon="-0.65436">
        <ele>103</ele>
        <time>2016-03-27T08:08:33Z</time>
      </trkpt>
      <trkpt lat="46.94706" lon="-0.65404">
        <ele>103</ele>
        <time>2016-03-27T08:08:37Z</time>
      </trkpt>
      <trkpt lat="46.94709" lon="-0.65378">
        <ele>104</ele>
        <time>2016-03-27T08:08:41Z</time>
      </trkpt>
      <trkpt lat="46.94712" lon="-0.65361">
        <ele>103</ele>
        <time>2016-03-27T08:08:46Z</time>
      </trkpt>
      <trkpt lat="46.94719" lon="-0.65341">
        <ele>104</ele>
        <time>2016-03-27T08:08:50Z</time>
      </trkpt>
      <trkpt lat="46.9473" lon="-0.6532">
        <ele>106</ele>
        <time>2016-03-27T08:08:54Z</time>
      </trkpt>
      <trkpt lat="46.94742" lon="-0.65299">
        <ele>105</ele>
        <time>2016-03-27T08:08:58Z</time>
      </trkpt>
      <trkpt lat="46.94757" lon="-0.65279">
        <ele>106</ele>
        <time>2016-03-27T08:09:03Z</time>
      </trkpt>
      <trkpt lat="46.94768" lon="-0.6526">
        <ele>102</ele>
        <time>2016-03-27T08:09:07Z</time>
      </trkpt>
      <trkpt lat="46.94775" lon="-0.65241">
        <ele>106</ele>
        <time>2016-03-27T08:09:11Z</time>
      </trkpt>
      <trkpt lat="46.94785" lon="-0.65211">
        <ele>104</ele>
        <time>2016-03-27T08:09:16Z</time>
      </trkpt>
      <trkpt lat="46.9479" lon="-0.65191">
        <ele>106</ele>
        <time>2016-03-27T08:09:20Z</time>
      </trkpt>
      <trkpt lat="46.94798" lon="-0.6517">
        <ele>110</ele>
        <time>2016-03-27T08:09:24Z</time>
      </trkpt>
      <trkpt lat="46.94793" lon="-0.65154">
        <ele>113</ele>
        <time>2016-03-27T08:09:28Z</time>
      </trkpt>
      <trkpt lat="46.94779" lon="-0.65141">
        <ele>109</ele>
        <time>2016-03-27T08:09:33Z</time>
      </trkpt>
      <trkpt lat="46.94766" lon="-0.65124">
        <ele>110</ele>
        <time>2016-03-27T08:09:37Z</time>
      </trkpt>
      <trkpt lat="46.94758" lon="-0.65122">
        <ele>112</ele>
        <time>2016-03-27T08:09:41Z</time>
      </trkpt>
      <trkpt lat="46.94749" lon="-0.65117">
        <ele>111</ele>
        <time>2016-03-27T08:09:46Z</time>
      </trkpt>
      <trkpt lat="46.9475" lon="-0.65106">
        <ele>121</ele>
        <time>2016-03-27T08:10:08Z</time>
      </trkpt>
      <trkpt lat="46.94738" lon="-0.65078">
        <ele>121</ele>
        <time>2016-03-27T08:10:13Z</time>
      </trkpt>
      <trkpt lat="46.94732" lon="-0.65054">
        <ele>125</ele>
        <time>2016-03-27T08:10:17Z</time>
      </trkpt>
      <trkpt lat="46.94725" lon="-0.65026">
        <ele>121</ele>
        <time>2016-03-27T08:10:21Z</time>
      </trkpt>
      <trkpt lat="46.94723" lon="-0.64996">
        <ele>121</ele>
        <time>2016-03-27T08:10:26Z</time>
      </trkpt>
      <trkpt lat="46.94719" lon="-0.64965">
        <ele>119</ele>
        <time>2016-03-27T08:10:30Z</time>
      </trkpt>
      <trkpt lat="46.94712" lon="-0.64933">
        <ele>117</ele>
        <time>2016-03-27T08:10:35Z</time>
      </trkpt>
      <trkpt lat="46.94708" lon="-0.6491">
        <ele>117</ele>
        <time>2016-03-27T08:10:39Z</time>
      </trkpt>
      <trkpt lat="46.94708" lon="-0.64879">
        <ele>118</ele>
        <time>2016-03-27T08:10:43Z</time>
      </trkpt>
      <trkpt lat="46.94711" lon="-0.64853">
        <ele>115</ele>
        <time>2016-03-27T08:10:47Z</time>
      </trkpt>
      <trkpt lat="46.94727" lon="-0.64824">
        <ele>111</ele>
        <time>2016-03-27T08:10:52Z</time>
      </trkpt>
      <trkpt lat="46.94738" lon="-0.64805">
        <ele>113</ele>
        <time>2016-03-27T08:10:57Z</time>
      </trkpt>
      <trkpt lat="46.94745" lon="-0.64809">
        <ele>120</ele>
        <time>2016-03-27T08:11:12Z</time>
      </trkpt>
      <trkpt lat="46.94758" lon="-0.64816">
        <ele>119</ele>
        <time>2016-03-27T08:11:16Z</time>
      </trkpt>
      <trkpt lat="46.94776" lon="-0.64822">
        <ele>119</ele>
        <time>2016-03-27T08:11:21Z</time>
      </trkpt>
      <trkpt lat="46.94791" lon="-0.64831">
        <ele>116</ele>
        <time>2016-03-27T08:11:25Z</time>
      </trkpt>
      <trkpt lat="46.94804" lon="-0.64837">
        <ele>119</ele>
        <time>2016-03-27T08:11:29Z</time>
      </trkpt>
      <trkpt lat="46.94817" lon="-0.64844">
        <ele>121</ele>
        <time>2016-03-27T08:11:34Z</time>
      </trkpt>
      <trkpt lat="46.94828" lon="-0.64848">
        <ele>121</ele>
        <time>2016-03-27T08:11:38Z</time>
      </trkpt>
      <trkpt lat="46.94841" lon="-0.64852">
        <ele>121</ele>
        <time>2016-03-27T08:11:43Z</time>
      </trkpt>
      <trkpt lat="46.94845" lon="-0.64862">
        <ele>122</ele>
        <time>2016-03-27T08:11:46Z</time>
      </trkpt>
      <trkpt lat="46.94852" lon="-0.64871">
        <ele>121</ele>
        <time>2016-03-27T08:11:50Z</time>
      </trkpt>
      <trkpt lat="46.9486" lon="-0.64878">
        <ele>119</ele>
        <time>2016-03-27T08:11:54Z</time>
      </trkpt>
      <trkpt lat="46.94866" lon="-0.64883">
        <ele>121</ele>
        <time>2016-03-27T08:11:58Z</time>
      </trkpt>
      <trkpt lat="46.94876" lon="-0.64884">
        <ele>119</ele>
        <time>2016-03-27T08:12:02Z</time>
      </trkpt>
      <trkpt lat="46.94884" lon="-0.6489">
        <ele>119</ele>
        <time>2016-03-27T08:12:06Z</time>
      </trkpt>
      <trkpt lat="46.94895" lon="-0.64891">
        <ele>119</ele>
        <time>2016-03-27T08:12:11Z</time>
      </trkpt>
      <trkpt lat="46.94904" lon="-0.64891">
        <ele>122</ele>
        <time>2016-03-27T08:12:15Z</time>
      </trkpt>
      <trkpt lat="46.94915" lon="-0.64892">
        <ele>123</ele>
        <time>2016-03-27T08:12:20Z</time>
      </trkpt>
      <trkpt lat="46.94925" lon="-0.6489">
        <ele>124</ele>
        <time>2016-03-27T08:12:24Z</time>
      </trkpt>
      <trkpt lat="46.94935" lon="-0.64882">
        <ele>119</ele>
        <time>2016-03-27T08:12:28Z</time>
      </trkpt>
      <trkpt lat="46.94945" lon="-0.64879">
        <ele>118</ele>
        <time>2016-03-27T08:12:32Z</time>
      </trkpt>
      <trkpt lat="46.94956" lon="-0.64872">
        <ele>119</ele>
        <time>2016-03-27T08:12:36Z</time>
      </trkpt>
      <trkpt lat="46.94969" lon="-0.64863">
        <ele>120</ele>
        <time>2016-03-27T08:12:41Z</time>
      </trkpt>
      <trkpt lat="46.94977" lon="-0.6486">
        <ele>117</ele>
        <time>2016-03-27T08:12:44Z</time>
      </trkpt>
      <trkpt lat="46.94988" lon="-0.64857">
        <ele>118</ele>
        <time>2016-03-27T08:12:48Z</time>
      </trkpt>
      <trkpt lat="46.95001" lon="-0.6485">
        <ele>119</ele>
        <time>2016-03-27T08:12:53Z</time>
      </trkpt>
      <trkpt lat="46.95014" lon="-0.64841">
        <ele>119</ele>
        <time>2016-03-27T08:12:57Z</time>
      </trkpt>
      <trkpt lat="46.95023" lon="-0.64837">
        <ele>120</ele>
        <time>2016-03-27T08:13:01Z</time>
      </trkpt>
      <trkpt lat="46.95033" lon="-0.6483">
        <ele>121</ele>
        <time>2016-03-27T08:13:05Z</time>
      </trkpt>
      <trkpt lat="46.95046" lon="-0.64821">
        <ele>117</ele>
        <time>2016-03-27T08:13:10Z</time>
      </trkpt>
      <trkpt lat="46.95058" lon="-0.64811">
        <ele>120</ele>
        <time>2016-03-27T08:13:14Z</time>
      </trkpt>
      <trkpt lat="46.95066" lon="-0.64802">
        <ele>126</ele>
        <time>2016-03-27T08:13:19Z</time>
      </trkpt>
      <trkpt lat="46.95072" lon="-0.64797">
        <ele>129</ele>
        <time>2016-03-27T08:13:23Z</time>
      </trkpt>
      <trkpt lat="46.95082" lon="-0.64791">
        <ele>131</ele>
        <time>2016-03-27T08:13:27Z</time>
      </trkpt>
      <trkpt lat="46.95089" lon="-0.64782">
        <ele>132</ele>
        <time>2016-03-27T08:13:32Z</time>
      </trkpt>
      <trkpt lat="46.95096" lon="-0.64777">
        <ele>132</ele>
        <time>2016-03-27T08:13:36Z</time>
      </trkpt>
      <trkpt lat="46.95103" lon="-0.64772">
        <ele>132</ele>
        <time>2016-03-27T08:13:40Z</time>
      </trkpt>
      <trkpt lat="46.9511" lon="-0.64766">
        <ele>133</ele>
        <time>2016-03-27T08:13:44Z</time>
      </trkpt>
      <trkpt lat="46.95119" lon="-0.64761">
        <ele>133</ele>
        <time>2016-03-27T08:13:48Z</time>
      </trkpt>
      <trkpt lat="46.9513" lon="-0.64753">
        <ele>132</ele>
        <time>2016-03-27T08:13:52Z</time>
      </trkpt>
      <trkpt lat="46.95136" lon="-0.64747">
        <ele>134</ele>
        <time>2016-03-27T08:13:56Z</time>
      </trkpt>
      <trkpt lat="46.95145" lon="-0.64736">
        <ele>135</ele>
        <time>2016-03-27T08:14:00Z</time>
      </trkpt>
      <trkpt lat="46.95153" lon="-0.64727">
        <ele>137</ele>
        <time>2016-03-27T08:14:04Z</time>
      </trkpt>
      <trkpt lat="46.95162" lon="-0.6472">
        <ele>140</ele>
        <time>2016-03-27T08:14:08Z</time>
      </trkpt>
      <trkpt lat="46.95169" lon="-0.64717">
        <ele>142</ele>
        <time>2016-03-27T08:14:12Z</time>
      </trkpt>
      <trkpt lat="46.95178" lon="-0.64711">
        <ele>140</ele>
        <time>2016-03-27T08:14:16Z</time>
      </trkpt>
      <trkpt lat="46.95186" lon="-0.64706">
        <ele>140</ele>
        <time>2016-03-27T08:14:20Z</time>
      </trkpt>
      <trkpt lat="46.95196" lon="-0.64698">
        <ele>140</ele>
        <time>2016-03-27T08:14:24Z</time>
      </trkpt>
      <trkpt lat="46.95208" lon="-0.6469">
        <ele>140</ele>
        <time>2016-03-27T08:14:29Z</time>
      </trkpt>
      <trkpt lat="46.95217" lon="-0.64683">
        <ele>142</ele>
        <time>2016-03-27T08:14:33Z</time>
      </trkpt>
      <trkpt lat="46.95229" lon="-0.64679">
        <ele>142</ele>
        <time>2016-03-27T08:14:37Z</time>
      </trkpt>
      <trkpt lat="46.95237" lon="-0.64672">
        <ele>144</ele>
        <time>2016-03-27T08:14:41Z</time>
      </trkpt>
      <trkpt lat="46.95248" lon="-0.64665">
        <ele>144</ele>
        <time>2016-03-27T08:14:45Z</time>
      </trkpt>
      <trkpt lat="46.95257" lon="-0.64659">
        <ele>146</ele>
        <time>2016-03-27T08:14:48Z</time>
      </trkpt>
      <trkpt lat="46.95268" lon="-0.64652">
        <ele>146</ele>
        <time>2016-03-27T08:14:52Z</time>
      </trkpt>
      <trkpt lat="46.95279" lon="-0.64646">
        <ele>148</ele>
        <time>2016-03-27T08:14:56Z</time>
      </trkpt>
      <trkpt lat="46.95298" lon="-0.64634">
        <ele>146</ele>
        <time>2016-03-27T08:15:01Z</time>
      </trkpt>
      <trkpt lat="46.95311" lon="-0.64627">
        <ele>146</ele>
        <time>2016-03-27T08:15:05Z</time>
      </trkpt>
      <trkpt lat="46.95322" lon="-0.64623">
        <ele>147</ele>
        <time>2016-03-27T08:15:09Z</time>
      </trkpt>
      <trkpt lat="46.95334" lon="-0.64614">
        <ele>143</ele>
        <time>2016-03-27T08:15:13Z</time>
      </trkpt>
      <trkpt lat="46.95348" lon="-0.64607">
        <ele>144</ele>
        <time>2016-03-27T08:15:17Z</time>
      </trkpt>
      <trkpt lat="46.95358" lon="-0.64599">
        <ele>147</ele>
        <time>2016-03-27T08:15:21Z</time>
      </trkpt>
      <trkpt lat="46.95372" lon="-0.6459">
        <ele>142</ele>
        <time>2016-03-27T08:15:25Z</time>
      </trkpt>
      <trkpt lat="46.95383" lon="-0.64582">
        <ele>140</ele>
        <time>2016-03-27T08:15:29Z</time>
      </trkpt>
      <trkpt lat="46.95392" lon="-0.64571">
        <ele>143</ele>
        <time>2016-03-27T08:15:33Z</time>
      </trkpt>
      <trkpt lat="46.95402" lon="-0.64572">
        <ele>144</ele>
        <time>2016-03-27T08:15:37Z</time>
      </trkpt>
      <trkpt lat="46.95411" lon="-0.64566">
        <ele>144</ele>
        <time>2016-03-27T08:15:40Z</time>
      </trkpt>
      <trkpt lat="46.95421" lon="-0.64559">
        <ele>148</ele>
        <time>2016-03-27T08:15:44Z</time>
      </trkpt>
      <trkpt lat="46.95439" lon="-0.6455">
        <ele>151</ele>
        <time>2016-03-27T08:15:48Z</time>
      </trkpt>
      <trkpt lat="46.95449" lon="-0.64547">
        <ele>154</ele>
        <time>2016-03-27T08:15:52Z</time>
      </trkpt>
      <trkpt lat="46.95457" lon="-0.6453">
        <ele>151</ele>
        <time>2016-03-27T08:15:56Z</time>
      </trkpt>
      <trkpt lat="46.95465" lon="-0.64516">
        <ele>156</ele>
        <time>2016-03-27T08:16:00Z</time>
      </trkpt>
      <trkpt lat="46.95473" lon="-0.64499">
        <ele>156</ele>
        <time>2016-03-27T08:16:04Z</time>
      </trkpt>
      <trkpt lat="46.95483" lon="-0.64482">
        <ele>155</ele>
        <time>2016-03-27T08:16:08Z</time>
      </trkpt>
      <trkpt lat="46.95493" lon="-0.64473">
        <ele>154</ele>
        <time>2016-03-27T08:16:12Z</time>
      </trkpt>
      <trkpt lat="46.95504" lon="-0.64461">
        <ele>156</ele>
        <time>2016-03-27T08:16:16Z</time>
      </trkpt>
      <trkpt lat="46.95517" lon="-0.64451">
        <ele>157</ele>
        <time>2016-03-27T08:16:20Z</time>
      </trkpt>
      <trkpt lat="46.95529" lon="-0.64439">
        <ele>158</ele>
        <time>2016-03-27T08:16:24Z</time>
      </trkpt>
      <trkpt lat="46.9554" lon="-0.64428">
        <ele>160</ele>
        <time>2016-03-27T08:16:28Z</time>
      </trkpt>
      <trkpt lat="46.95553" lon="-0.64417">
        <ele>159</ele>
        <time>2016-03-27T08:16:32Z</time>
      </trkpt>
      <trkpt lat="46.95566" lon="-0.64402">
        <ele>161</ele>
        <time>2016-03-27T08:16:36Z</time>
      </trkpt>
      <trkpt lat="46.9558" lon="-0.64389">
        <ele>163</ele>
        <time>2016-03-27T08:16:40Z</time>
      </trkpt>
      <trkpt lat="46.95593" lon="-0.64378">
        <ele>165</ele>
        <time>2016-03-27T08:16:44Z</time>
      </trkpt>
      <trkpt lat="46.95605" lon="-0.64368">
        <ele>164</ele>
        <time>2016-03-27T08:16:48Z</time>
      </trkpt>
      <trkpt lat="46.95612" lon="-0.64358">
        <ele>164</ele>
        <time>2016-03-27T08:16:53Z</time>
      </trkpt>
      <trkpt lat="46.95611" lon="-0.64347">
        <ele>164</ele>
        <time>2016-03-27T08:19:03Z</time>
      </trkpt>
      <trkpt lat="46.95602" lon="-0.64326">
        <ele>165</ele>
        <time>2016-03-27T08:19:08Z</time>
      </trkpt>
      <trkpt lat="46.95596" lon="-0.64317">
        <ele>166</ele>
        <time>2016-03-27T08:19:11Z</time>
      </trkpt>
      <trkpt lat="46.9559" lon="-0.64303">
        <ele>165</ele>
        <time>2016-03-27T08:19:15Z</time>
      </trkpt>
      <trkpt lat="46.95581" lon="-0.64287">
        <ele>166</ele>
        <time>2016-03-27T08:19:19Z</time>
      </trkpt>
      <trkpt lat="46.95572" lon="-0.64262">
        <ele>167</ele>
        <time>2016-03-27T08:19:24Z</time>
      </trkpt>
      <trkpt lat="46.95564" lon="-0.64248">
        <ele>167</ele>
        <time>2016-03-27T08:19:27Z</time>
      </trkpt>
      <trkpt lat="46.95551" lon="-0.64221">
        <ele>167</ele>
        <time>2016-03-27T08:19:32Z</time>
      </trkpt>
      <trkpt lat="46.95543" lon="-0.64197">
        <ele>168</ele>
        <time>2016-03-27T08:19:36Z</time>
      </trkpt>
      <trkpt lat="46.95534" lon="-0.64159">
        <ele>166</ele>
        <time>2016-03-27T08:19:41Z</time>
      </trkpt>
      <trkpt lat="46.95527" lon="-0.64116">
        <ele>165</ele>
        <time>2016-03-27T08:19:46Z</time>
      </trkpt>
      <trkpt lat="46.95519" lon="-0.64079">
        <ele>163</ele>
        <time>2016-03-27T08:19:50Z</time>
      </trkpt>
      <trkpt lat="46.95512" lon="-0.64044">
        <ele>159</ele>
        <time>2016-03-27T08:19:54Z</time>
      </trkpt>
      <trkpt lat="46.95505" lon="-0.63996">
        <ele>158</ele>
        <time>2016-03-27T08:19:59Z</time>
      </trkpt>
      <trkpt lat="46.95503" lon="-0.63959">
        <ele>159</ele>
        <time>2016-03-27T08:20:03Z</time>
      </trkpt>
      <trkpt lat="46.95503" lon="-0.63923">
        <ele>159</ele>
        <time>2016-03-27T08:20:07Z</time>
      </trkpt>
      <trkpt lat="46.95512" lon="-0.63887">
        <ele>156</ele>
        <time>2016-03-27T08:20:11Z</time>
      </trkpt>
      <trkpt lat="46.95533" lon="-0.63854">
        <ele>157</ele>
        <time>2016-03-27T08:20:15Z</time>
      </trkpt>
      <trkpt lat="46.95559" lon="-0.63812">
        <ele>157</ele>
        <time>2016-03-27T08:20:20Z</time>
      </trkpt>
      <trkpt lat="46.95566" lon="-0.63757">
        <ele>160</ele>
        <time>2016-03-27T08:20:25Z</time>
      </trkpt>
      <trkpt lat="46.95569" lon="-0.63711">
        <ele>159</ele>
        <time>2016-03-27T08:20:29Z</time>
      </trkpt>
      <trkpt lat="46.95569" lon="-0.63662">
        <ele>158</ele>
        <time>2016-03-27T08:20:33Z</time>
      </trkpt>
      <trkpt lat="46.95567" lon="-0.6361">
        <ele>155</ele>
        <time>2016-03-27T08:20:37Z</time>
      </trkpt>
      <trkpt lat="46.95565" lon="-0.63564">
        <ele>154</ele>
        <time>2016-03-27T08:20:41Z</time>
      </trkpt>
      <trkpt lat="46.95561" lon="-0.63517">
        <ele>152</ele>
        <time>2016-03-27T08:20:45Z</time>
      </trkpt>
      <trkpt lat="46.95553" lon="-0.63474">
        <ele>152</ele>
        <time>2016-03-27T08:20:49Z</time>
      </trkpt>
      <trkpt lat="46.95546" lon="-0.63428">
        <ele>150</ele>
        <time>2016-03-27T08:20:53Z</time>
      </trkpt>
      <trkpt lat="46.95537" lon="-0.63362">
        <ele>149</ele>
        <time>2016-03-27T08:20:58Z</time>
      </trkpt>
      <trkpt lat="46.95518" lon="-0.63311">
        <ele>146</ele>
        <time>2016-03-27T08:21:02Z</time>
      </trkpt>
      <trkpt lat="46.95491" lon="-0.63268">
        <ele>146</ele>
        <time>2016-03-27T08:21:06Z</time>
      </trkpt>
      <trkpt lat="46.95467" lon="-0.63236">
        <ele>148</ele>
        <time>2016-03-27T08:21:10Z</time>
      </trkpt>
      <trkpt lat="46.95447" lon="-0.63214">
        <ele>147</ele>
        <time>2016-03-27T08:21:14Z</time>
      </trkpt>
      <trkpt lat="46.95427" lon="-0.63195">
        <ele>147</ele>
        <time>2016-03-27T08:21:19Z</time>
      </trkpt>
      <trkpt lat="46.9542" lon="-0.63186">
        <ele>145</ele>
        <time>2016-03-27T08:21:22Z</time>
      </trkpt>
      <trkpt lat="46.95425" lon="-0.63185">
        <ele>145</ele>
        <time>2016-03-27T08:21:28Z</time>
      </trkpt>
      <trkpt lat="46.95441" lon="-0.63193">
        <ele>145</ele>
        <time>2016-03-27T08:21:32Z</time>
      </trkpt>
      <trkpt lat="46.95462" lon="-0.63181">
        <ele>141</ele>
        <time>2016-03-27T08:21:36Z</time>
      </trkpt>
      <trkpt lat="46.95477" lon="-0.63168">
        <ele>141</ele>
        <time>2016-03-27T08:21:40Z</time>
      </trkpt>
      <trkpt lat="46.95493" lon="-0.63154">
        <ele>138</ele>
        <time>2016-03-27T08:21:45Z</time>
      </trkpt>
      <trkpt lat="46.9551" lon="-0.63151">
        <ele>135</ele>
        <time>2016-03-27T08:21:49Z</time>
      </trkpt>
      <trkpt lat="46.95519" lon="-0.63151">
        <ele>133</ele>
        <time>2016-03-27T08:21:53Z</time>
      </trkpt>
      <trkpt lat="46.95529" lon="-0.63154">
        <ele>132</ele>
        <time>2016-03-27T08:21:57Z</time>
      </trkpt>
      <trkpt lat="46.9554" lon="-0.63154">
        <ele>131</ele>
        <time>2016-03-27T08:22:01Z</time>
      </trkpt>
      <trkpt lat="46.95547" lon="-0.6316">
        <ele>132</ele>
        <time>2016-03-27T08:22:07Z</time>
      </trkpt>
      <trkpt lat="46.95555" lon="-0.63161">
        <ele>131</ele>
        <time>2016-03-27T08:22:13Z</time>
      </trkpt>
      <trkpt lat="46.95563" lon="-0.63168">
        <ele>129</ele>
        <time>2016-03-27T08:22:19Z</time>
      </trkpt>
      <trkpt lat="46.95569" lon="-0.63163">
        <ele>128</ele>
        <time>2016-03-27T08:22:24Z</time>
      </trkpt>
      <trkpt lat="46.95582" lon="-0.63159">
        <ele>131</ele>
        <time>2016-03-27T08:22:29Z</time>
      </trkpt>
      <trkpt lat="46.95593" lon="-0.63161">
        <ele>127</ele>
        <time>2016-03-27T08:22:34Z</time>
      </trkpt>
      <trkpt lat="46.95607" lon="-0.63169">
        <ele>124</ele>
        <time>2016-03-27T08:22:39Z</time>
      </trkpt>
      <trkpt lat="46.95617" lon="-0.63173">
        <ele>125</ele>
        <time>2016-03-27T08:22:42Z</time>
      </trkpt>
      <trkpt lat="46.95632" lon="-0.63182">
        <ele>127</ele>
        <time>2016-03-27T08:22:47Z</time>
      </trkpt>
      <trkpt lat="46.95645" lon="-0.63187">
        <ele>128</ele>
        <time>2016-03-27T08:22:52Z</time>
      </trkpt>
      <trkpt lat="46.95658" lon="-0.63191">
        <ele>129</ele>
        <time>2016-03-27T08:22:56Z</time>
      </trkpt>
      <trkpt lat="46.95671" lon="-0.63182">
        <ele>127</ele>
        <time>2016-03-27T08:23:00Z</time>
      </trkpt>
      <trkpt lat="46.95682" lon="-0.63169">
        <ele>125</ele>
        <time>2016-03-27T08:23:04Z</time>
      </trkpt>
      <trkpt lat="46.95695" lon="-0.63153">
        <ele>124</ele>
        <time>2016-03-27T08:23:09Z</time>
      </trkpt>
      <trkpt lat="46.95702" lon="-0.63138">
        <ele>124</ele>
        <time>2016-03-27T08:23:13Z</time>
      </trkpt>
      <trkpt lat="46.95711" lon="-0.63125">
        <ele>128</ele>
        <time>2016-03-27T08:23:17Z</time>
      </trkpt>
      <trkpt lat="46.95721" lon="-0.63105">
        <ele>127</ele>
        <time>2016-03-27T08:23:21Z</time>
      </trkpt>
      <trkpt lat="46.95731" lon="-0.63087">
        <ele>130</ele>
        <time>2016-03-27T08:23:25Z</time>
      </trkpt>
      <trkpt lat="46.95741" lon="-0.63074">
        <ele>128</ele>
        <time>2016-03-27T08:23:29Z</time>
      </trkpt>
      <trkpt lat="46.95754" lon="-0.63059">
        <ele>129</ele>
        <time>2016-03-27T08:23:32Z</time>
      </trkpt>
      <trkpt lat="46.95769" lon="-0.63043">
        <ele>132</ele>
        <time>2016-03-27T08:23:37Z</time>
      </trkpt>
      <trkpt lat="46.9578" lon="-0.63023">
        <ele>127</ele>
        <time>2016-03-27T08:23:42Z</time>
      </trkpt>
      <trkpt lat="46.95794" lon="-0.63007">
        <ele>125</ele>
        <time>2016-03-27T08:23:46Z</time>
      </trkpt>
      <trkpt lat="46.95804" lon="-0.62992">
        <ele>129</ele>
        <time>2016-03-27T08:23:51Z</time>
      </trkpt>
      <trkpt lat="46.95812" lon="-0.62986">
        <ele>126</ele>
        <time>2016-03-27T08:23:56Z</time>
      </trkpt>
      <trkpt lat="46.95824" lon="-0.62976">
        <ele>125</ele>
        <time>2016-03-27T08:24:00Z</time>
      </trkpt>
      <trkpt lat="46.95832" lon="-0.62962">
        <ele>121</ele>
        <time>2016-03-27T08:24:04Z</time>
      </trkpt>
      <trkpt lat="46.95842" lon="-0.62956">
        <ele>123</ele>
        <time>2016-03-27T08:24:08Z</time>
      </trkpt>
      <trkpt lat="46.95854" lon="-0.62949">
        <ele>123</ele>
        <time>2016-03-27T08:24:13Z</time>
      </trkpt>
      <trkpt lat="46.95865" lon="-0.62942">
        <ele>127</ele>
        <time>2016-03-27T08:24:17Z</time>
      </trkpt>
      <trkpt lat="46.95878" lon="-0.62935">
        <ele>130</ele>
        <time>2016-03-27T08:24:21Z</time>
      </trkpt>
      <trkpt lat="46.95889" lon="-0.62928">
        <ele>129</ele>
        <time>2016-03-27T08:24:25Z</time>
      </trkpt>
      <trkpt lat="46.95902" lon="-0.62919">
        <ele>130</ele>
        <time>2016-03-27T08:24:30Z</time>
      </trkpt>
      <trkpt lat="46.95911" lon="-0.6291">
        <ele>130</ele>
        <time>2016-03-27T08:24:34Z</time>
      </trkpt>
      <trkpt lat="46.95925" lon="-0.62897">
        <ele>130</ele>
        <time>2016-03-27T08:24:38Z</time>
      </trkpt>
      <trkpt lat="46.95934" lon="-0.62895">
        <ele>131</ele>
        <time>2016-03-27T08:24:42Z</time>
      </trkpt>
      <trkpt lat="46.95944" lon="-0.62884">
        <ele>130</ele>
        <time>2016-03-27T08:24:46Z</time>
      </trkpt>
      <trkpt lat="46.95952" lon="-0.62879">
        <ele>134</ele>
        <time>2016-03-27T08:24:50Z</time>
      </trkpt>
      <trkpt lat="46.95964" lon="-0.62867">
        <ele>133</ele>
        <time>2016-03-27T08:24:55Z</time>
      </trkpt>
      <trkpt lat="46.95975" lon="-0.62857">
        <ele>132</ele>
        <time>2016-03-27T08:25:00Z</time>
      </trkpt>
      <trkpt lat="46.95983" lon="-0.62845">
        <ele>131</ele>
        <time>2016-03-27T08:25:04Z</time>
      </trkpt>
      <trkpt lat="46.95987" lon="-0.62826">
        <ele>130</ele>
        <time>2016-03-27T08:25:08Z</time>
      </trkpt>
      <trkpt lat="46.95993" lon="-0.62804">
        <ele>132</ele>
        <time>2016-03-27T08:25:13Z</time>
      </trkpt>
      <trkpt lat="46.96002" lon="-0.6278">
        <ele>128</ele>
        <time>2016-03-27T08:25:17Z</time>
      </trkpt>
      <trkpt lat="46.96006" lon="-0.62761">
        <ele>124</ele>
        <time>2016-03-27T08:25:21Z</time>
      </trkpt>
      <trkpt lat="46.9601" lon="-0.62743">
        <ele>125</ele>
        <time>2016-03-27T08:25:25Z</time>
      </trkpt>
      <trkpt lat="46.96017" lon="-0.6273">
        <ele>126</ele>
        <time>2016-03-27T08:25:29Z</time>
      </trkpt>
      <trkpt lat="46.9603" lon="-0.62723">
        <ele>129</ele>
        <time>2016-03-27T08:25:34Z</time>
      </trkpt>
      <trkpt lat="46.9604" lon="-0.62706">
        <ele>131</ele>
        <time>2016-03-27T08:25:39Z</time>
      </trkpt>
      <trkpt lat="46.9605" lon="-0.62691">
        <ele>131</ele>
        <time>2016-03-27T08:25:43Z</time>
      </trkpt>
      <trkpt lat="46.96059" lon="-0.62687">
        <ele>132</ele>
        <time>2016-03-27T08:25:47Z</time>
      </trkpt>
      <trkpt lat="46.96066" lon="-0.62675">
        <ele>133</ele>
        <time>2016-03-27T08:25:51Z</time>
      </trkpt>
      <trkpt lat="46.96076" lon="-0.62665">
        <ele>134</ele>
        <time>2016-03-27T08:25:55Z</time>
      </trkpt>
      <trkpt lat="46.96083" lon="-0.62655">
        <ele>131</ele>
        <time>2016-03-27T08:25:59Z</time>
      </trkpt>
      <trkpt lat="46.96089" lon="-0.62643">
        <ele>130</ele>
        <time>2016-03-27T08:26:04Z</time>
      </trkpt>
      <trkpt lat="46.96096" lon="-0.62626">
        <ele>131</ele>
        <time>2016-03-27T08:26:09Z</time>
      </trkpt>
      <trkpt lat="46.96102" lon="-0.62613">
        <ele>130</ele>
        <time>2016-03-27T08:26:13Z</time>
      </trkpt>
      <trkpt lat="46.9611" lon="-0.62612">
        <ele>131</ele>
        <time>2016-03-27T08:26:18Z</time>
      </trkpt>
      <trkpt lat="46.96125" lon="-0.62591">
        <ele>130</ele>
        <time>2016-03-27T08:26:23Z</time>
      </trkpt>
      <trkpt lat="46.96135" lon="-0.62576">
        <ele>132</ele>
        <time>2016-03-27T08:26:27Z</time>
      </trkpt>
      <trkpt lat="46.96144" lon="-0.62571">
        <ele>132</ele>
        <time>2016-03-27T08:26:31Z</time>
      </trkpt>
      <trkpt lat="46.96153" lon="-0.62564">
        <ele>133</ele>
        <time>2016-03-27T08:26:35Z</time>
      </trkpt>
      <trkpt lat="46.96168" lon="-0.62556">
        <ele>121</ele>
        <time>2016-03-27T08:26:40Z</time>
      </trkpt>
      <trkpt lat="46.96182" lon="-0.62539">
        <ele>122</ele>
        <time>2016-03-27T08:26:44Z</time>
      </trkpt>
      <trkpt lat="46.96197" lon="-0.62526">
        <ele>121</ele>
        <time>2016-03-27T08:26:48Z</time>
      </trkpt>
      <trkpt lat="46.9621" lon="-0.62505">
        <ele>119</ele>
        <time>2016-03-27T08:26:52Z</time>
      </trkpt>
      <trkpt lat="46.96217" lon="-0.62492">
        <ele>120</ele>
        <time>2016-03-27T08:26:56Z</time>
      </trkpt>
      <trkpt lat="46.96226" lon="-0.62484">
        <ele>122</ele>
        <time>2016-03-27T08:27:00Z</time>
      </trkpt>
      <trkpt lat="46.96234" lon="-0.62471">
        <ele>124</ele>
        <time>2016-03-27T08:27:04Z</time>
      </trkpt>
      <trkpt lat="46.96236" lon="-0.62461">
        <ele>134</ele>
        <time>2016-03-27T08:27:23Z</time>
      </trkpt>
      <trkpt lat="46.96249" lon="-0.62448">
        <ele>134</ele>
        <time>2016-03-27T08:27:28Z</time>
      </trkpt>
      <trkpt lat="46.96262" lon="-0.62434">
        <ele>134</ele>
        <time>2016-03-27T08:27:32Z</time>
      </trkpt>
      <trkpt lat="46.96281" lon="-0.62418">
        <ele>136</ele>
        <time>2016-03-27T08:27:37Z</time>
      </trkpt>
      <trkpt lat="46.963" lon="-0.62404">
        <ele>134</ele>
        <time>2016-03-27T08:27:41Z</time>
      </trkpt>
      <trkpt lat="46.96316" lon="-0.62388">
        <ele>136</ele>
        <time>2016-03-27T08:27:46Z</time>
      </trkpt>
      <trkpt lat="46.96331" lon="-0.62371">
        <ele>135</ele>
        <time>2016-03-27T08:27:50Z</time>
      </trkpt>
      <trkpt lat="46.9634" lon="-0.62361">
        <ele>132</ele>
        <time>2016-03-27T08:27:53Z</time>
      </trkpt>
      <trkpt lat="46.96352" lon="-0.62343">
        <ele>133</ele>
        <time>2016-03-27T08:27:57Z</time>
      </trkpt>
      <trkpt lat="46.96362" lon="-0.62323">
        <ele>134</ele>
        <time>2016-03-27T08:28:01Z</time>
      </trkpt>
      <trkpt lat="46.96369" lon="-0.62305">
        <ele>139</ele>
        <time>2016-03-27T08:28:05Z</time>
      </trkpt>
      <trkpt lat="46.96374" lon="-0.62285">
        <ele>138</ele>
        <time>2016-03-27T08:28:09Z</time>
      </trkpt>
      <trkpt lat="46.96379" lon="-0.62256">
        <ele>144</ele>
        <time>2016-03-27T08:28:14Z</time>
      </trkpt>
      <trkpt lat="46.96382" lon="-0.62237">
        <ele>143</ele>
        <time>2016-03-27T08:28:17Z</time>
      </trkpt>
      <trkpt lat="46.96389" lon="-0.62207">
        <ele>143</ele>
        <time>2016-03-27T08:28:22Z</time>
      </trkpt>
      <trkpt lat="46.96393" lon="-0.62194">
        <ele>143</ele>
        <time>2016-03-27T08:28:25Z</time>
      </trkpt>
      <trkpt lat="46.964" lon="-0.62175">
        <ele>142</ele>
        <time>2016-03-27T08:28:29Z</time>
      </trkpt>
      <trkpt lat="46.96405" lon="-0.62153">
        <ele>140</ele>
        <time>2016-03-27T08:28:33Z</time>
      </trkpt>
      <trkpt lat="46.96414" lon="-0.62134">
        <ele>142</ele>
        <time>2016-03-27T08:28:37Z</time>
      </trkpt>
      <trkpt lat="46.96431" lon="-0.62103">
        <ele>143</ele>
        <time>2016-03-27T08:28:42Z</time>
      </trkpt>
      <trkpt lat="46.96445" lon="-0.62073">
        <ele>144</ele>
        <time>2016-03-27T08:28:46Z</time>
      </trkpt>
      <trkpt lat="46.96458" lon="-0.62041">
        <ele>144</ele>
        <time>2016-03-27T08:28:51Z</time>
      </trkpt>
      <trkpt lat="46.96468" lon="-0.6201">
        <ele>141</ele>
        <time>2016-03-27T08:28:55Z</time>
      </trkpt>
      <trkpt lat="46.96481" lon="-0.61984">
        <ele>140</ele>
        <time>2016-03-27T08:28:59Z</time>
      </trkpt>
      <trkpt lat="46.96496" lon="-0.61957">
        <ele>139</ele>
        <time>2016-03-27T08:29:04Z</time>
      </trkpt>
      <trkpt lat="46.96507" lon="-0.6194">
        <ele>141</ele>
        <time>2016-03-27T08:29:07Z</time>
      </trkpt>
      <trkpt lat="46.96524" lon="-0.61919">
        <ele>137</ele>
        <time>2016-03-27T08:29:11Z</time>
      </trkpt>
      <trkpt lat="46.96542" lon="-0.61888">
        <ele>138</ele>
        <time>2016-03-27T08:29:15Z</time>
      </trkpt>
      <trkpt lat="46.96557" lon="-0.61863">
        <ele>138</ele>
        <time>2016-03-27T08:29:19Z</time>
      </trkpt>
      <trkpt lat="46.96569" lon="-0.6184">
        <ele>141</ele>
        <time>2016-03-27T08:29:23Z</time>
      </trkpt>
      <trkpt lat="46.96581" lon="-0.618">
        <ele>139</ele>
        <time>2016-03-27T08:29:28Z</time>
      </trkpt>
      <trkpt lat="46.96591" lon="-0.61769">
        <ele>139</ele>
        <time>2016-03-27T08:29:32Z</time>
      </trkpt>
      <trkpt lat="46.96605" lon="-0.61745">
        <ele>142</ele>
        <time>2016-03-27T08:29:36Z</time>
      </trkpt>
      <trkpt lat="46.96616" lon="-0.61718">
        <ele>143</ele>
        <time>2016-03-27T08:29:40Z</time>
      </trkpt>
      <trkpt lat="46.96628" lon="-0.61691">
        <ele>145</ele>
        <time>2016-03-27T08:29:44Z</time>
      </trkpt>
      <trkpt lat="46.96639" lon="-0.61666">
        <ele>144</ele>
        <time>2016-03-27T08:29:48Z</time>
      </trkpt>
      <trkpt lat="46.96649" lon="-0.61639">
        <ele>144</ele>
        <time>2016-03-27T08:29:52Z</time>
      </trkpt>
      <trkpt lat="46.96661" lon="-0.61613">
        <ele>147</ele>
        <time>2016-03-27T08:29:56Z</time>
      </trkpt>
      <trkpt lat="46.96673" lon="-0.61579">
        <ele>148</ele>
        <time>2016-03-27T08:30:01Z</time>
      </trkpt>
      <trkpt lat="46.96683" lon="-0.61557">
        <ele>150</ele>
        <time>2016-03-27T08:30:05Z</time>
      </trkpt>
      <trkpt lat="46.96676" lon="-0.6153">
        <ele>150</ele>
        <time>2016-03-27T08:30:09Z</time>
      </trkpt>
      <trkpt lat="46.96662" lon="-0.61512">
        <ele>153</ele>
        <time>2016-03-27T08:30:13Z</time>
      </trkpt>
      <trkpt lat="46.9665" lon="-0.61484">
        <ele>151</ele>
        <time>2016-03-27T08:30:18Z</time>
      </trkpt>
      <trkpt lat="46.96644" lon="-0.61465">
        <ele>150</ele>
        <time>2016-03-27T08:30:21Z</time>
      </trkpt>
      <trkpt lat="46.96639" lon="-0.61437">
        <ele>151</ele>
        <time>2016-03-27T08:30:25Z</time>
      </trkpt>
      <trkpt lat="46.96634" lon="-0.61409">
        <ele>151</ele>
        <time>2016-03-27T08:30:29Z</time>
      </trkpt>
      <trkpt lat="46.96632" lon="-0.6138">
        <ele>152</ele>
        <time>2016-03-27T08:30:33Z</time>
      </trkpt>
      <trkpt lat="46.96633" lon="-0.61354">
        <ele>154</ele>
        <time>2016-03-27T08:30:37Z</time>
      </trkpt>
      <trkpt lat="46.96633" lon="-0.61318">
        <ele>150</ele>
        <time>2016-03-27T08:30:41Z</time>
      </trkpt>
      <trkpt lat="46.96635" lon="-0.61293">
        <ele>149</ele>
        <time>2016-03-27T08:30:45Z</time>
      </trkpt>
      <trkpt lat="46.96637" lon="-0.61264">
        <ele>147</ele>
        <time>2016-03-27T08:30:49Z</time>
      </trkpt>
      <trkpt lat="46.96643" lon="-0.6123">
        <ele>148</ele>
        <time>2016-03-27T08:30:54Z</time>
      </trkpt>
      <trkpt lat="46.96649" lon="-0.61204">
        <ele>148</ele>
        <time>2016-03-27T08:30:58Z</time>
      </trkpt>
      <trkpt lat="46.96653" lon="-0.61175">
        <ele>148</ele>
        <time>2016-03-27T08:31:02Z</time>
      </trkpt>
      <trkpt lat="46.96655" lon="-0.61156">
        <ele>150</ele>
        <time>2016-03-27T08:31:06Z</time>
      </trkpt>
      <trkpt lat="46.96659" lon="-0.61133">
        <ele>151</ele>
        <time>2016-03-27T08:31:10Z</time>
      </trkpt>
      <trkpt lat="46.96662" lon="-0.61109">
        <ele>153</ele>
        <time>2016-03-27T08:31:14Z</time>
      </trkpt>
      <trkpt lat="46.96664" lon="-0.61088">
        <ele>157</ele>
        <time>2016-03-27T08:31:18Z</time>
      </trkpt>
      <trkpt lat="46.96666" lon="-0.61062">
        <ele>158</ele>
        <time>2016-03-27T08:31:22Z</time>
      </trkpt>
      <trkpt lat="46.96668" lon="-0.61043">
        <ele>157</ele>
        <time>2016-03-27T08:31:25Z</time>
      </trkpt>
      <trkpt lat="46.96668" lon="-0.61019">
        <ele>157</ele>
        <time>2016-03-27T08:31:29Z</time>
      </trkpt>
      <trkpt lat="46.9667" lon="-0.60996">
        <ele>157</ele>
        <time>2016-03-27T08:31:33Z</time>
      </trkpt>
      <trkpt lat="46.96666" lon="-0.60971">
        <ele>156</ele>
        <time>2016-03-27T08:31:38Z</time>
      </trkpt>
      <trkpt lat="46.96658" lon="-0.60953">
        <ele>157</ele>
        <time>2016-03-27T08:31:42Z</time>
      </trkpt>
      <trkpt lat="46.96664" lon="-0.60921">
        <ele>156</ele>
        <time>2016-03-27T08:31:47Z</time>
      </trkpt>
      <trkpt lat="46.96684" lon="-0.60915">
        <ele>156</ele>
        <time>2016-03-27T08:31:51Z</time>
      </trkpt>
      <trkpt lat="46.96702" lon="-0.60918">
        <ele>157</ele>
        <time>2016-03-27T08:31:55Z</time>
      </trkpt>
      <trkpt lat="46.96719" lon="-0.60911">
        <ele>156</ele>
        <time>2016-03-27T08:31:59Z</time>
      </trkpt>
      <trkpt lat="46.96736" lon="-0.60899">
        <ele>156</ele>
        <time>2016-03-27T08:32:03Z</time>
      </trkpt>
      <trkpt lat="46.9675" lon="-0.60888">
        <ele>155</ele>
        <time>2016-03-27T08:32:07Z</time>
      </trkpt>
      <trkpt lat="46.96767" lon="-0.60876">
        <ele>155</ele>
        <time>2016-03-27T08:32:11Z</time>
      </trkpt>
      <trkpt lat="46.96785" lon="-0.60869">
        <ele>156</ele>
        <time>2016-03-27T08:32:15Z</time>
      </trkpt>
      <trkpt lat="46.96805" lon="-0.60863">
        <ele>155</ele>
        <time>2016-03-27T08:32:19Z</time>
      </trkpt>
      <trkpt lat="46.96826" lon="-0.60861">
        <ele>155</ele>
        <time>2016-03-27T08:32:23Z</time>
      </trkpt>
      <trkpt lat="46.96845" lon="-0.60867">
        <ele>156</ele>
        <time>2016-03-27T08:32:27Z</time>
      </trkpt>
      <trkpt lat="46.96871" lon="-0.60879">
        <ele>156</ele>
        <time>2016-03-27T08:32:32Z</time>
      </trkpt>
      <trkpt lat="46.96896" lon="-0.60898">
        <ele>157</ele>
        <time>2016-03-27T08:32:37Z</time>
      </trkpt>
      <trkpt lat="46.96911" lon="-0.60916">
        <ele>158</ele>
        <time>2016-03-27T08:32:41Z</time>
      </trkpt>
      <trkpt lat="46.96929" lon="-0.60944">
        <ele>157</ele>
        <time>2016-03-27T08:32:45Z</time>
      </trkpt>
      <trkpt lat="46.96944" lon="-0.60946">
        <ele>156</ele>
        <time>2016-03-27T08:32:49Z</time>
      </trkpt>
      <trkpt lat="46.96964" lon="-0.60974">
        <ele>153</ele>
        <time>2016-03-27T08:32:53Z</time>
      </trkpt>
      <trkpt lat="46.96987" lon="-0.60995">
        <ele>154</ele>
        <time>2016-03-27T08:32:57Z</time>
      </trkpt>
      <trkpt lat="46.97012" lon="-0.61004">
        <ele>154</ele>
        <time>2016-03-27T08:33:01Z</time>
      </trkpt>
      <trkpt lat="46.97028" lon="-0.61005">
        <ele>159</ele>
        <time>2016-03-27T08:33:06Z</time>
      </trkpt>
      <trkpt lat="46.97041" lon="-0.60987">
        <ele>162</ele>
        <time>2016-03-27T08:33:10Z</time>
      </trkpt>
      <trkpt lat="46.9706" lon="-0.60958">
        <ele>159</ele>
        <time>2016-03-27T08:33:15Z</time>
      </trkpt>
      <trkpt lat="46.97082" lon="-0.60934">
        <ele>159</ele>
        <time>2016-03-27T08:33:20Z</time>
      </trkpt>
      <trkpt lat="46.97093" lon="-0.60907">
        <ele>156</ele>
        <time>2016-03-27T08:33:24Z</time>
      </trkpt>
      <trkpt lat="46.97101" lon="-0.60875">
        <ele>152</ele>
        <time>2016-03-27T08:33:29Z</time>
      </trkpt>
      <trkpt lat="46.97104" lon="-0.60864">
        <ele>153</ele>
        <time>2016-03-27T08:33:33Z</time>
      </trkpt>
      <trkpt lat="46.97104" lon="-0.60856">
        <ele>155</ele>
        <time>2016-03-27T08:33:37Z</time>
      </trkpt>
      <trkpt lat="46.97109" lon="-0.60839">
        <ele>152</ele>
        <time>2016-03-27T08:33:41Z</time>
      </trkpt>
      <trkpt lat="46.97115" lon="-0.6082">
        <ele>151</ele>
        <time>2016-03-27T08:33:45Z</time>
      </trkpt>
      <trkpt lat="46.97122" lon="-0.60798">
        <ele>152</ele>
        <time>2016-03-27T08:33:49Z</time>
      </trkpt>
      <trkpt lat="46.9713" lon="-0.60774">
        <ele>150</ele>
        <time>2016-03-27T08:33:53Z</time>
      </trkpt>
      <trkpt lat="46.97138" lon="-0.60747">
        <ele>150</ele>
        <time>2016-03-27T08:33:57Z</time>
      </trkpt>
      <trkpt lat="46.97147" lon="-0.60716">
        <ele>149</ele>
        <time>2016-03-27T08:34:01Z</time>
      </trkpt>
      <trkpt lat="46.97158" lon="-0.60682">
        <ele>147</ele>
        <time>2016-03-27T08:34:05Z</time>
      </trkpt>
      <trkpt lat="46.97165" lon="-0.60651">
        <ele>148</ele>
        <time>2016-03-27T08:34:09Z</time>
      </trkpt>
      <trkpt lat="46.97167" lon="-0.60621">
        <ele>148</ele>
        <time>2016-03-27T08:34:13Z</time>
      </trkpt>
      <trkpt lat="46.97167" lon="-0.60595">
        <ele>148</ele>
        <time>2016-03-27T08:34:17Z</time>
      </trkpt>
      <trkpt lat="46.9717" lon="-0.60572">
        <ele>146</ele>
        <time>2016-03-27T08:34:21Z</time>
      </trkpt>
      <trkpt lat="46.9718" lon="-0.60552">
        <ele>148</ele>
        <time>2016-03-27T08:34:25Z</time>
      </trkpt>
      <trkpt lat="46.97187" lon="-0.60523">
        <ele>148</ele>
        <time>2016-03-27T08:34:29Z</time>
      </trkpt>
      <trkpt lat="46.97199" lon="-0.60484">
        <ele>149</ele>
        <time>2016-03-27T08:34:34Z</time>
      </trkpt>
      <trkpt lat="46.97204" lon="-0.60453">
        <ele>146</ele>
        <time>2016-03-27T08:34:39Z</time>
      </trkpt>
      <trkpt lat="46.97217" lon="-0.60433">
        <ele>145</ele>
        <time>2016-03-27T08:34:43Z</time>
      </trkpt>
      <trkpt lat="46.9723" lon="-0.60415">
        <ele>146</ele>
        <time>2016-03-27T08:34:47Z</time>
      </trkpt>
      <trkpt lat="46.9724" lon="-0.60397">
        <ele>146</ele>
        <time>2016-03-27T08:34:51Z</time>
      </trkpt>
      <trkpt lat="46.97251" lon="-0.60376">
        <ele>149</ele>
        <time>2016-03-27T08:34:55Z</time>
      </trkpt>
      <trkpt lat="46.97264" lon="-0.60353">
        <ele>151</ele>
        <time>2016-03-27T08:34:59Z</time>
      </trkpt>
      <trkpt lat="46.97274" lon="-0.60331">
        <ele>154</ele>
        <time>2016-03-27T08:35:03Z</time>
      </trkpt>
      <trkpt lat="46.97285" lon="-0.60305">
        <ele>152</ele>
        <time>2016-03-27T08:35:07Z</time>
      </trkpt>
      <trkpt lat="46.97297" lon="-0.6028">
        <ele>150</ele>
        <time>2016-03-27T08:35:11Z</time>
      </trkpt>
      <trkpt lat="46.97306" lon="-0.60253">
        <ele>148</ele>
        <time>2016-03-27T08:35:15Z</time>
      </trkpt>
      <trkpt lat="46.97301" lon="-0.6023">
        <ele>148</ele>
        <time>2016-03-27T08:35:19Z</time>
      </trkpt>
      <trkpt lat="46.97293" lon="-0.60211">
        <ele>148</ele>
        <time>2016-03-27T08:35:23Z</time>
      </trkpt>
      <trkpt lat="46.97282" lon="-0.60193">
        <ele>147</ele>
        <time>2016-03-27T08:35:27Z</time>
      </trkpt>
      <trkpt lat="46.97277" lon="-0.60166">
        <ele>145</ele>
        <time>2016-03-27T08:35:31Z</time>
      </trkpt>
      <trkpt lat="46.97268" lon="-0.6014">
        <ele>143</ele>
        <time>2016-03-27T08:35:35Z</time>
      </trkpt>
      <trkpt lat="46.97253" lon="-0.60109">
        <ele>144</ele>
        <time>2016-03-27T08:35:40Z</time>
      </trkpt>
      <trkpt lat="46.97242" lon="-0.60091">
        <ele>142</ele>
        <time>2016-03-27T08:35:44Z</time>
      </trkpt>
      <trkpt lat="46.9727" lon="-0.60082">
        <ele>144</ele>
        <time>2016-03-27T08:35:49Z</time>
      </trkpt>
      <trkpt lat="46.97284" lon="-0.60061">
        <ele>143</ele>
        <time>2016-03-27T08:35:53Z</time>
      </trkpt>
      <trkpt lat="46.97293" lon="-0.60039">
        <ele>143</ele>
        <time>2016-03-27T08:35:56Z</time>
      </trkpt>
      <trkpt lat="46.97305" lon="-0.60012">
        <ele>142</ele>
        <time>2016-03-27T08:36:00Z</time>
      </trkpt>
      <trkpt lat="46.97316" lon="-0.59991">
        <ele>140</ele>
        <time>2016-03-27T08:36:04Z</time>
      </trkpt>
      <trkpt lat="46.97327" lon="-0.59973">
        <ele>143</ele>
        <time>2016-03-27T08:36:08Z</time>
      </trkpt>
      <trkpt lat="46.97335" lon="-0.59956">
        <ele>147</ele>
        <time>2016-03-27T08:36:12Z</time>
      </trkpt>
      <trkpt lat="46.97341" lon="-0.5994">
        <ele>147</ele>
        <time>2016-03-27T08:36:16Z</time>
      </trkpt>
      <trkpt lat="46.97346" lon="-0.5993">
        <ele>148</ele>
        <time>2016-03-27T08:36:20Z</time>
      </trkpt>
      <trkpt lat="46.97356" lon="-0.59912">
        <ele>145</ele>
        <time>2016-03-27T08:36:24Z</time>
      </trkpt>
      <trkpt lat="46.97363" lon="-0.59902">
        <ele>147</ele>
        <time>2016-03-27T08:36:28Z</time>
      </trkpt>
      <trkpt lat="46.97368" lon="-0.59888">
        <ele>149</ele>
        <time>2016-03-27T08:36:32Z</time>
      </trkpt>
      <trkpt lat="46.97371" lon="-0.59878">
        <ele>150</ele>
        <time>2016-03-27T08:36:36Z</time>
      </trkpt>
      <trkpt lat="46.9738" lon="-0.59861">
        <ele>145</ele>
        <time>2016-03-27T08:36:40Z</time>
      </trkpt>
      <trkpt lat="46.97386" lon="-0.59847">
        <ele>143</ele>
        <time>2016-03-27T08:36:44Z</time>
      </trkpt>
      <trkpt lat="46.97396" lon="-0.59826">
        <ele>143</ele>
        <time>2016-03-27T08:36:48Z</time>
      </trkpt>
      <trkpt lat="46.97405" lon="-0.59805">
        <ele>140</ele>
        <time>2016-03-27T08:36:52Z</time>
      </trkpt>
      <trkpt lat="46.97416" lon="-0.59785">
        <ele>140</ele>
        <time>2016-03-27T08:36:56Z</time>
      </trkpt>
      <trkpt lat="46.97428" lon="-0.59774">
        <ele>140</ele>
        <time>2016-03-27T08:37:00Z</time>
      </trkpt>
      <trkpt lat="46.9744" lon="-0.59763">
        <ele>139</ele>
        <time>2016-03-27T08:37:04Z</time>
      </trkpt>
      <trkpt lat="46.97454" lon="-0.59763">
        <ele>140</ele>
        <time>2016-03-27T08:37:09Z</time>
      </trkpt>
      <trkpt lat="46.97465" lon="-0.59758">
        <ele>139</ele>
        <time>2016-03-27T08:37:13Z</time>
      </trkpt>
      <trkpt lat="46.97476" lon="-0.59765">
        <ele>144</ele>
        <time>2016-03-27T08:37:17Z</time>
      </trkpt>
      <trkpt lat="46.97487" lon="-0.59772">
        <ele>148</ele>
        <time>2016-03-27T08:37:21Z</time>
      </trkpt>
      <trkpt lat="46.97494" lon="-0.59776">
        <ele>149</ele>
        <time>2016-03-27T08:37:25Z</time>
      </trkpt>
      <trkpt lat="46.97502" lon="-0.59774">
        <ele>150</ele>
        <time>2016-03-27T08:37:31Z</time>
      </trkpt>
      <trkpt lat="46.97504" lon="-0.59763">
        <ele>150</ele>
        <time>2016-03-27T08:37:34Z</time>
      </trkpt>
      <trkpt lat="46.97508" lon="-0.59744">
        <ele>148</ele>
        <time>2016-03-27T08:37:39Z</time>
      </trkpt>
      <trkpt lat="46.9751" lon="-0.59723">
        <ele>148</ele>
        <time>2016-03-27T08:37:43Z</time>
      </trkpt>
      <trkpt lat="46.97514" lon="-0.59703">
        <ele>145</ele>
        <time>2016-03-27T08:37:47Z</time>
      </trkpt>
      <trkpt lat="46.97515" lon="-0.59682">
        <ele>145</ele>
        <time>2016-03-27T08:37:51Z</time>
      </trkpt>
      <trkpt lat="46.97516" lon="-0.59661">
        <ele>142</ele>
        <time>2016-03-27T08:37:55Z</time>
      </trkpt>
      <trkpt lat="46.97517" lon="-0.59639">
        <ele>140</ele>
        <time>2016-03-27T08:37:59Z</time>
      </trkpt>
      <trkpt lat="46.97519" lon="-0.59627">
        <ele>142</ele>
        <time>2016-03-27T08:38:03Z</time>
      </trkpt>
      <trkpt lat="46.97528" lon="-0.59619">
        <ele>141</ele>
        <time>2016-03-27T08:38:07Z</time>
      </trkpt>
      <trkpt lat="46.9754" lon="-0.59614">
        <ele>142</ele>
        <time>2016-03-27T08:38:11Z</time>
      </trkpt>
      <trkpt lat="46.97551" lon="-0.59603">
        <ele>141</ele>
        <time>2016-03-27T08:38:15Z</time>
      </trkpt>
      <trkpt lat="46.97558" lon="-0.59584">
        <ele>142</ele>
        <time>2016-03-27T08:38:20Z</time>
      </trkpt>
      <trkpt lat="46.97557" lon="-0.59565">
        <ele>141</ele>
        <time>2016-03-27T08:38:24Z</time>
      </trkpt>
      <trkpt lat="46.97553" lon="-0.59542">
        <ele>141</ele>
        <time>2016-03-27T08:38:29Z</time>
      </trkpt>
      <trkpt lat="46.9755" lon="-0.59525">
        <ele>142</ele>
        <time>2016-03-27T08:38:33Z</time>
      </trkpt>
      <trkpt lat="46.97546" lon="-0.59512">
        <ele>144</ele>
        <time>2016-03-27T08:38:37Z</time>
      </trkpt>
      <trkpt lat="46.97544" lon="-0.59498">
        <ele>143</ele>
        <time>2016-03-27T08:38:41Z</time>
      </trkpt>
      <trkpt lat="46.97541" lon="-0.59484">
        <ele>141</ele>
        <time>2016-03-27T08:38:45Z</time>
      </trkpt>
      <trkpt lat="46.97536" lon="-0.59472">
        <ele>142</ele>
        <time>2016-03-27T08:38:49Z</time>
      </trkpt>
      <trkpt lat="46.97532" lon="-0.59456">
        <ele>140</ele>
        <time>2016-03-27T08:38:53Z</time>
      </trkpt>
      <trkpt lat="46.97527" lon="-0.59435">
        <ele>139</ele>
        <time>2016-03-27T08:38:57Z</time>
      </trkpt>
      <trkpt lat="46.97523" lon="-0.5941">
        <ele>138</ele>
        <time>2016-03-27T08:39:02Z</time>
      </trkpt>
      <trkpt lat="46.97523" lon="-0.59384">
        <ele>137</ele>
        <time>2016-03-27T08:39:07Z</time>
      </trkpt>
      <trkpt lat="46.97523" lon="-0.59362">
        <ele>137</ele>
        <time>2016-03-27T08:39:11Z</time>
      </trkpt>
      <trkpt lat="46.97524" lon="-0.59346">
        <ele>137</ele>
        <time>2016-03-27T08:39:15Z</time>
      </trkpt>
      <trkpt lat="46.97525" lon="-0.59332">
        <ele>139</ele>
        <time>2016-03-27T08:39:19Z</time>
      </trkpt>
      <trkpt lat="46.97524" lon="-0.59319">
        <ele>139</ele>
        <time>2016-03-27T08:39:23Z</time>
      </trkpt>
      <trkpt lat="46.97522" lon="-0.59297">
        <ele>141</ele>
        <time>2016-03-27T08:39:28Z</time>
      </trkpt>
      <trkpt lat="46.97521" lon="-0.59277">
        <ele>141</ele>
        <time>2016-03-27T08:39:32Z</time>
      </trkpt>
      <trkpt lat="46.97519" lon="-0.59258">
        <ele>141</ele>
        <time>2016-03-27T08:39:36Z</time>
      </trkpt>
      <trkpt lat="46.97516" lon="-0.59241">
        <ele>141</ele>
        <time>2016-03-27T08:39:40Z</time>
      </trkpt>
      <trkpt lat="46.97514" lon="-0.59221">
        <ele>142</ele>
        <time>2016-03-27T08:39:44Z</time>
      </trkpt>
      <trkpt lat="46.97512" lon="-0.592">
        <ele>142</ele>
        <time>2016-03-27T08:39:48Z</time>
      </trkpt>
      <trkpt lat="46.9751" lon="-0.59183">
        <ele>141</ele>
        <time>2016-03-27T08:39:52Z</time>
      </trkpt>
      <trkpt lat="46.97509" lon="-0.59166">
        <ele>140</ele>
        <time>2016-03-27T08:39:56Z</time>
      </trkpt>
      <trkpt lat="46.97513" lon="-0.59149">
        <ele>140</ele>
        <time>2016-03-27T08:40:00Z</time>
      </trkpt>
      <trkpt lat="46.97519" lon="-0.59129">
        <ele>142</ele>
        <time>2016-03-27T08:40:04Z</time>
      </trkpt>
      <trkpt lat="46.97525" lon="-0.59107">
        <ele>141</ele>
        <time>2016-03-27T08:40:08Z</time>
      </trkpt>
      <trkpt lat="46.9753" lon="-0.59087">
        <ele>141</ele>
        <time>2016-03-27T08:40:12Z</time>
      </trkpt>
      <trkpt lat="46.97535" lon="-0.59067">
        <ele>140</ele>
        <time>2016-03-27T08:40:16Z</time>
      </trkpt>
      <trkpt lat="46.9754" lon="-0.59044">
        <ele>139</ele>
        <time>2016-03-27T08:40:20Z</time>
      </trkpt>
      <trkpt lat="46.97544" lon="-0.59022">
        <ele>140</ele>
        <time>2016-03-27T08:40:24Z</time>
      </trkpt>
      <trkpt lat="46.97548" lon="-0.58996">
        <ele>140</ele>
        <time>2016-03-27T08:40:28Z</time>
      </trkpt>
      <trkpt lat="46.97552" lon="-0.5897">
        <ele>139</ele>
        <time>2016-03-27T08:40:32Z</time>
      </trkpt>
      <trkpt lat="46.97557" lon="-0.58941">
        <ele>136</ele>
        <time>2016-03-27T08:40:36Z</time>
      </trkpt>
      <trkpt lat="46.97561" lon="-0.58917">
        <ele>135</ele>
        <time>2016-03-27T08:40:40Z</time>
      </trkpt>
      <trkpt lat="46.97564" lon="-0.58902">
        <ele>135</ele>
        <time>2016-03-27T08:40:44Z</time>
      </trkpt>
      <trkpt lat="46.97571" lon="-0.5889">
        <ele>135</ele>
        <time>2016-03-27T08:40:48Z</time>
      </trkpt>
      <trkpt lat="46.97576" lon="-0.58869">
        <ele>135</ele>
        <time>2016-03-27T08:40:53Z</time>
      </trkpt>
      <trkpt lat="46.97575" lon="-0.58846">
        <ele>137</ele>
        <time>2016-03-27T08:40:57Z</time>
      </trkpt>
      <trkpt lat="46.97574" lon="-0.58821">
        <ele>137</ele>
        <time>2016-03-27T08:41:01Z</time>
      </trkpt>
      <trkpt lat="46.97573" lon="-0.58795">
        <ele>138</ele>
        <time>2016-03-27T08:41:05Z</time>
      </trkpt>
      <trkpt lat="46.97572" lon="-0.58767">
        <ele>138</ele>
        <time>2016-03-27T08:41:09Z</time>
      </trkpt>
      <trkpt lat="46.9757" lon="-0.58736">
        <ele>139</ele>
        <time>2016-03-27T08:41:13Z</time>
      </trkpt>
      <trkpt lat="46.97568" lon="-0.58707">
        <ele>140</ele>
        <time>2016-03-27T08:41:17Z</time>
      </trkpt>
      <trkpt lat="46.97566" lon="-0.58679">
        <ele>141</ele>
        <time>2016-03-27T08:41:21Z</time>
      </trkpt>
      <trkpt lat="46.97566" lon="-0.58651">
        <ele>140</ele>
        <time>2016-03-27T08:41:25Z</time>
      </trkpt>
      <trkpt lat="46.97566" lon="-0.58625">
        <ele>141</ele>
        <time>2016-03-27T08:41:29Z</time>
      </trkpt>
      <trkpt lat="46.97566" lon="-0.58597">
        <ele>141</ele>
        <time>2016-03-27T08:41:33Z</time>
      </trkpt>
      <trkpt lat="46.97565" lon="-0.58569">
        <ele>144</ele>
        <time>2016-03-27T08:41:37Z</time>
      </trkpt>
      <trkpt lat="46.97563" lon="-0.58542">
        <ele>143</ele>
        <time>2016-03-27T08:41:41Z</time>
      </trkpt>
      <trkpt lat="46.97561" lon="-0.58514">
        <ele>143</ele>
        <time>2016-03-27T08:41:45Z</time>
      </trkpt>
      <trkpt lat="46.97558" lon="-0.58483">
        <ele>140</ele>
        <time>2016-03-27T08:41:49Z</time>
      </trkpt>
      <trkpt lat="46.97552" lon="-0.58442">
        <ele>143</ele>
        <time>2016-03-27T08:41:54Z</time>
      </trkpt>
      <trkpt lat="46.97548" lon="-0.58414">
        <ele>141</ele>
        <time>2016-03-27T08:41:57Z</time>
      </trkpt>
      <trkpt lat="46.9754" lon="-0.58383">
        <ele>144</ele>
        <time>2016-03-27T08:42:01Z</time>
      </trkpt>
      <trkpt lat="46.97531" lon="-0.58354">
        <ele>142</ele>
        <time>2016-03-27T08:42:05Z</time>
      </trkpt>
      <trkpt lat="46.97525" lon="-0.58326">
        <ele>142</ele>
        <time>2016-03-27T08:42:09Z</time>
      </trkpt>
      <trkpt lat="46.97517" lon="-0.58296">
        <ele>143</ele>
        <time>2016-03-27T08:42:13Z</time>
      </trkpt>
      <trkpt lat="46.97507" lon="-0.58267">
        <ele>142</ele>
        <time>2016-03-27T08:42:17Z</time>
      </trkpt>
      <trkpt lat="46.97495" lon="-0.58239">
        <ele>142</ele>
        <time>2016-03-27T08:42:21Z</time>
      </trkpt>
      <trkpt lat="46.97487" lon="-0.58203">
        <ele>144</ele>
        <time>2016-03-27T08:42:26Z</time>
      </trkpt>
      <trkpt lat="46.97482" lon="-0.58181">
        <ele>143</ele>
        <time>2016-03-27T08:42:30Z</time>
      </trkpt>
      <trkpt lat="46.97485" lon="-0.5817">
        <ele>142</ele>
        <time>2016-03-27T08:43:16Z</time>
      </trkpt>
      <trkpt lat="46.97496" lon="-0.58154">
        <ele>142</ele>
        <time>2016-03-27T08:43:20Z</time>
      </trkpt>
      <trkpt lat="46.97504" lon="-0.58139">
        <ele>140</ele>
        <time>2016-03-27T08:43:24Z</time>
      </trkpt>
      <trkpt lat="46.97514" lon="-0.58124">
        <ele>140</ele>
        <time>2016-03-27T08:43:28Z</time>
      </trkpt>
      <trkpt lat="46.97524" lon="-0.58107">
        <ele>139</ele>
        <time>2016-03-27T08:43:32Z</time>
      </trkpt>
      <trkpt lat="46.97538" lon="-0.58092">
        <ele>141</ele>
        <time>2016-03-27T08:43:37Z</time>
      </trkpt>
      <trkpt lat="46.97548" lon="-0.58075">
        <ele>137</ele>
        <time>2016-03-27T08:43:42Z</time>
      </trkpt>
      <trkpt lat="46.97554" lon="-0.58062">
        <ele>135</ele>
        <time>2016-03-27T08:43:46Z</time>
      </trkpt>
      <trkpt lat="46.97565" lon="-0.58045">
        <ele>131</ele>
        <time>2016-03-27T08:43:50Z</time>
      </trkpt>
      <trkpt lat="46.97577" lon="-0.5803">
        <ele>132</ele>
        <time>2016-03-27T08:43:54Z</time>
      </trkpt>
      <trkpt lat="46.97595" lon="-0.58003">
        <ele>132</ele>
        <time>2016-03-27T08:43:59Z</time>
      </trkpt>
      <trkpt lat="46.97606" lon="-0.57983">
        <ele>131</ele>
        <time>2016-03-27T08:44:03Z</time>
      </trkpt>
      <trkpt lat="46.97619" lon="-0.57961">
        <ele>129</ele>
        <time>2016-03-27T08:44:07Z</time>
      </trkpt>
      <trkpt lat="46.9763" lon="-0.57936">
        <ele>128</ele>
        <time>2016-03-27T08:44:12Z</time>
      </trkpt>
      <trkpt lat="46.9762" lon="-0.57925">
        <ele>130</ele>
        <time>2016-03-27T08:44:16Z</time>
      </trkpt>
      <trkpt lat="46.97607" lon="-0.57913">
        <ele>131</ele>
        <time>2016-03-27T08:44:20Z</time>
      </trkpt>
      <trkpt lat="46.97591" lon="-0.57896">
        <ele>135</ele>
        <time>2016-03-27T08:44:24Z</time>
      </trkpt>
      <trkpt lat="46.97578" lon="-0.57877">
        <ele>134</ele>
        <time>2016-03-27T08:44:28Z</time>
      </trkpt>
      <trkpt lat="46.97561" lon="-0.57853">
        <ele>135</ele>
        <time>2016-03-27T08:44:33Z</time>
      </trkpt>
      <trkpt lat="46.9755" lon="-0.57833">
        <ele>138</ele>
        <time>2016-03-27T08:44:37Z</time>
      </trkpt>
      <trkpt lat="46.97541" lon="-0.57803">
        <ele>137</ele>
        <time>2016-03-27T08:44:42Z</time>
      </trkpt>
      <trkpt lat="46.97536" lon="-0.57776">
        <ele>137</ele>
        <time>2016-03-27T08:44:46Z</time>
      </trkpt>
      <trkpt lat="46.97531" lon="-0.57748">
        <ele>134</ele>
        <time>2016-03-27T08:44:50Z</time>
      </trkpt>
      <trkpt lat="46.9753" lon="-0.57723">
        <ele>140</ele>
        <time>2016-03-27T08:44:54Z</time>
      </trkpt>
      <trkpt lat="46.97524" lon="-0.57693">
        <ele>142</ele>
        <time>2016-03-27T08:44:58Z</time>
      </trkpt>
      <trkpt lat="46.97518" lon="-0.57659">
        <ele>142</ele>
        <time>2016-03-27T08:45:02Z</time>
      </trkpt>
      <trkpt lat="46.97511" lon="-0.5763">
        <ele>141</ele>
        <time>2016-03-27T08:45:06Z</time>
      </trkpt>
      <trkpt lat="46.97501" lon="-0.576">
        <ele>142</ele>
        <time>2016-03-27T08:45:10Z</time>
      </trkpt>
      <trkpt lat="46.97494" lon="-0.57563">
        <ele>141</ele>
        <time>2016-03-27T08:45:14Z</time>
      </trkpt>
      <trkpt lat="46.97483" lon="-0.57534">
        <ele>141</ele>
        <time>2016-03-27T08:45:18Z</time>
      </trkpt>
      <trkpt lat="46.97468" lon="-0.57502">
        <ele>138</ele>
        <time>2016-03-27T08:45:22Z</time>
      </trkpt>
      <trkpt lat="46.9746" lon="-0.57459">
        <ele>138</ele>
        <time>2016-03-27T08:45:27Z</time>
      </trkpt>
      <trkpt lat="46.97454" lon="-0.57426">
        <ele>138</ele>
        <time>2016-03-27T08:45:31Z</time>
      </trkpt>
      <trkpt lat="46.97447" lon="-0.57391">
        <ele>142</ele>
        <time>2016-03-27T08:45:35Z</time>
      </trkpt>
      <trkpt lat="46.97435" lon="-0.57361">
        <ele>140</ele>
        <time>2016-03-27T08:45:39Z</time>
      </trkpt>
      <trkpt lat="46.97427" lon="-0.57331">
        <ele>140</ele>
        <time>2016-03-27T08:45:43Z</time>
      </trkpt>
      <trkpt lat="46.97414" lon="-0.573">
        <ele>136</ele>
        <time>2016-03-27T08:45:47Z</time>
      </trkpt>
      <trkpt lat="46.97409" lon="-0.57273">
        <ele>137</ele>
        <time>2016-03-27T08:45:51Z</time>
      </trkpt>
      <trkpt lat="46.97403" lon="-0.5726">
        <ele>137</ele>
        <time>2016-03-27T08:45:55Z</time>
      </trkpt>
      <trkpt lat="46.97397" lon="-0.57252">
        <ele>137</ele>
        <time>2016-03-27T08:45:59Z</time>
      </trkpt>
      <trkpt lat="46.97396" lon="-0.57243">
        <ele>141</ele>
        <time>2016-03-27T08:46:03Z</time>
      </trkpt>
      <trkpt lat="46.97384" lon="-0.57224">
        <ele>140</ele>
        <time>2016-03-27T08:46:08Z</time>
      </trkpt>
      <trkpt lat="46.97374" lon="-0.57209">
        <ele>142</ele>
        <time>2016-03-27T08:46:12Z</time>
      </trkpt>
      <trkpt lat="46.97362" lon="-0.57189">
        <ele>142</ele>
        <time>2016-03-27T08:46:16Z</time>
      </trkpt>
      <trkpt lat="46.97353" lon="-0.57169">
        <ele>146</ele>
        <time>2016-03-27T08:46:21Z</time>
      </trkpt>
      <trkpt lat="46.97334" lon="-0.57156">
        <ele>146</ele>
        <time>2016-03-27T08:46:26Z</time>
      </trkpt>
      <trkpt lat="46.97318" lon="-0.57143">
        <ele>143</ele>
        <time>2016-03-27T08:46:30Z</time>
      </trkpt>
      <trkpt lat="46.97299" lon="-0.57125">
        <ele>145</ele>
        <time>2016-03-27T08:46:35Z</time>
      </trkpt>
      <trkpt lat="46.97287" lon="-0.57113">
        <ele>146</ele>
        <time>2016-03-27T08:46:39Z</time>
      </trkpt>
      <trkpt lat="46.97272" lon="-0.57101">
        <ele>146</ele>
        <time>2016-03-27T08:46:43Z</time>
      </trkpt>
      <trkpt lat="46.97251" lon="-0.57089">
        <ele>144</ele>
        <time>2016-03-27T08:46:47Z</time>
      </trkpt>
      <trkpt lat="46.97232" lon="-0.57068">
        <ele>140</ele>
        <time>2016-03-27T08:46:52Z</time>
      </trkpt>
      <trkpt lat="46.9723" lon="-0.57037">
        <ele>139</ele>
        <time>2016-03-27T08:46:57Z</time>
      </trkpt>
      <trkpt lat="46.97228" lon="-0.5701">
        <ele>142</ele>
        <time>2016-03-27T08:47:01Z</time>
      </trkpt>
      <trkpt lat="46.97222" lon="-0.56974">
        <ele>140</ele>
        <time>2016-03-27T08:47:06Z</time>
      </trkpt>
      <trkpt lat="46.97208" lon="-0.5695">
        <ele>134</ele>
        <time>2016-03-27T08:47:10Z</time>
      </trkpt>
      <trkpt lat="46.97202" lon="-0.5692">
        <ele>135</ele>
        <time>2016-03-27T08:47:15Z</time>
      </trkpt>
      <trkpt lat="46.97201" lon="-0.56889">
        <ele>142</ele>
        <time>2016-03-27T08:47:19Z</time>
      </trkpt>
      <trkpt lat="46.97206" lon="-0.56847">
        <ele>135</ele>
        <time>2016-03-27T08:47:24Z</time>
      </trkpt>
      <trkpt lat="46.97212" lon="-0.5682">
        <ele>138</ele>
        <time>2016-03-27T08:47:28Z</time>
      </trkpt>
      <trkpt lat="46.97213" lon="-0.56784">
        <ele>136</ele>
        <time>2016-03-27T08:47:33Z</time>
      </trkpt>
      <trkpt lat="46.97217" lon="-0.56759">
        <ele>137</ele>
        <time>2016-03-27T08:47:37Z</time>
      </trkpt>
      <trkpt lat="46.97221" lon="-0.56735">
        <ele>135</ele>
        <time>2016-03-27T08:47:41Z</time>
      </trkpt>
      <trkpt lat="46.97225" lon="-0.56714">
        <ele>134</ele>
        <time>2016-03-27T08:47:45Z</time>
      </trkpt>
      <trkpt lat="46.97226" lon="-0.56696">
        <ele>134</ele>
        <time>2016-03-27T08:47:49Z</time>
      </trkpt>
      <trkpt lat="46.97228" lon="-0.56682">
        <ele>134</ele>
        <time>2016-03-27T08:47:53Z</time>
      </trkpt>
      <trkpt lat="46.97227" lon="-0.5667">
        <ele>137</ele>
        <time>2016-03-27T08:47:57Z</time>
      </trkpt>
      <trkpt lat="46.97221" lon="-0.56663">
        <ele>136</ele>
        <time>2016-03-27T08:48:02Z</time>
      </trkpt>
      <trkpt lat="46.97213" lon="-0.56658">
        <ele>139</ele>
        <time>2016-03-27T08:48:06Z</time>
      </trkpt>
      <trkpt lat="46.97204" lon="-0.56655">
        <ele>140</ele>
        <time>2016-03-27T08:48:10Z</time>
      </trkpt>
      <trkpt lat="46.97198" lon="-0.5665">
        <ele>142</ele>
        <time>2016-03-27T08:48:14Z</time>
      </trkpt>
      <trkpt lat="46.97189" lon="-0.56646">
        <ele>142</ele>
        <time>2016-03-27T08:48:18Z</time>
      </trkpt>
      <trkpt lat="46.9718" lon="-0.56641">
        <ele>141</ele>
        <time>2016-03-27T08:48:23Z</time>
      </trkpt>
      <trkpt lat="46.97171" lon="-0.5664">
        <ele>141</ele>
        <time>2016-03-27T08:48:27Z</time>
      </trkpt>
      <trkpt lat="46.97164" lon="-0.56639">
        <ele>141</ele>
        <time>2016-03-27T08:48:33Z</time>
      </trkpt>
      <trkpt lat="46.97157" lon="-0.56636">
        <ele>140</ele>
        <time>2016-03-27T08:48:41Z</time>
      </trkpt>
      <trkpt lat="46.97149" lon="-0.56631">
        <ele>140</ele>
        <time>2016-03-27T08:48:46Z</time>
      </trkpt>
      <trkpt lat="46.97155" lon="-0.56629">
        <ele>139</ele>
        <time>2016-03-27T08:49:23Z</time>
      </trkpt>
      <trkpt lat="46.97164" lon="-0.56634">
        <ele>140</ele>
        <time>2016-03-27T08:49:27Z</time>
      </trkpt>
      <trkpt lat="46.97172" lon="-0.56636">
        <ele>143</ele>
        <time>2016-03-27T08:49:31Z</time>
      </trkpt>
      <trkpt lat="46.9718" lon="-0.5664">
        <ele>141</ele>
        <time>2016-03-27T08:49:35Z</time>
      </trkpt>
      <trkpt lat="46.97197" lon="-0.56646">
        <ele>141</ele>
        <time>2016-03-27T08:49:40Z</time>
      </trkpt>
      <trkpt lat="46.97205" lon="-0.56652">
        <ele>140</ele>
        <time>2016-03-27T08:49:45Z</time>
      </trkpt>
      <trkpt lat="46.97213" lon="-0.56658">
        <ele>136</ele>
        <time>2016-03-27T08:49:50Z</time>
      </trkpt>
      <trkpt lat="46.97221" lon="-0.56665">
        <ele>136</ele>
        <time>2016-03-27T08:49:55Z</time>
      </trkpt>
      <trkpt lat="46.97225" lon="-0.56678">
        <ele>139</ele>
        <time>2016-03-27T08:49:59Z</time>
      </trkpt>
      <trkpt lat="46.97223" lon="-0.56695">
        <ele>140</ele>
        <time>2016-03-27T08:50:04Z</time>
      </trkpt>
      <trkpt lat="46.97222" lon="-0.56707">
        <ele>141</ele>
        <time>2016-03-27T08:50:08Z</time>
      </trkpt>
      <trkpt lat="46.9722" lon="-0.56724">
        <ele>141</ele>
        <time>2016-03-27T08:50:12Z</time>
      </trkpt>
      <trkpt lat="46.97217" lon="-0.56739">
        <ele>139</ele>
        <time>2016-03-27T08:50:16Z</time>
      </trkpt>
      <trkpt lat="46.97216" lon="-0.56756">
        <ele>144</ele>
        <time>2016-03-27T08:50:20Z</time>
      </trkpt>
      <trkpt lat="46.97214" lon="-0.56778">
        <ele>142</ele>
        <time>2016-03-27T08:50:24Z</time>
      </trkpt>
      <trkpt lat="46.97216" lon="-0.56797">
        <ele>144</ele>
        <time>2016-03-27T08:50:28Z</time>
      </trkpt>
      <trkpt lat="46.97216" lon="-0.5682">
        <ele>145</ele>
        <time>2016-03-27T08:50:32Z</time>
      </trkpt>
      <trkpt lat="46.97214" lon="-0.56831">
        <ele>142</ele>
        <time>2016-03-27T08:50:36Z</time>
      </trkpt>
      <trkpt lat="46.97214" lon="-0.56851">
        <ele>143</ele>
        <time>2016-03-27T08:50:41Z</time>
      </trkpt>
      <trkpt lat="46.97213" lon="-0.56876">
        <ele>146</ele>
        <time>2016-03-27T08:50:46Z</time>
      </trkpt>
      <trkpt lat="46.97205" lon="-0.56885">
        <ele>147</ele>
        <time>2016-03-27T08:50:50Z</time>
      </trkpt>
      <trkpt lat="46.97204" lon="-0.56902">
        <ele>148</ele>
        <time>2016-03-27T08:50:54Z</time>
      </trkpt>
      <trkpt lat="46.97202" lon="-0.5692">
        <ele>146</ele>
        <time>2016-03-27T08:50:58Z</time>
      </trkpt>
      <trkpt lat="46.97207" lon="-0.56942">
        <ele>146</ele>
        <time>2016-03-27T08:51:02Z</time>
      </trkpt>
      <trkpt lat="46.97212" lon="-0.56966">
        <ele>144</ele>
        <time>2016-03-27T08:51:06Z</time>
      </trkpt>
      <trkpt lat="46.97225" lon="-0.56991">
        <ele>143</ele>
        <time>2016-03-27T08:51:10Z</time>
      </trkpt>
      <trkpt lat="46.97224" lon="-0.57013">
        <ele>145</ele>
        <time>2016-03-27T08:51:14Z</time>
      </trkpt>
      <trkpt lat="46.97222" lon="-0.57025">
        <ele>149</ele>
        <time>2016-03-27T08:51:18Z</time>
      </trkpt>
      <trkpt lat="46.97232" lon="-0.57058">
        <ele>148</ele>
        <time>2016-03-27T08:51:22Z</time>
      </trkpt>
      <trkpt lat="46.97241" lon="-0.57087">
        <ele>146</ele>
        <time>2016-03-27T08:51:26Z</time>
      </trkpt>
      <trkpt lat="46.97259" lon="-0.57089">
        <ele>141</ele>
        <time>2016-03-27T08:51:30Z</time>
      </trkpt>
      <trkpt lat="46.9727" lon="-0.57098">
        <ele>140</ele>
        <time>2016-03-27T08:51:34Z</time>
      </trkpt>
      <trkpt lat="46.97288" lon="-0.57113">
        <ele>135</ele>
        <time>2016-03-27T08:51:38Z</time>
      </trkpt>
      <trkpt lat="46.97307" lon="-0.57119">
        <ele>133</ele>
        <time>2016-03-27T08:51:42Z</time>
      </trkpt>
      <trkpt lat="46.97325" lon="-0.57133">
        <ele>133</ele>
        <time>2016-03-27T08:51:46Z</time>
      </trkpt>
      <trkpt lat="46.9734" lon="-0.57147">
        <ele>135</ele>
        <time>2016-03-27T08:51:50Z</time>
      </trkpt>
      <trkpt lat="46.97355" lon="-0.57166">
        <ele>131</ele>
        <time>2016-03-27T08:51:55Z</time>
      </trkpt>
      <trkpt lat="46.97368" lon="-0.57178">
        <ele>129</ele>
        <time>2016-03-27T08:51:59Z</time>
      </trkpt>
      <trkpt lat="46.97381" lon="-0.57199">
        <ele>131</ele>
        <time>2016-03-27T08:52:04Z</time>
      </trkpt>
      <trkpt lat="46.97388" lon="-0.57216">
        <ele>134</ele>
        <time>2016-03-27T08:52:08Z</time>
      </trkpt>
      <trkpt lat="46.97395" lon="-0.5723">
        <ele>137</ele>
        <time>2016-03-27T08:52:12Z</time>
      </trkpt>
      <trkpt lat="46.97404" lon="-0.57249">
        <ele>138</ele>
        <time>2016-03-27T08:52:16Z</time>
      </trkpt>
      <trkpt lat="46.97388" lon="-0.57263">
        <ele>142</ele>
        <time>2016-03-27T08:52:20Z</time>
      </trkpt>
      <trkpt lat="46.97374" lon="-0.57279">
        <ele>142</ele>
        <time>2016-03-27T08:52:24Z</time>
      </trkpt>
      <trkpt lat="46.97359" lon="-0.57293">
        <ele>142</ele>
        <time>2016-03-27T08:52:28Z</time>
      </trkpt>
      <trkpt lat="46.97345" lon="-0.57309">
        <ele>144</ele>
        <time>2016-03-27T08:52:32Z</time>
      </trkpt>
      <trkpt lat="46.9733" lon="-0.57322">
        <ele>147</ele>
        <time>2016-03-27T08:52:36Z</time>
      </trkpt>
      <trkpt lat="46.97313" lon="-0.57334">
        <ele>147</ele>
        <time>2016-03-27T08:52:40Z</time>
      </trkpt>
      <trkpt lat="46.97299" lon="-0.57347">
        <ele>150</ele>
        <time>2016-03-27T08:52:44Z</time>
      </trkpt>
      <trkpt lat="46.97282" lon="-0.57359">
        <ele>151</ele>
        <time>2016-03-27T08:52:48Z</time>
      </trkpt>
      <trkpt lat="46.97267" lon="-0.57375">
        <ele>152</ele>
        <time>2016-03-27T08:52:52Z</time>
      </trkpt>
      <trkpt lat="46.97251" lon="-0.5739">
        <ele>153</ele>
        <time>2016-03-27T08:52:56Z</time>
      </trkpt>
      <trkpt lat="46.97236" lon="-0.57403">
        <ele>155</ele>
        <time>2016-03-27T08:53:00Z</time>
      </trkpt>
      <trkpt lat="46.97218" lon="-0.57416">
        <ele>156</ele>
        <time>2016-03-27T08:53:04Z</time>
      </trkpt>
      <trkpt lat="46.97205" lon="-0.57434">
        <ele>158</ele>
        <time>2016-03-27T08:53:08Z</time>
      </trkpt>
      <trkpt lat="46.97184" lon="-0.57454">
        <ele>158</ele>
        <time>2016-03-27T08:53:13Z</time>
      </trkpt>
      <trkpt lat="46.97165" lon="-0.57469">
        <ele>159</ele>
        <time>2016-03-27T08:53:17Z</time>
      </trkpt>
      <trkpt lat="46.97146" lon="-0.57479">
        <ele>159</ele>
        <time>2016-03-27T08:53:21Z</time>
      </trkpt>
      <trkpt lat="46.97125" lon="-0.57502">
        <ele>154</ele>
        <time>2016-03-27T08:53:26Z</time>
      </trkpt>
      <trkpt lat="46.97109" lon="-0.57522">
        <ele>156</ele>
        <time>2016-03-27T08:53:30Z</time>
      </trkpt>
      <trkpt lat="46.97088" lon="-0.57532">
        <ele>157</ele>
        <time>2016-03-27T08:53:34Z</time>
      </trkpt>
      <trkpt lat="46.97068" lon="-0.57553">
        <ele>155</ele>
        <time>2016-03-27T08:53:38Z</time>
      </trkpt>
      <trkpt lat="46.97043" lon="-0.57574">
        <ele>157</ele>
        <time>2016-03-27T08:53:43Z</time>
      </trkpt>
      <trkpt lat="46.97025" lon="-0.57595">
        <ele>156</ele>
        <time>2016-03-27T08:53:47Z</time>
      </trkpt>
      <trkpt lat="46.97001" lon="-0.57605">
        <ele>156</ele>
        <time>2016-03-27T08:53:51Z</time>
      </trkpt>
      <trkpt lat="46.96982" lon="-0.57629">
        <ele>155</ele>
        <time>2016-03-27T08:53:55Z</time>
      </trkpt>
      <trkpt lat="46.96962" lon="-0.57646">
        <ele>156</ele>
        <time>2016-03-27T08:53:59Z</time>
      </trkpt>
      <trkpt lat="46.96941" lon="-0.5766">
        <ele>156</ele>
        <time>2016-03-27T08:54:03Z</time>
      </trkpt>
      <trkpt lat="46.96915" lon="-0.57674">
        <ele>159</ele>
        <time>2016-03-27T08:54:08Z</time>
      </trkpt>
      <trkpt lat="46.96894" lon="-0.57685">
        <ele>154</ele>
        <time>2016-03-27T08:54:12Z</time>
      </trkpt>
      <trkpt lat="46.9687" lon="-0.57706">
        <ele>156</ele>
        <time>2016-03-27T08:54:17Z</time>
      </trkpt>
      <trkpt lat="46.96852" lon="-0.57722">
        <ele>157</ele>
        <time>2016-03-27T08:54:21Z</time>
      </trkpt>
      <trkpt lat="46.96836" lon="-0.57737">
        <ele>157</ele>
        <time>2016-03-27T08:54:25Z</time>
      </trkpt>
      <trkpt lat="46.96818" lon="-0.57753">
        <ele>156</ele>
        <time>2016-03-27T08:54:29Z</time>
      </trkpt>
      <trkpt lat="46.96806" lon="-0.57765">
        <ele>155</ele>
        <time>2016-03-27T08:54:32Z</time>
      </trkpt>
      <trkpt lat="46.96797" lon="-0.57775">
        <ele>159</ele>
        <time>2016-03-27T08:54:35Z</time>
      </trkpt>
      <trkpt lat="46.96786" lon="-0.57786">
        <ele>160</ele>
        <time>2016-03-27T08:54:38Z</time>
      </trkpt>
      <trkpt lat="46.96764" lon="-0.578">
        <ele>164</ele>
        <time>2016-03-27T08:54:43Z</time>
      </trkpt>
      <trkpt lat="46.96749" lon="-0.57812">
        <ele>160</ele>
        <time>2016-03-27T08:54:47Z</time>
      </trkpt>
      <trkpt lat="46.96726" lon="-0.57827">
        <ele>158</ele>
        <time>2016-03-27T08:54:52Z</time>
      </trkpt>
      <trkpt lat="46.96699" lon="-0.57836">
        <ele>158</ele>
        <time>2016-03-27T08:54:57Z</time>
      </trkpt>
      <trkpt lat="46.9668" lon="-0.57848">
        <ele>153</ele>
        <time>2016-03-27T08:55:01Z</time>
      </trkpt>
      <trkpt lat="46.96667" lon="-0.57863">
        <ele>159</ele>
        <time>2016-03-27T08:55:05Z</time>
      </trkpt>
      <trkpt lat="46.96649" lon="-0.57878">
        <ele>162</ele>
        <time>2016-03-27T08:55:09Z</time>
      </trkpt>
      <trkpt lat="46.96627" lon="-0.57893">
        <ele>163</ele>
        <time>2016-03-27T08:55:14Z</time>
      </trkpt>
      <trkpt lat="46.96609" lon="-0.57903">
        <ele>165</ele>
        <time>2016-03-27T08:55:18Z</time>
      </trkpt>
      <trkpt lat="46.96591" lon="-0.57909">
        <ele>164</ele>
        <time>2016-03-27T08:55:22Z</time>
      </trkpt>
      <trkpt lat="46.96572" lon="-0.57917">
        <ele>163</ele>
        <time>2016-03-27T08:55:26Z</time>
      </trkpt>
      <trkpt lat="46.96553" lon="-0.57926">
        <ele>163</ele>
        <time>2016-03-27T08:55:30Z</time>
      </trkpt>
      <trkpt lat="46.96534" lon="-0.57942">
        <ele>160</ele>
        <time>2016-03-27T08:55:34Z</time>
      </trkpt>
      <trkpt lat="46.96513" lon="-0.57957">
        <ele>162</ele>
        <time>2016-03-27T08:55:39Z</time>
      </trkpt>
      <trkpt lat="46.96496" lon="-0.57969">
        <ele>160</ele>
        <time>2016-03-27T08:55:43Z</time>
      </trkpt>
      <trkpt lat="46.96481" lon="-0.57986">
        <ele>159</ele>
        <time>2016-03-27T08:55:47Z</time>
      </trkpt>
      <trkpt lat="46.96467" lon="-0.58003">
        <ele>159</ele>
        <time>2016-03-27T08:55:51Z</time>
      </trkpt>
      <trkpt lat="46.96451" lon="-0.5802">
        <ele>159</ele>
        <time>2016-03-27T08:55:55Z</time>
      </trkpt>
      <trkpt lat="46.96432" lon="-0.58044">
        <ele>155</ele>
        <time>2016-03-27T08:55:59Z</time>
      </trkpt>
      <trkpt lat="46.96415" lon="-0.58071">
        <ele>153</ele>
        <time>2016-03-27T08:56:04Z</time>
      </trkpt>
      <trkpt lat="46.96398" lon="-0.5809">
        <ele>152</ele>
        <time>2016-03-27T08:56:08Z</time>
      </trkpt>
      <trkpt lat="46.96378" lon="-0.58103">
        <ele>151</ele>
        <time>2016-03-27T08:56:12Z</time>
      </trkpt>
      <trkpt lat="46.96366" lon="-0.58125">
        <ele>149</ele>
        <time>2016-03-27T08:56:16Z</time>
      </trkpt>
      <trkpt lat="46.9635" lon="-0.5814">
        <ele>151</ele>
        <time>2016-03-27T08:56:20Z</time>
      </trkpt>
      <trkpt lat="46.96335" lon="-0.58152">
        <ele>149</ele>
        <time>2016-03-27T08:56:24Z</time>
      </trkpt>
      <trkpt lat="46.96319" lon="-0.58166">
        <ele>147</ele>
        <time>2016-03-27T08:56:28Z</time>
      </trkpt>
      <trkpt lat="46.96308" lon="-0.58181">
        <ele>151</ele>
        <time>2016-03-27T08:56:32Z</time>
      </trkpt>
      <trkpt lat="46.96289" lon="-0.58197">
        <ele>151</ele>
        <time>2016-03-27T08:56:37Z</time>
      </trkpt>
      <trkpt lat="46.96276" lon="-0.58203">
        <ele>148</ele>
        <time>2016-03-27T08:56:40Z</time>
      </trkpt>
      <trkpt lat="46.9626" lon="-0.58215">
        <ele>151</ele>
        <time>2016-03-27T08:56:44Z</time>
      </trkpt>
      <trkpt lat="46.96241" lon="-0.58225">
        <ele>149</ele>
        <time>2016-03-27T08:56:48Z</time>
      </trkpt>
      <trkpt lat="46.96224" lon="-0.58233">
        <ele>148</ele>
        <time>2016-03-27T08:56:52Z</time>
      </trkpt>
      <trkpt lat="46.96205" lon="-0.58239">
        <ele>149</ele>
        <time>2016-03-27T08:56:56Z</time>
      </trkpt>
      <trkpt lat="46.96187" lon="-0.58248">
        <ele>147</ele>
        <time>2016-03-27T08:57:00Z</time>
      </trkpt>
      <trkpt lat="46.96171" lon="-0.58258">
        <ele>148</ele>
        <time>2016-03-27T08:57:04Z</time>
      </trkpt>
      <trkpt lat="46.96157" lon="-0.58274">
        <ele>149</ele>
        <time>2016-03-27T08:57:08Z</time>
      </trkpt>
      <trkpt lat="46.96136" lon="-0.58281">
        <ele>153</ele>
        <time>2016-03-27T08:57:12Z</time>
      </trkpt>
      <trkpt lat="46.9612" lon="-0.58289">
        <ele>152</ele>
        <time>2016-03-27T08:57:16Z</time>
      </trkpt>
      <trkpt lat="46.96103" lon="-0.58295">
        <ele>154</ele>
        <time>2016-03-27T08:57:20Z</time>
      </trkpt>
      <trkpt lat="46.9609" lon="-0.58298">
        <ele>158</ele>
        <time>2016-03-27T08:57:24Z</time>
      </trkpt>
      <trkpt lat="46.96077" lon="-0.58304">
        <ele>162</ele>
        <time>2016-03-27T08:57:28Z</time>
      </trkpt>
      <trkpt lat="46.96067" lon="-0.58318">
        <ele>161</ele>
        <time>2016-03-27T08:57:32Z</time>
      </trkpt>
      <trkpt lat="46.96071" lon="-0.58346">
        <ele>154</ele>
        <time>2016-03-27T08:57:36Z</time>
      </trkpt>
      <trkpt lat="46.96088" lon="-0.58361">
        <ele>152</ele>
        <time>2016-03-27T08:57:40Z</time>
      </trkpt>
      <trkpt lat="46.96098" lon="-0.58375">
        <ele>153</ele>
        <time>2016-03-27T08:57:43Z</time>
      </trkpt>
      <trkpt lat="46.96119" lon="-0.58401">
        <ele>148</ele>
        <time>2016-03-27T08:57:48Z</time>
      </trkpt>
      <trkpt lat="46.96135" lon="-0.58422">
        <ele>145</ele>
        <time>2016-03-27T08:57:52Z</time>
      </trkpt>
      <trkpt lat="46.96149" lon="-0.58444">
        <ele>145</ele>
        <time>2016-03-27T08:57:56Z</time>
      </trkpt>
      <trkpt lat="46.96161" lon="-0.58468">
        <ele>144</ele>
        <time>2016-03-27T08:58:00Z</time>
      </trkpt>
      <trkpt lat="46.96174" lon="-0.58493">
        <ele>144</ele>
        <time>2016-03-27T08:58:04Z</time>
      </trkpt>
      <trkpt lat="46.96188" lon="-0.5852">
        <ele>146</ele>
        <time>2016-03-27T08:58:08Z</time>
      </trkpt>
      <trkpt lat="46.96203" lon="-0.58545">
        <ele>142</ele>
        <time>2016-03-27T08:58:12Z</time>
      </trkpt>
      <trkpt lat="46.96216" lon="-0.58573">
        <ele>141</ele>
        <time>2016-03-27T08:58:16Z</time>
      </trkpt>
      <trkpt lat="46.96233" lon="-0.58596">
        <ele>140</ele>
        <time>2016-03-27T08:58:20Z</time>
      </trkpt>
      <trkpt lat="46.96243" lon="-0.58636">
        <ele>139</ele>
        <time>2016-03-27T08:58:25Z</time>
      </trkpt>
      <trkpt lat="46.96253" lon="-0.58659">
        <ele>138</ele>
        <time>2016-03-27T08:58:29Z</time>
      </trkpt>
      <trkpt lat="46.96268" lon="-0.58699">
        <ele>139</ele>
        <time>2016-03-27T08:58:33Z</time>
      </trkpt>
      <trkpt lat="46.96285" lon="-0.58729">
        <ele>140</ele>
        <time>2016-03-27T08:58:38Z</time>
      </trkpt>
      <trkpt lat="46.963" lon="-0.58744">
        <ele>139</ele>
        <time>2016-03-27T08:58:42Z</time>
      </trkpt>
      <trkpt lat="46.96309" lon="-0.58768">
        <ele>136</ele>
        <time>2016-03-27T08:58:46Z</time>
      </trkpt>
      <trkpt lat="46.96319" lon="-0.58802">
        <ele>138</ele>
        <time>2016-03-27T08:58:50Z</time>
      </trkpt>
      <trkpt lat="46.96337" lon="-0.58825">
        <ele>137</ele>
        <time>2016-03-27T08:58:54Z</time>
      </trkpt>
      <trkpt lat="46.96354" lon="-0.58851">
        <ele>141</ele>
        <time>2016-03-27T08:58:58Z</time>
      </trkpt>
      <trkpt lat="46.96368" lon="-0.58884">
        <ele>139</ele>
        <time>2016-03-27T08:59:03Z</time>
      </trkpt>
      <trkpt lat="46.96377" lon="-0.58904">
        <ele>136</ele>
        <time>2016-03-27T08:59:07Z</time>
      </trkpt>
      <trkpt lat="46.96391" lon="-0.58937">
        <ele>140</ele>
        <time>2016-03-27T08:59:12Z</time>
      </trkpt>
      <trkpt lat="46.96397" lon="-0.58967">
        <ele>142</ele>
        <time>2016-03-27T08:59:16Z</time>
      </trkpt>
      <trkpt lat="46.96406" lon="-0.58991">
        <ele>143</ele>
        <time>2016-03-27T08:59:20Z</time>
      </trkpt>
      <trkpt lat="46.96414" lon="-0.59015">
        <ele>144</ele>
        <time>2016-03-27T08:59:24Z</time>
      </trkpt>
      <trkpt lat="46.96425" lon="-0.59038">
        <ele>141</ele>
        <time>2016-03-27T08:59:28Z</time>
      </trkpt>
      <trkpt lat="46.96433" lon="-0.59066">
        <ele>145</ele>
        <time>2016-03-27T08:59:32Z</time>
      </trkpt>
      <trkpt lat="46.96445" lon="-0.5909">
        <ele>143</ele>
        <time>2016-03-27T08:59:36Z</time>
      </trkpt>
      <trkpt lat="46.96452" lon="-0.59112">
        <ele>142</ele>
        <time>2016-03-27T08:59:40Z</time>
      </trkpt>
      <trkpt lat="46.9646" lon="-0.59144">
        <ele>144</ele>
        <time>2016-03-27T08:59:44Z</time>
      </trkpt>
      <trkpt lat="46.96461" lon="-0.59164">
        <ele>146</ele>
        <time>2016-03-27T08:59:48Z</time>
      </trkpt>
      <trkpt lat="46.96449" lon="-0.59182">
        <ele>148</ele>
        <time>2016-03-27T08:59:52Z</time>
      </trkpt>
      <trkpt lat="46.96426" lon="-0.59181">
        <ele>146</ele>
        <time>2016-03-27T08:59:56Z</time>
      </trkpt>
      <trkpt lat="46.964" lon="-0.5918">
        <ele>152</ele>
        <time>2016-03-27T09:00:00Z</time>
      </trkpt>
      <trkpt lat="46.96384" lon="-0.5917">
        <ele>151</ele>
        <time>2016-03-27T09:00:03Z</time>
      </trkpt>
      <trkpt lat="46.96353" lon="-0.59175">
        <ele>150</ele>
        <time>2016-03-27T09:00:08Z</time>
      </trkpt>
      <trkpt lat="46.96332" lon="-0.59178">
        <ele>150</ele>
        <time>2016-03-27T09:00:12Z</time>
      </trkpt>
      <trkpt lat="46.96313" lon="-0.59177">
        <ele>151</ele>
        <time>2016-03-27T09:00:15Z</time>
      </trkpt>
      <trkpt lat="46.96296" lon="-0.59175">
        <ele>152</ele>
        <time>2016-03-27T09:00:18Z</time>
      </trkpt>
      <trkpt lat="46.9627" lon="-0.59176">
        <ele>152</ele>
        <time>2016-03-27T09:00:23Z</time>
      </trkpt>
      <trkpt lat="46.96253" lon="-0.59176">
        <ele>154</ele>
        <time>2016-03-27T09:00:27Z</time>
      </trkpt>
      <trkpt lat="46.96231" lon="-0.59172">
        <ele>153</ele>
        <time>2016-03-27T09:00:31Z</time>
      </trkpt>
      <trkpt lat="46.9621" lon="-0.59176">
        <ele>154</ele>
        <time>2016-03-27T09:00:35Z</time>
      </trkpt>
      <trkpt lat="46.96187" lon="-0.59173">
        <ele>156</ele>
        <time>2016-03-27T09:00:39Z</time>
      </trkpt>
      <trkpt lat="46.96164" lon="-0.59177">
        <ele>161</ele>
        <time>2016-03-27T09:00:44Z</time>
      </trkpt>
      <trkpt lat="46.96139" lon="-0.59178">
        <ele>158</ele>
        <time>2016-03-27T09:00:48Z</time>
      </trkpt>
      <trkpt lat="46.96113" lon="-0.59178">
        <ele>158</ele>
        <time>2016-03-27T09:00:52Z</time>
      </trkpt>
      <trkpt lat="46.9609" lon="-0.59179">
        <ele>157</ele>
        <time>2016-03-27T09:00:56Z</time>
      </trkpt>
      <trkpt lat="46.96066" lon="-0.59179">
        <ele>156</ele>
        <time>2016-03-27T09:01:00Z</time>
      </trkpt>
      <trkpt lat="46.96049" lon="-0.59197">
        <ele>155</ele>
        <time>2016-03-27T09:01:04Z</time>
      </trkpt>
      <trkpt lat="46.96056" lon="-0.59229">
        <ele>154</ele>
        <time>2016-03-27T09:01:09Z</time>
      </trkpt>
      <trkpt lat="46.96061" lon="-0.59257">
        <ele>151</ele>
        <time>2016-03-27T09:01:13Z</time>
      </trkpt>
      <trkpt lat="46.96075" lon="-0.59286">
        <ele>148</ele>
        <time>2016-03-27T09:01:17Z</time>
      </trkpt>
      <trkpt lat="46.96093" lon="-0.59313">
        <ele>147</ele>
        <time>2016-03-27T09:01:21Z</time>
      </trkpt>
      <trkpt lat="46.96107" lon="-0.59342">
        <ele>147</ele>
        <time>2016-03-27T09:01:25Z</time>
      </trkpt>
      <trkpt lat="46.96118" lon="-0.59365">
        <ele>147</ele>
        <time>2016-03-27T09:01:29Z</time>
      </trkpt>
      <trkpt lat="46.96127" lon="-0.59392">
        <ele>144</ele>
        <time>2016-03-27T09:01:34Z</time>
      </trkpt>
      <trkpt lat="46.96144" lon="-0.59418">
        <ele>142</ele>
        <time>2016-03-27T09:01:38Z</time>
      </trkpt>
      <trkpt lat="46.96161" lon="-0.59452">
        <ele>141</ele>
        <time>2016-03-27T09:01:43Z</time>
      </trkpt>
      <trkpt lat="46.96167" lon="-0.59471">
        <ele>139</ele>
        <time>2016-03-27T09:01:47Z</time>
      </trkpt>
      <trkpt lat="46.96172" lon="-0.59488">
        <ele>139</ele>
        <time>2016-03-27T09:01:51Z</time>
      </trkpt>
      <trkpt lat="46.96183" lon="-0.59515">
        <ele>138</ele>
        <time>2016-03-27T09:01:55Z</time>
      </trkpt>
      <trkpt lat="46.96196" lon="-0.59547">
        <ele>140</ele>
        <time>2016-03-27T09:02:00Z</time>
      </trkpt>
      <trkpt lat="46.9622" lon="-0.59596">
        <ele>140</ele>
        <time>2016-03-27T09:02:04Z</time>
      </trkpt>
      <trkpt lat="46.9622" lon="-0.59611">
        <ele>140</ele>
        <time>2016-03-27T09:02:08Z</time>
      </trkpt>
      <trkpt lat="46.96222" lon="-0.59631">
        <ele>147</ele>
        <time>2016-03-27T09:02:12Z</time>
      </trkpt>
      <trkpt lat="46.96224" lon="-0.59646">
        <ele>147</ele>
        <time>2016-03-27T09:02:16Z</time>
      </trkpt>
      <trkpt lat="46.96236" lon="-0.5967">
        <ele>147</ele>
        <time>2016-03-27T09:02:20Z</time>
      </trkpt>
      <trkpt lat="46.9625" lon="-0.59687">
        <ele>148</ele>
        <time>2016-03-27T09:02:23Z</time>
      </trkpt>
      <trkpt lat="46.96257" lon="-0.5971">
        <ele>145</ele>
        <time>2016-03-27T09:02:27Z</time>
      </trkpt>
      <trkpt lat="46.96264" lon="-0.59731">
        <ele>141</ele>
        <time>2016-03-27T09:02:31Z</time>
      </trkpt>
      <trkpt lat="46.96277" lon="-0.59752">
        <ele>136</ele>
        <time>2016-03-27T09:02:35Z</time>
      </trkpt>
      <trkpt lat="46.96285" lon="-0.59782">
        <ele>138</ele>
        <time>2016-03-27T09:02:39Z</time>
      </trkpt>
      <trkpt lat="46.96293" lon="-0.59801">
        <ele>138</ele>
        <time>2016-03-27T09:02:43Z</time>
      </trkpt>
      <trkpt lat="46.96282" lon="-0.59805">
        <ele>136</ele>
        <time>2016-03-27T09:02:47Z</time>
      </trkpt>
      <trkpt lat="46.96269" lon="-0.59817">
        <ele>139</ele>
        <time>2016-03-27T09:02:51Z</time>
      </trkpt>
      <trkpt lat="46.9626" lon="-0.5982">
        <ele>143</ele>
        <time>2016-03-27T09:02:55Z</time>
      </trkpt>
      <trkpt lat="46.96253" lon="-0.59828">
        <ele>146</ele>
        <time>2016-03-27T09:03:13Z</time>
      </trkpt>
      <trkpt lat="46.96245" lon="-0.59835">
        <ele>164</ele>
        <time>2016-03-27T09:05:04Z</time>
      </trkpt>
      <trkpt lat="46.96237" lon="-0.59838">
        <ele>162</ele>
        <time>2016-03-27T09:05:32Z</time>
      </trkpt>
      <trkpt lat="46.96235" lon="-0.59851">
        <ele>155</ele>
        <time>2016-03-27T09:06:08Z</time>
      </trkpt>
      <trkpt lat="46.96239" lon="-0.59839">
        <ele>151</ele>
        <time>2016-03-27T09:07:45Z</time>
      </trkpt>
      <trkpt lat="46.96233" lon="-0.59831">
        <ele>155</ele>
        <time>2016-03-27T09:10:19Z</time>
      </trkpt>
      <trkpt lat="46.9624" lon="-0.59832">
        <ele>154</ele>
        <time>2016-03-27T09:11:15Z</time>
      </trkpt>
      <trkpt lat="46.96249" lon="-0.59832">
        <ele>149</ele>
        <time>2016-03-27T09:11:27Z</time>
      </trkpt>
      <trkpt lat="46.96256" lon="-0.59825">
        <ele>147</ele>
        <time>2016-03-27T09:11:34Z</time>
      </trkpt>
      <trkpt lat="46.96263" lon="-0.59822">
        <ele>152</ele>
        <time>2016-03-27T09:15:39Z</time>
      </trkpt>
      <trkpt lat="46.96269" lon="-0.59818">
        <ele>149</ele>
        <time>2016-03-27T09:15:43Z</time>
      </trkpt>
      <trkpt lat="46.9628" lon="-0.59804">
        <ele>148</ele>
        <time>2016-03-27T09:15:47Z</time>
      </trkpt>
      <trkpt lat="46.96284" lon="-0.59794">
        <ele>154</ele>
        <time>2016-03-27T09:15:51Z</time>
      </trkpt>
      <trkpt lat="46.96276" lon="-0.59775">
        <ele>154</ele>
        <time>2016-03-27T09:15:55Z</time>
      </trkpt>
      <trkpt lat="46.96266" lon="-0.59755">
        <ele>152</ele>
        <time>2016-03-27T09:15:59Z</time>
      </trkpt>
      <trkpt lat="46.96258" lon="-0.59726">
        <ele>151</ele>
        <time>2016-03-27T09:16:03Z</time>
      </trkpt>
      <trkpt lat="46.96246" lon="-0.59698">
        <ele>150</ele>
        <time>2016-03-27T09:16:07Z</time>
      </trkpt>
      <trkpt lat="46.96236" lon="-0.5967">
        <ele>150</ele>
        <time>2016-03-27T09:16:11Z</time>
      </trkpt>
      <trkpt lat="46.96227" lon="-0.59646">
        <ele>150</ele>
        <time>2016-03-27T09:16:15Z</time>
      </trkpt>
      <trkpt lat="46.96216" lon="-0.5962">
        <ele>149</ele>
        <time>2016-03-27T09:16:19Z</time>
      </trkpt>
      <trkpt lat="46.96205" lon="-0.59594">
        <ele>147</ele>
        <time>2016-03-27T09:16:23Z</time>
      </trkpt>
      <trkpt lat="46.96193" lon="-0.59566">
        <ele>147</ele>
        <time>2016-03-27T09:16:27Z</time>
      </trkpt>
      <trkpt lat="46.96178" lon="-0.59527">
        <ele>145</ele>
        <time>2016-03-27T09:16:32Z</time>
      </trkpt>
      <trkpt lat="46.96166" lon="-0.59493">
        <ele>146</ele>
        <time>2016-03-27T09:16:36Z</time>
      </trkpt>
      <trkpt lat="46.96151" lon="-0.59459">
        <ele>147</ele>
        <time>2016-03-27T09:16:40Z</time>
      </trkpt>
      <trkpt lat="46.96136" lon="-0.59419">
        <ele>146</ele>
        <time>2016-03-27T09:16:45Z</time>
      </trkpt>
      <trkpt lat="46.96124" lon="-0.59386">
        <ele>144</ele>
        <time>2016-03-27T09:16:49Z</time>
      </trkpt>
      <trkpt lat="46.96109" lon="-0.59342">
        <ele>144</ele>
        <time>2016-03-27T09:16:54Z</time>
      </trkpt>
      <trkpt lat="46.96096" lon="-0.59307">
        <ele>143</ele>
        <time>2016-03-27T09:16:58Z</time>
      </trkpt>
      <trkpt lat="46.96081" lon="-0.59262">
        <ele>143</ele>
        <time>2016-03-27T09:17:03Z</time>
      </trkpt>
      <trkpt lat="46.96066" lon="-0.59218">
        <ele>143</ele>
        <time>2016-03-27T09:17:08Z</time>
      </trkpt>
      <trkpt lat="46.96056" lon="-0.59186">
        <ele>142</ele>
        <time>2016-03-27T09:17:12Z</time>
      </trkpt>
      <trkpt lat="46.9605" lon="-0.59176">
        <ele>140</ele>
        <time>2016-03-27T09:17:17Z</time>
      </trkpt>
      <trkpt lat="46.96038" lon="-0.59176">
        <ele>145</ele>
        <time>2016-03-27T09:17:21Z</time>
      </trkpt>
      <trkpt lat="46.96013" lon="-0.59182">
        <ele>144</ele>
        <time>2016-03-27T09:17:25Z</time>
      </trkpt>
      <trkpt lat="46.95984" lon="-0.59181">
        <ele>144</ele>
        <time>2016-03-27T09:17:29Z</time>
      </trkpt>
      <trkpt lat="46.95961" lon="-0.59181">
        <ele>144</ele>
        <time>2016-03-27T09:17:33Z</time>
      </trkpt>
      <trkpt lat="46.95941" lon="-0.59178">
        <ele>143</ele>
        <time>2016-03-27T09:17:37Z</time>
      </trkpt>
      <trkpt lat="46.95917" lon="-0.59172">
        <ele>145</ele>
        <time>2016-03-27T09:17:41Z</time>
      </trkpt>
      <trkpt lat="46.959" lon="-0.59166">
        <ele>147</ele>
        <time>2016-03-27T09:17:45Z</time>
      </trkpt>
      <trkpt lat="46.95887" lon="-0.59159">
        <ele>147</ele>
        <time>2016-03-27T09:17:49Z</time>
      </trkpt>
      <trkpt lat="46.95865" lon="-0.59153">
        <ele>147</ele>
        <time>2016-03-27T09:17:53Z</time>
      </trkpt>
      <trkpt lat="46.95849" lon="-0.59148">
        <ele>147</ele>
        <time>2016-03-27T09:17:57Z</time>
      </trkpt>
      <trkpt lat="46.95831" lon="-0.59143">
        <ele>147</ele>
        <time>2016-03-27T09:18:01Z</time>
      </trkpt>
      <trkpt lat="46.95813" lon="-0.59134">
        <ele>146</ele>
        <time>2016-03-27T09:18:05Z</time>
      </trkpt>
      <trkpt lat="46.95799" lon="-0.59121">
        <ele>147</ele>
        <time>2016-03-27T09:18:09Z</time>
      </trkpt>
      <trkpt lat="46.95783" lon="-0.59113">
        <ele>150</ele>
        <time>2016-03-27T09:18:13Z</time>
      </trkpt>
      <trkpt lat="46.95766" lon="-0.59108">
        <ele>146</ele>
        <time>2016-03-27T09:18:17Z</time>
      </trkpt>
      <trkpt lat="46.9575" lon="-0.59105">
        <ele>145</ele>
        <time>2016-03-27T09:18:21Z</time>
      </trkpt>
      <trkpt lat="46.95733" lon="-0.59098">
        <ele>146</ele>
        <time>2016-03-27T09:18:26Z</time>
      </trkpt>
      <trkpt lat="46.95718" lon="-0.59092">
        <ele>149</ele>
        <time>2016-03-27T09:18:30Z</time>
      </trkpt>
      <trkpt lat="46.95704" lon="-0.59092">
        <ele>149</ele>
        <time>2016-03-27T09:18:34Z</time>
      </trkpt>
      <trkpt lat="46.95684" lon="-0.59088">
        <ele>146</ele>
        <time>2016-03-27T09:18:38Z</time>
      </trkpt>
      <trkpt lat="46.95666" lon="-0.59081">
        <ele>147</ele>
        <time>2016-03-27T09:18:42Z</time>
      </trkpt>
      <trkpt lat="46.95644" lon="-0.59082">
        <ele>147</ele>
        <time>2016-03-27T09:18:47Z</time>
      </trkpt>
      <trkpt lat="46.95626" lon="-0.59081">
        <ele>145</ele>
        <time>2016-03-27T09:18:51Z</time>
      </trkpt>
      <trkpt lat="46.95609" lon="-0.59067">
        <ele>148</ele>
        <time>2016-03-27T09:18:55Z</time>
      </trkpt>
      <trkpt lat="46.95594" lon="-0.59074">
        <ele>153</ele>
        <time>2016-03-27T09:18:59Z</time>
      </trkpt>
      <trkpt lat="46.95573" lon="-0.59072">
        <ele>154</ele>
        <time>2016-03-27T09:19:04Z</time>
      </trkpt>
      <trkpt lat="46.95553" lon="-0.59073">
        <ele>150</ele>
        <time>2016-03-27T09:19:09Z</time>
      </trkpt>
      <trkpt lat="46.95536" lon="-0.5907">
        <ele>145</ele>
        <time>2016-03-27T09:19:12Z</time>
      </trkpt>
      <trkpt lat="46.95526" lon="-0.59075">
        <ele>144</ele>
        <time>2016-03-27T09:19:16Z</time>
      </trkpt>
      <trkpt lat="46.95521" lon="-0.59071">
        <ele>142</ele>
        <time>2016-03-27T09:20:01Z</time>
      </trkpt>
      <trkpt lat="46.95511" lon="-0.59065">
        <ele>143</ele>
        <time>2016-03-27T09:20:05Z</time>
      </trkpt>
      <trkpt lat="46.95504" lon="-0.59045">
        <ele>143</ele>
        <time>2016-03-27T09:20:09Z</time>
      </trkpt>
      <trkpt lat="46.95497" lon="-0.59029">
        <ele>150</ele>
        <time>2016-03-27T09:20:14Z</time>
      </trkpt>
      <trkpt lat="46.9549" lon="-0.58999">
        <ele>151</ele>
        <time>2016-03-27T09:20:19Z</time>
      </trkpt>
      <trkpt lat="46.95488" lon="-0.58966">
        <ele>149</ele>
        <time>2016-03-27T09:20:23Z</time>
      </trkpt>
      <trkpt lat="46.95488" lon="-0.58935">
        <ele>149</ele>
        <time>2016-03-27T09:20:27Z</time>
      </trkpt>
      <trkpt lat="46.95482" lon="-0.58901">
        <ele>149</ele>
        <time>2016-03-27T09:20:31Z</time>
      </trkpt>
      <trkpt lat="46.95483" lon="-0.58877">
        <ele>151</ele>
        <time>2016-03-27T09:20:34Z</time>
      </trkpt>
      <trkpt lat="46.95471" lon="-0.58842">
        <ele>154</ele>
        <time>2016-03-27T09:20:39Z</time>
      </trkpt>
      <trkpt lat="46.95457" lon="-0.58815">
        <ele>155</ele>
        <time>2016-03-27T09:20:43Z</time>
      </trkpt>
      <trkpt lat="46.95442" lon="-0.58789">
        <ele>152</ele>
        <time>2016-03-27T09:20:47Z</time>
      </trkpt>
      <trkpt lat="46.95421" lon="-0.58767">
        <ele>148</ele>
        <time>2016-03-27T09:20:51Z</time>
      </trkpt>
      <trkpt lat="46.95404" lon="-0.58746">
        <ele>149</ele>
        <time>2016-03-27T09:20:55Z</time>
      </trkpt>
      <trkpt lat="46.95391" lon="-0.58722">
        <ele>151</ele>
        <time>2016-03-27T09:20:59Z</time>
      </trkpt>
      <trkpt lat="46.95374" lon="-0.58693">
        <ele>150</ele>
        <time>2016-03-27T09:21:03Z</time>
      </trkpt>
      <trkpt lat="46.95358" lon="-0.58667">
        <ele>152</ele>
        <time>2016-03-27T09:21:07Z</time>
      </trkpt>
      <trkpt lat="46.95339" lon="-0.58639">
        <ele>154</ele>
        <time>2016-03-27T09:21:11Z</time>
      </trkpt>
      <trkpt lat="46.95321" lon="-0.58612">
        <ele>155</ele>
        <time>2016-03-27T09:21:15Z</time>
      </trkpt>
      <trkpt lat="46.95305" lon="-0.58583">
        <ele>158</ele>
        <time>2016-03-27T09:21:19Z</time>
      </trkpt>
      <trkpt lat="46.95285" lon="-0.58555">
        <ele>157</ele>
        <time>2016-03-27T09:21:23Z</time>
      </trkpt>
      <trkpt lat="46.95267" lon="-0.5852">
        <ele>164</ele>
        <time>2016-03-27T09:21:28Z</time>
      </trkpt>
      <trkpt lat="46.95251" lon="-0.58491">
        <ele>163</ele>
        <time>2016-03-27T09:21:32Z</time>
      </trkpt>
      <trkpt lat="46.95237" lon="-0.58461">
        <ele>159</ele>
        <time>2016-03-27T09:21:36Z</time>
      </trkpt>
      <trkpt lat="46.95225" lon="-0.58434">
        <ele>158</ele>
        <time>2016-03-27T09:21:40Z</time>
      </trkpt>
      <trkpt lat="46.95214" lon="-0.58405">
        <ele>158</ele>
        <time>2016-03-27T09:21:44Z</time>
      </trkpt>
      <trkpt lat="46.952" lon="-0.58378">
        <ele>158</ele>
        <time>2016-03-27T09:21:48Z</time>
      </trkpt>
      <trkpt lat="46.95184" lon="-0.58352">
        <ele>156</ele>
        <time>2016-03-27T09:21:52Z</time>
      </trkpt>
      <trkpt lat="46.95169" lon="-0.5833">
        <ele>155</ele>
        <time>2016-03-27T09:21:56Z</time>
      </trkpt>
      <trkpt lat="46.9515" lon="-0.58304">
        <ele>153</ele>
        <time>2016-03-27T09:22:00Z</time>
      </trkpt>
      <trkpt lat="46.95126" lon="-0.5828">
        <ele>153</ele>
        <time>2016-03-27T09:22:04Z</time>
      </trkpt>
      <trkpt lat="46.951" lon="-0.58258">
        <ele>152</ele>
        <time>2016-03-27T09:22:08Z</time>
      </trkpt>
      <trkpt lat="46.95076" lon="-0.58234">
        <ele>150</ele>
        <time>2016-03-27T09:22:12Z</time>
      </trkpt>
      <trkpt lat="46.95052" lon="-0.5821">
        <ele>149</ele>
        <time>2016-03-27T09:22:16Z</time>
      </trkpt>
      <trkpt lat="46.95037" lon="-0.58192">
        <ele>151</ele>
        <time>2016-03-27T09:22:20Z</time>
      </trkpt>
      <trkpt lat="46.95021" lon="-0.58177">
        <ele>149</ele>
        <time>2016-03-27T09:22:24Z</time>
      </trkpt>
      <trkpt lat="46.95005" lon="-0.58158">
        <ele>148</ele>
        <time>2016-03-27T09:22:28Z</time>
      </trkpt>
      <trkpt lat="46.94987" lon="-0.58138">
        <ele>147</ele>
        <time>2016-03-27T09:22:32Z</time>
      </trkpt>
      <trkpt lat="46.94973" lon="-0.58124">
        <ele>151</ele>
        <time>2016-03-27T09:22:36Z</time>
      </trkpt>
      <trkpt lat="46.94957" lon="-0.58106">
        <ele>152</ele>
        <time>2016-03-27T09:22:40Z</time>
      </trkpt>
      <trkpt lat="46.94929" lon="-0.58094">
        <ele>148</ele>
        <time>2016-03-27T09:22:45Z</time>
      </trkpt>
      <trkpt lat="46.94908" lon="-0.58122">
        <ele>148</ele>
        <time>2016-03-27T09:22:49Z</time>
      </trkpt>
      <trkpt lat="46.94884" lon="-0.58147">
        <ele>149</ele>
        <time>2016-03-27T09:22:53Z</time>
      </trkpt>
      <trkpt lat="46.94863" lon="-0.58175">
        <ele>147</ele>
        <time>2016-03-27T09:22:57Z</time>
      </trkpt>
      <trkpt lat="46.94838" lon="-0.58203">
        <ele>149</ele>
        <time>2016-03-27T09:23:01Z</time>
      </trkpt>
      <trkpt lat="46.9482" lon="-0.58226">
        <ele>150</ele>
        <time>2016-03-27T09:23:05Z</time>
      </trkpt>
      <trkpt lat="46.94803" lon="-0.5825">
        <ele>149</ele>
        <time>2016-03-27T09:23:09Z</time>
      </trkpt>
      <trkpt lat="46.94781" lon="-0.58274">
        <ele>150</ele>
        <time>2016-03-27T09:23:13Z</time>
      </trkpt>
      <trkpt lat="46.94765" lon="-0.58301">
        <ele>145</ele>
        <time>2016-03-27T09:23:17Z</time>
      </trkpt>
      <trkpt lat="46.94742" lon="-0.5832">
        <ele>146</ele>
        <time>2016-03-27T09:23:21Z</time>
      </trkpt>
      <trkpt lat="46.94728" lon="-0.58339">
        <ele>149</ele>
        <time>2016-03-27T09:23:26Z</time>
      </trkpt>
      <trkpt lat="46.94722" lon="-0.58322">
        <ele>149</ele>
        <time>2016-03-27T09:23:30Z</time>
      </trkpt>
      <trkpt lat="46.94718" lon="-0.58314">
        <ele>147</ele>
        <time>2016-03-27T09:23:34Z</time>
      </trkpt>
      <trkpt lat="46.94712" lon="-0.58293">
        <ele>145</ele>
        <time>2016-03-27T09:23:38Z</time>
      </trkpt>
      <trkpt lat="46.94702" lon="-0.58269">
        <ele>144</ele>
        <time>2016-03-27T09:23:42Z</time>
      </trkpt>
      <trkpt lat="46.94691" lon="-0.58235">
        <ele>144</ele>
        <time>2016-03-27T09:23:46Z</time>
      </trkpt>
      <trkpt lat="46.94677" lon="-0.58212">
        <ele>144</ele>
        <time>2016-03-27T09:23:50Z</time>
      </trkpt>
      <trkpt lat="46.94646" lon="-0.58206">
        <ele>140</ele>
        <time>2016-03-27T09:23:54Z</time>
      </trkpt>
      <trkpt lat="46.94612" lon="-0.58191">
        <ele>139</ele>
        <time>2016-03-27T09:23:58Z</time>
      </trkpt>
      <trkpt lat="46.94584" lon="-0.58164">
        <ele>139</ele>
        <time>2016-03-27T09:24:02Z</time>
      </trkpt>
      <trkpt lat="46.94562" lon="-0.58145">
        <ele>139</ele>
        <time>2016-03-27T09:24:06Z</time>
      </trkpt>
      <trkpt lat="46.94545" lon="-0.58132">
        <ele>139</ele>
        <time>2016-03-27T09:24:10Z</time>
      </trkpt>
      <trkpt lat="46.94511" lon="-0.58119">
        <ele>131</ele>
        <time>2016-03-27T09:24:14Z</time>
      </trkpt>
      <trkpt lat="46.94481" lon="-0.58104">
        <ele>126</ele>
        <time>2016-03-27T09:24:18Z</time>
      </trkpt>
      <trkpt lat="46.94456" lon="-0.58092">
        <ele>126</ele>
        <time>2016-03-27T09:24:22Z</time>
      </trkpt>
      <trkpt lat="46.94429" lon="-0.58077">
        <ele>123</ele>
        <time>2016-03-27T09:24:26Z</time>
      </trkpt>
      <trkpt lat="46.94406" lon="-0.58054">
        <ele>117</ele>
        <time>2016-03-27T09:24:30Z</time>
      </trkpt>
      <trkpt lat="46.94387" lon="-0.58022">
        <ele>117</ele>
        <time>2016-03-27T09:24:34Z</time>
      </trkpt>
      <trkpt lat="46.94366" lon="-0.58022">
        <ele>117</ele>
        <time>2016-03-27T09:24:38Z</time>
      </trkpt>
      <trkpt lat="46.94348" lon="-0.5804">
        <ele>117</ele>
        <time>2016-03-27T09:24:42Z</time>
      </trkpt>
      <trkpt lat="46.94326" lon="-0.58074">
        <ele>109</ele>
        <time>2016-03-27T09:24:46Z</time>
      </trkpt>
      <trkpt lat="46.94311" lon="-0.5809">
        <ele>114</ele>
        <time>2016-03-27T09:24:50Z</time>
      </trkpt>
      <trkpt lat="46.94295" lon="-0.58115">
        <ele>113</ele>
        <time>2016-03-27T09:24:54Z</time>
      </trkpt>
      <trkpt lat="46.94273" lon="-0.58139">
        <ele>108</ele>
        <time>2016-03-27T09:24:58Z</time>
      </trkpt>
      <trkpt lat="46.94253" lon="-0.58155">
        <ele>109</ele>
        <time>2016-03-27T09:25:02Z</time>
      </trkpt>
      <trkpt lat="46.94253" lon="-0.58168">
        <ele>109</ele>
        <time>2016-03-27T09:25:06Z</time>
      </trkpt>
      <trkpt lat="46.94251" lon="-0.58187">
        <ele>109</ele>
        <time>2016-03-27T09:25:10Z</time>
      </trkpt>
      <trkpt lat="46.94255" lon="-0.58211">
        <ele>108</ele>
        <time>2016-03-27T09:25:14Z</time>
      </trkpt>
      <trkpt lat="46.94261" lon="-0.58229">
        <ele>112</ele>
        <time>2016-03-27T09:25:18Z</time>
      </trkpt>
      <trkpt lat="46.94271" lon="-0.58243">
        <ele>112</ele>
        <time>2016-03-27T09:25:22Z</time>
      </trkpt>
      <trkpt lat="46.94277" lon="-0.58254">
        <ele>111</ele>
        <time>2016-03-27T09:25:26Z</time>
      </trkpt>
      <trkpt lat="46.94278" lon="-0.58268">
        <ele>110</ele>
        <time>2016-03-27T09:25:30Z</time>
      </trkpt>
      <trkpt lat="46.9428" lon="-0.58285">
        <ele>107</ele>
        <time>2016-03-27T09:25:34Z</time>
      </trkpt>
      <trkpt lat="46.94285" lon="-0.58293">
        <ele>108</ele>
        <time>2016-03-27T09:25:38Z</time>
      </trkpt>
      <trkpt lat="46.94289" lon="-0.58311">
        <ele>109</ele>
        <time>2016-03-27T09:25:42Z</time>
      </trkpt>
      <trkpt lat="46.94285" lon="-0.58322">
        <ele>108</ele>
        <time>2016-03-27T09:25:46Z</time>
      </trkpt>
      <trkpt lat="46.94289" lon="-0.58339">
        <ele>108</ele>
        <time>2016-03-27T09:25:50Z</time>
      </trkpt>
      <trkpt lat="46.94292" lon="-0.58356">
        <ele>107</ele>
        <time>2016-03-27T09:25:54Z</time>
      </trkpt>
      <trkpt lat="46.94296" lon="-0.58375">
        <ele>107</ele>
        <time>2016-03-27T09:25:58Z</time>
      </trkpt>
      <trkpt lat="46.94297" lon="-0.5839">
        <ele>109</ele>
        <time>2016-03-27T09:26:02Z</time>
      </trkpt>
      <trkpt lat="46.94299" lon="-0.58403">
        <ele>108</ele>
        <time>2016-03-27T09:26:06Z</time>
      </trkpt>
      <trkpt lat="46.9429" lon="-0.58417">
        <ele>109</ele>
        <time>2016-03-27T09:26:10Z</time>
      </trkpt>
      <trkpt lat="46.9428" lon="-0.58423">
        <ele>110</ele>
        <time>2016-03-27T09:26:14Z</time>
      </trkpt>
      <trkpt lat="46.94274" lon="-0.58436">
        <ele>112</ele>
        <time>2016-03-27T09:26:19Z</time>
      </trkpt>
      <trkpt lat="46.94273" lon="-0.58448">
        <ele>116</ele>
        <time>2016-03-27T09:26:23Z</time>
      </trkpt>
      <trkpt lat="46.94265" lon="-0.58453">
        <ele>121</ele>
        <time>2016-03-27T09:26:28Z</time>
      </trkpt>
      <trkpt lat="46.94266" lon="-0.58462">
        <ele>123</ele>
        <time>2016-03-27T09:26:32Z</time>
      </trkpt>
      <trkpt lat="46.94268" lon="-0.58483">
        <ele>118</ele>
        <time>2016-03-27T09:26:37Z</time>
      </trkpt>
      <trkpt lat="46.94272" lon="-0.58498">
        <ele>117</ele>
        <time>2016-03-27T09:26:41Z</time>
      </trkpt>
      <trkpt lat="46.94274" lon="-0.58521">
        <ele>121</ele>
        <time>2016-03-27T09:26:45Z</time>
      </trkpt>
      <trkpt lat="46.9427" lon="-0.58551">
        <ele>117</ele>
        <time>2016-03-27T09:26:49Z</time>
      </trkpt>
      <trkpt lat="46.94251" lon="-0.58552">
        <ele>113</ele>
        <time>2016-03-27T09:26:53Z</time>
      </trkpt>
      <trkpt lat="46.94233" lon="-0.58551">
        <ele>113</ele>
        <time>2016-03-27T09:26:57Z</time>
      </trkpt>
      <trkpt lat="46.94219" lon="-0.58551">
        <ele>114</ele>
        <time>2016-03-27T09:27:01Z</time>
      </trkpt>
      <trkpt lat="46.94204" lon="-0.5855">
        <ele>117</ele>
        <time>2016-03-27T09:27:05Z</time>
      </trkpt>
      <trkpt lat="46.94191" lon="-0.58549">
        <ele>119</ele>
        <time>2016-03-27T09:27:09Z</time>
      </trkpt>
      <trkpt lat="46.94172" lon="-0.58553">
        <ele>118</ele>
        <time>2016-03-27T09:27:13Z</time>
      </trkpt>
      <trkpt lat="46.94158" lon="-0.58551">
        <ele>121</ele>
        <time>2016-03-27T09:27:17Z</time>
      </trkpt>
      <trkpt lat="46.94141" lon="-0.58554">
        <ele>118</ele>
        <time>2016-03-27T09:27:21Z</time>
      </trkpt>
      <trkpt lat="46.94128" lon="-0.58554">
        <ele>119</ele>
        <time>2016-03-27T09:27:25Z</time>
      </trkpt>
      <trkpt lat="46.9412" lon="-0.58553">
        <ele>122</ele>
        <time>2016-03-27T09:27:29Z</time>
      </trkpt>
      <trkpt lat="46.9411" lon="-0.58553">
        <ele>123</ele>
        <time>2016-03-27T09:27:33Z</time>
      </trkpt>
      <trkpt lat="46.94098" lon="-0.5855">
        <ele>124</ele>
        <time>2016-03-27T09:27:37Z</time>
      </trkpt>
      <trkpt lat="46.94084" lon="-0.58551">
        <ele>125</ele>
        <time>2016-03-27T09:27:41Z</time>
      </trkpt>
      <trkpt lat="46.94072" lon="-0.58565">
        <ele>124</ele>
        <time>2016-03-27T09:27:45Z</time>
      </trkpt>
      <trkpt lat="46.94054" lon="-0.58578">
        <ele>123</ele>
        <time>2016-03-27T09:27:49Z</time>
      </trkpt>
      <trkpt lat="46.94044" lon="-0.58594">
        <ele>122</ele>
        <time>2016-03-27T09:27:53Z</time>
      </trkpt>
      <trkpt lat="46.9403" lon="-0.5861">
        <ele>121</ele>
        <time>2016-03-27T09:27:57Z</time>
      </trkpt>
      <trkpt lat="46.94015" lon="-0.58621">
        <ele>120</ele>
        <time>2016-03-27T09:28:01Z</time>
      </trkpt>
      <trkpt lat="46.94006" lon="-0.58635">
        <ele>120</ele>
        <time>2016-03-27T09:28:05Z</time>
      </trkpt>
      <trkpt lat="46.93993" lon="-0.58653">
        <ele>122</ele>
        <time>2016-03-27T09:28:09Z</time>
      </trkpt>
      <trkpt lat="46.93978" lon="-0.58678">
        <ele>120</ele>
        <time>2016-03-27T09:28:13Z</time>
      </trkpt>
      <trkpt lat="46.93962" lon="-0.58695">
        <ele>119</ele>
        <time>2016-03-27T09:28:17Z</time>
      </trkpt>
      <trkpt lat="46.93955" lon="-0.58708">
        <ele>120</ele>
        <time>2016-03-27T09:28:21Z</time>
      </trkpt>
      <trkpt lat="46.93943" lon="-0.5872">
        <ele>122</ele>
        <time>2016-03-27T09:28:26Z</time>
      </trkpt>
      <trkpt lat="46.9393" lon="-0.58739">
        <ele>123</ele>
        <time>2016-03-27T09:28:30Z</time>
      </trkpt>
      <trkpt lat="46.93921" lon="-0.58743">
        <ele>127</ele>
        <time>2016-03-27T09:28:33Z</time>
      </trkpt>
      <trkpt lat="46.93916" lon="-0.58768">
        <ele>123</ele>
        <time>2016-03-27T09:28:37Z</time>
      </trkpt>
      <trkpt lat="46.93906" lon="-0.5878">
        <ele>119</ele>
        <time>2016-03-27T09:28:42Z</time>
      </trkpt>
      <trkpt lat="46.93896" lon="-0.58793">
        <ele>115</ele>
        <time>2016-03-27T09:28:46Z</time>
      </trkpt>
      <trkpt lat="46.93882" lon="-0.58806">
        <ele>117</ele>
        <time>2016-03-27T09:28:50Z</time>
      </trkpt>
      <trkpt lat="46.93865" lon="-0.58818">
        <ele>119</ele>
        <time>2016-03-27T09:28:54Z</time>
      </trkpt>
      <trkpt lat="46.9385" lon="-0.58828">
        <ele>125</ele>
        <time>2016-03-27T09:28:58Z</time>
      </trkpt>
      <trkpt lat="46.93834" lon="-0.5884">
        <ele>129</ele>
        <time>2016-03-27T09:29:03Z</time>
      </trkpt>
      <trkpt lat="46.93824" lon="-0.5885">
        <ele>128</ele>
        <time>2016-03-27T09:29:07Z</time>
      </trkpt>
      <trkpt lat="46.93811" lon="-0.5886">
        <ele>125</ele>
        <time>2016-03-27T09:29:11Z</time>
      </trkpt>
      <trkpt lat="46.93795" lon="-0.5887">
        <ele>126</ele>
        <time>2016-03-27T09:29:15Z</time>
      </trkpt>
      <trkpt lat="46.93783" lon="-0.58878">
        <ele>124</ele>
        <time>2016-03-27T09:29:19Z</time>
      </trkpt>
      <trkpt lat="46.93773" lon="-0.5889">
        <ele>125</ele>
        <time>2016-03-27T09:29:23Z</time>
      </trkpt>
      <trkpt lat="46.93759" lon="-0.589">
        <ele>122</ele>
        <time>2016-03-27T09:29:27Z</time>
      </trkpt>
      <trkpt lat="46.93751" lon="-0.58911">
        <ele>120</ele>
        <time>2016-03-27T09:29:31Z</time>
      </trkpt>
      <trkpt lat="46.93736" lon="-0.5891">
        <ele>122</ele>
        <time>2016-03-27T09:29:35Z</time>
      </trkpt>
      <trkpt lat="46.9372" lon="-0.58909">
        <ele>120</ele>
        <time>2016-03-27T09:29:39Z</time>
      </trkpt>
      <trkpt lat="46.93708" lon="-0.58909">
        <ele>120</ele>
        <time>2016-03-27T09:29:43Z</time>
      </trkpt>
      <trkpt lat="46.93701" lon="-0.58913">
        <ele>120</ele>
        <time>2016-03-27T09:29:48Z</time>
      </trkpt>
      <trkpt lat="46.93698" lon="-0.58921">
        <ele>117</ele>
        <time>2016-03-27T09:29:52Z</time>
      </trkpt>
      <trkpt lat="46.93696" lon="-0.58937">
        <ele>121</ele>
        <time>2016-03-27T09:29:57Z</time>
      </trkpt>
      <trkpt lat="46.93688" lon="-0.58941">
        <ele>126</ele>
        <time>2016-03-27T09:30:03Z</time>
      </trkpt>
      <trkpt lat="46.93688" lon="-0.58954">
        <ele>125</ele>
        <time>2016-03-27T09:30:07Z</time>
      </trkpt>
      <trkpt lat="46.93689" lon="-0.58944">
        <ele>123</ele>
        <time>2016-03-27T09:32:29Z</time>
      </trkpt>
      <trkpt lat="46.93698" lon="-0.58937">
        <ele>121</ele>
        <time>2016-03-27T09:32:34Z</time>
      </trkpt>
      <trkpt lat="46.93702" lon="-0.58928">
        <ele>122</ele>
        <time>2016-03-27T09:32:38Z</time>
      </trkpt>
      <trkpt lat="46.93701" lon="-0.58913">
        <ele>126</ele>
        <time>2016-03-27T09:32:42Z</time>
      </trkpt>
      <trkpt lat="46.93707" lon="-0.58918">
        <ele>119</ele>
        <time>2016-03-27T09:32:59Z</time>
      </trkpt>
      <trkpt lat="46.93707" lon="-0.58922">
        <ele>117</ele>
        <time>2016-03-27T09:36:13Z</time>
      </trkpt>
      <trkpt lat="46.93707" lon="-0.58922">
        <ele>117</ele>
        <time>2016-03-27T09:36:14Z</time>
      </trkpt>
    </trkseg>
  </trk>
</gpx>